     2              OBSERVATION DATA    GPS                 RINEX VERSION / TYPE
teqc 2000Jul20 Karen Wendt 20030414 22:25:27UTC             PGM / RUN BY / DATE
                                                            COMMENT
L2: 1 -> 1; 150 -> 5; 250 -> 9                              COMMENT
L2: 1 -> 1; 150 -> 5; 250 -> 9                              COMMENT
L2: 1 -> 1; 150 -> 5; 250 -> 9                              COMMENT
L2: 1 -> 1; 150 -> 5; 250 -> 9                              COMMENT
L2: 1 -> 1; 150 -> 5; 250 -> 9                              COMMENT
L2: 1 -> 1; 150 -> 5; 250 -> 9                              COMMENT
L2: 1 -> 1; 150 -> 5; 250 -> 9                              COMMENT
L2: 1 -> 1; 150 -> 5; 250 -> 9                              COMMENT
L2: 1 -> 1; 150 -> 5; 250 -> 9                              COMMENT
L2: 1 -> 1; 150 -> 5; 250 -> 9                              COMMENT
L2: 1 -> 1; 150 -> 5; 250 -> 9                              COMMENT
L2: 1 -> 1; 150 -> 5; 250 -> 9                              COMMENT
L2: 1 -> 1; 150 -> 5; 250 -> 9                              COMMENT
L2: 1 -> 1; 150 -> 5; 250 -> 9                              COMMENT
Original Marker Name: lost Lost_USGS                        COMMENT
Campaign Name: USGS 2003                                    COMMENT
4-Character Station Name: LOST                              COMMENT
6-Character Antenna Code: DMRCHT                            COMMENT
Vertical Measurement Point: BCR                             COMMENT
Vertical Offset to Rinex Ref. Point: 0.0348                 COMMENT
Radial Measurement Point: ECF                               COMMENT
Radial Offset to Rinex Ref. Point: 0.1897                   COMMENT
Antenna Height from Field Measurement: 1.3940 m             COMMENT
Additional Antenna Identification Info.:                    COMMENT
Turborogue and Ashtech Choke Ring                           COMMENT
Original XYZ: -2620414.3625 -4456412.8769 3724113.4900      COMMENT
New XYZ position is based on association with SCEC monument COMMENT
E1F1N4H7+0011. Position of that monument is believed to be  COMMENT
valid to within 1 m horizontally; vertical accuracy         COMMENT
should be no worse than 3-times this value.                 COMMENT
                                                            COMMENT
Revised Rinex header created by UCSD GPS archive for        COMMENT
GSAC on 17-Jul-2003 (2003:198) 21:05:16 GMT                 COMMENT
For assistance contact dagnew@ucsd.edu                      COMMENT
or anderson@python.ucsd.edu                                 COMMENT
                                                            COMMENT
LOST 1986                                                   MARKER NAME
CHS US GEOLOGICAL SURVEY                                    OBSERVER / AGENCY
LP019992803 ASHTECH Z-XII3 CD00                             REC # / TYPE / VERS
CR14330 DORNE-MARGOL. TYPE T                                ANT # / TYPE
 -2620429.4445 -4456382.9214  3724097.4009                  APPROX POSITION XYZ
        1.3462        0.0000        0.0000                  ANTENNA: DELTA H/E/N
     1     1     0                                          WAVELENGTH FACT L1/2
     5    C1    L1    L2    P1    P2                        # / TYPES OF OBSERV
    30                                                      INTERVAL
  2003     4     5     0     1    0.000000                  TIME OF FIRST OBS
  2003     4     5    23    59   30.000000                  TIME OF LAST OBS
                                                            END OF HEADER
 03  4  5  0  1  0.0000000  0  8G17G31G 3G14G 9G15G23G18
  21634825.912   -19330240.03449 -15053595.47847  21634825.422    21634835.432
  23585102.357    -4663952.09949  -3613998.13545  23585101.765    23585113.316
  21874489.215   -11814020.45249  -9184318.27847  21874489.096    21874498.811
  22048035.760   -11706139.95749  -9097184.22346  22048035.483    22048047.403
  23926283.769    -4034259.83349  -3137592.16045  23926283.608    23926296.174
  20232301.437   -24626494.63149 -19003260.79048  20232300.860    20232309.092
  21360432.524   -14831609.02649 -11540316.97847  21360432.120    21360440.421
  20714918.251   -19634397.96349 -15052821.84148  20714917.941    20714924.776
 03  4  5  0  1 30.0000000  0  8G17G31G 3G14G 9G15G23G18
  21644495.991   -19279423.95049 -15013998.58647  21644495.527    21644505.439
  23570099.519    -4742790.57049  -3675430.56445  23570098.991    23570110.842
  21867828.593   -11849022.52449  -9211592.57047  21867828.457    21867838.037
  22030326.288   -11799202.78149  -9169700.45746  22030326.013    22030337.867
  23917027.313    -4082901.58449  -3175494.67145  23917027.127    23917039.805
  20232404.562   -24625952.53249 -19002838.35648  20232404.008    20232412.231
  21368580.196   -14788792.89949 -11506953.76047  21368579.770    21368588.064
  20721270.665   -19601015.57449 -15026809.57747  20721270.373    20721277.230
 03  4  5  0  2  0.0000000  0  8G17G31G 3G14G 9G15G23G18
  21654224.702   -19228299.42449 -14974161.34647  21654224.212    21654234.131
  23555171.575    -4821235.58149  -3736556.42745  23555171.224    23555183.187
  21861270.534   -11883485.30749  -9238446.63847  21861270.358    21861279.933
  22012679.969   -11891933.92649  -9241958.24346  22012679.729    22012691.473
  23907847.826    -4131140.05149  -3213082.95245  23907847.562    23907860.062
  20232574.730   -24625058.67949 -19002141.83148  20232574.170    20232582.387
  21376756.931   -14745823.68849 -11473471.26047  21376756.509    21376764.812
  20727670.385   -19567384.60749 -15000603.61847  20727670.103    20727676.923
 03  4  5  0  2 30.0000000  0  8G17G31G 3G14G 9G15G23G18
  21664011.675   -19176868.21249 -14934085.13247  21664011.197    21664021.195
  23540318.541    -4899287.01649  -3797375.59045  23540318.108    23540330.421
  21854814.801   -11917409.92049  -9264881.35147  21854814.657    21854824.273
  21995096.850   -11984333.17949  -9313957.41247  21995096.602    21995108.216
  23898745.036    -4178974.73549  -3250356.58545  23898744.774    23898757.442
  20232811.593   -24623814.22549 -19001172.10448  20232811.026    20232819.192
  21384962.138   -14702705.07949 -11439872.34747  21384961.739    21384970.039
  20734116.768   -19533508.82549 -14974206.90147  20734116.450    20734123.274
 03  4  5  0  3  0.0000000  0  8G17G31G 3G14G 9G15G23G18
  21673857.241   -19125129.29849 -14893769.16447  21673856.771    21673866.843
  23525541.115    -4976941.59049  -3857885.50645  23525540.698    23525553.085
  21848461.923   -11950794.30449  -9290895.10947  21848461.775    21848471.372
  21977577.473   -12076397.10749  -9385695.29847  21977577.240    21977588.773
  23889719.654    -4226402.26249  -3287312.94045  23889719.372    23889732.257
  20233115.452   -24622217.46049 -18999927.84948  20233114.896    20233123.043
  21393195.745   -14659437.44449 -11406157.30647  21393195.339    21393203.560
  20740609.598   -19499388.67949 -14947619.77347  20740609.285    20740616.129
 03  4  5  0  3 30.0000000  0  8G17G31G 3G14G 9G15G23G18
  21683761.297   -19073083.25949 -14853213.86847  21683760.775    21683770.982
  23510839.677    -5054197.53949  -3918084.79745  23510839.155    23510851.544
  21842211.846   -11983638.33849  -9316487.79547  21842211.672    21842221.299
  21960122.242   -12168124.05349  -9457170.59747  21960122.054    21960133.403
  23880772.116    -4273420.50349  -3323950.37345  23880771.777    23880784.821
  20233486.421   -24620268.20049 -18998408.92048  20233485.869    20233493.910
  21401457.373   -14616022.80949 -11372327.71847  21401456.940    21401465.135
  20747148.667   -19465025.66049 -14920843.38248  20747148.368    20747155.241
 03  4  5  0  4  0.0000000  0  8G17G31G 3G14G 9G15G23G18
  21693724.206   -19020727.58949 -14812417.29947  21693723.718    21693734.034
  23496214.837    -5131050.62049  -3977970.18345  23496214.180    23496226.583
  21836065.266   -12015938.65249  -9341656.81347  21836065.067    21836074.693
  21942732.046   -12259509.53949  -9528379.82947  21942731.853    21942743.080
  23871903.291    -4320024.57449  -3360265.09445  23871903.095    23871916.173
  20233925.096   -24617962.90949 -18996612.56748  20233924.516    20233932.583
  21409746.990   -14572460.27349 -11338382.88147  21409746.561    21409754.834
  20753734.037   -19430419.33649 -14893877.41148  20753733.749    20753740.608
 03  4  5  0  4 30.0000000  0  8G17G31G 3G14G 9G15G23G18
  21703745.480   -18968065.14749 -14771381.69547  21703745.000    21703755.408
  23481666.592    -5207501.01149  -4037541.77945  23481666.031    23481678.294
  21830021.699   -12047697.13049  -9366403.63447  21830021.531    21830031.129
  21925406.728   -12350554.00649  -9599323.34047  21925406.547    21925417.660
  23863113.448    -4366214.52149  -3396257.11545  23863113.221    23863126.367
  20234431.013   -24615303.93649 -18994540.61848  20234430.455    20234438.577
  21418064.013   -14528753.92949 -11304326.00247  21418063.603    21418071.916
  20760364.930   -19395573.81749 -14866725.05448  20760364.639    20760371.501
 03  4  5  0  5  0.0000000  0  8G17G31G 3G14G 9G15G23G18
  21713825.746   -18915092.93749 -14730104.70747  21713825.331    21713835.706
  23467196.065    -5283543.82449  -4096795.77445  23467195.549    23467207.632
  21824081.888   -12078910.06349  -9390725.34547  21824081.733    21824091.453
  21908147.350   -12441252.30349  -9669997.10147  21908147.126    21908158.157
  23854403.384    -4411985.17549  -3431922.42345  23854403.211    23854416.424
  20235005.024   -24612287.61749 -18992190.22348  20235004.438    20235012.541
  21426408.651   -14484902.39349 -11270155.98547  21426408.236    21426416.559
  20767041.617   -19360487.59649 -14839385.14348  20767041.336    20767048.158
 03  4  5  0  5 30.0000000  0  8G17G31G 3G14G 9G15G23G18
  21723964.704   -18861813.09649 -14688588.01047  21723964.232    21723974.558
  23452803.312    -5359178.91149  -4155732.07845  23452802.742    23452814.464
  21818245.760   -12109578.68349  -9414622.92047  21818245.633    21818255.445
  21890953.847   -12531604.19749  -9740400.94347  21890953.589    21890964.578
  23845773.167    -4457336.18749  -3467260.73445  23845772.965    23845786.227
  20235646.782   -24608915.05049 -18989562.23848  20235646.194    20235654.296
  21434780.286   -14440909.19149 -11235875.57747  21434779.891    21434788.192
  20773763.480   -19325164.19749 -14811860.41548  20773763.193    20773769.976
 03  4  5  0  6  0.0000000  0  8G17G31G 3G14G 9G15G23G18
  21734162.370   -18808224.74649 -14646830.91747  21734161.863    21734172.140
  23438488.567    -5434403.30849  -4214348.36645  23438488.112    23438499.616
  21812513.594   -12139701.17249  -9438094.93847  21812513.451    21812523.267
  21873826.788   -12621606.66849  -9810532.50547  21873826.525    21873837.475
  23837223.594    -4502264.23449  -3502269.49245  23837223.235    23837236.671
  20236356.608   -24605184.62149 -18986655.40248  20236356.032    20236364.169
  21443178.776   -14396774.99049 -11201485.28247  21443178.376    21443186.649
  20780530.330   -19289604.27949 -14784151.39048  20780530.018    20780536.822
 03  4  5  0  6 30.0000000  0  8G17G31G 3G14G 9G15G23G18
  21744418.848   -18754326.97349 -14604832.72246  21744418.322    21744428.507
  23424252.447    -5509214.19449  -4272642.41845  23424252.028    23424263.532
  21806885.592   -12169276.14749  -9461140.32647  21806885.507    21806895.265
  21856766.784   -12711257.14949  -9880389.79747  21856766.476    21856777.341
  23828754.918    -4546766.22349  -3536946.24345  23828754.586    23828768.109
  20237134.812   -24601094.99649 -18983468.68248  20237134.253    20237142.375
  21451603.948   -14352500.46049 -11166985.65547  21451603.564    21451611.807
  20787341.956   -19253808.75949 -14756258.77548  20787341.643    20787348.491
 03  4  5  0  7  0.0000000  0  8G17G31G 3G14G 9G15G23G18
  21754734.082   -18700120.29049 -14562593.81146  21754733.551    21754743.659
  23410095.452    -5583609.43049  -4330612.58445  23410095.038    23410106.570
  21801362.003   -12198302.92549  -9483758.54747  21801361.911    21801371.601
  21839774.180   -12800553.13449  -9949970.86347  21839773.830    21839784.603
  23820368.140    -4590839.56849  -3571288.96845  23820367.772    23820381.332
  20237981.563   -24596645.29549 -18980001.38548  20237980.987    20237989.060
  21460055.560   -14308087.00149 -11132377.76447  21460055.163    21460063.425
  20794198.217   -19217778.97849 -14728183.61748  20794197.906    20794204.764
 03  4  5  0  7 30.0000000  0  8G17G31G 3G14G 9G15G23G18
  21765107.978   -18645604.78449 -14520114.24246  21765107.500    21765117.648
  23396018.050    -5657586.72749  -4388257.10145  23396017.664    23396029.105
  21795942.884   -12226780.63949  -9505948.93047  21795942.773    21795952.376
  21822849.375   -12889492.60949 -10019274.12447  21822849.056    21822859.728
  23812063.303    -4634481.77849  -3605295.77045  23812062.992    23812076.474
  20238896.921   -24591834.76449 -18976252.91848  20238896.354    20238904.391
  21468533.352   -14263535.96949 -11097662.67147  21468532.964    21468541.240
  20801098.858   -19181516.27149 -14699926.95748  20801098.539    20801105.323
 03  4  5  0  8  0.0000000  0  8G17G31G 3G14G 9G15G23G18
  21775540.800   -18590780.24049 -14477393.87346  21775540.327    21775550.468
  23382020.512    -5731143.90549  -4445574.23145  23382020.135    23382031.457
  21790628.323   -12254708.61749  -9527710.95047  21790628.242    21790637.822
  21805992.832   -12978073.34349 -10088297.85547  21805992.516    21806003.111
  23803841.083    -4677690.27349  -3638964.58345  23803840.674    23803853.950
  20239881.100   -24586662.45549 -18972222.54948  20239880.572    20239888.571
  21477037.004   -14218848.72249 -11062841.44147  21477036.617    21477044.961
  20808043.418   -19145022.42449 -14671490.18848  20808043.092    20808049.795
 03  4  5  0  8 30.0000000  0  8G17G31G 3G14G 9G15G23G18
  21786032.648   -18535645.46249 -14434431.76946  21786032.184    21786042.328
  23368103.469    -5804277.87649  -4502561.59345  23368103.069    23368114.432
  21785418.779   -12282085.07149  -9549043.20947  21785418.688    21785428.206
  21789205.196   -13066291.94549 -10157039.40847  21789204.908    21789215.419
  23795701.974    -4720461.67849  -3672292.82545  23795701.569    23795714.716
  20240934.575   -24581126.79449 -18967909.04448  20240934.033    20240941.971
  21485566.557   -14174025.61549 -11027914.33847  21485566.162    21485574.572
  20815031.951   -19108297.42749 -14642873.29548  20815031.643    20815038.280
 03  4  5  0  9  0.0000000  0  8G17G31G 3G14G 9G15G23G18
  21796583.273   -18480201.39649 -14391228.65747  21796582.820    21796593.112
  23354267.360    -5876986.87349  -4559217.80645  23354267.007    23354278.316
  21780314.296   -12308909.67649  -9569945.47647  21780314.172    21780323.605
  21772486.757   -13154146.82249 -10225497.54047  21772486.472    21772496.917
  23787646.467    -4762794.02649  -3705278.96145  23787646.064    23787659.065
  20242057.182   -24575227.44949 -18963312.15148  20242056.626    20242064.602
  21494121.632   -14129068.51149 -10992882.82647  21494121.239    21494129.662
  20822064.207   -19071342.98549 -14614077.61448  20822063.885    20822070.443
 03  4  5  0  9 30.0000000  0  8G17G31G 3G14G 9G15G23G18
  21807192.985   -18424447.18049 -14347783.87347  21807192.525    21807202.919
  23340512.692    -5949268.51949  -4615541.02645  23340512.359    23340523.448
  21775314.860   -12335181.48749  -9590416.97747  21775314.734    21775324.184
  21755838.046   -13241635.33949 -10293670.20147  21755837.777    21755848.169
  23779675.125    -4804684.66149  -3737920.90045  23779674.824    23779687.369
  20243249.162   -24568963.44849 -18958431.10548  20243248.601    20243256.654
  21502702.095   -14083978.21249 -10957747.51847  21502701.679    21502710.085
  20829139.848   -19034160.45349 -14585104.20247  20829139.497    20829145.994
 03  4  5  0 10  0.0000000  0  8G17G31G 3G14G 9G15G23G18
  21817861.728   -18368382.34949 -14304097.04546  21817861.289    21817871.760
  23326839.783    -6021120.05249  -4671529.10545  23326839.455    23326850.471
  21770420.837   -12360899.32649  -9610456.81947  21770420.732    21770430.217
  21739259.526   -13328754.92249 -10361555.38447  21739259.244    21739269.601
  23771788.077    -4846130.76949  -3770216.45545  23771787.685    23771800.038
  20244510.898   -24562333.13749 -18953264.62748  20244510.337    20244518.424
  21511307.622   -14038755.59349 -10922509.09247  21511307.232    21511315.670
  20836258.664   -18996750.49249 -14555953.56847  20836258.339    20836264.872
 03  4  5  0 10 30.0000000  0  8G17G31G 3G14G 9G15G23G18
  21828589.516   -18312007.89049 -14260168.95946  21828589.022    21828599.592
  23313248.829    -6092540.06349  -4727180.92745  23313248.534    23313259.625
  21765632.337   -12386062.75749  -9630064.66547  21765632.227    21765641.755
  21722751.495   -13415504.09049 -10429151.93347  21722751.272    21722761.557
  23763985.972    -4887130.48049  -3802164.16845  23763985.655    23763997.833
  20245842.316   -24555336.38849 -18947812.60948  20245841.736    20245849.890
  21519937.953   -13993402.74149 -10887169.20947  21519937.547    21519946.017
  20843420.339   -18959115.26249 -14526627.39547  20843420.021    20843426.617
 03  4  5  0 11  0.0000000  0  8G17G31G 3G14G 9G15G23G18
  21839376.095   -18255324.01449 -14215999.76346  21839375.605    21839386.233
  23299740.325    -6163526.74849  -4782495.10145  23299740.076    23299751.271
  21760949.394   -12410671.75749  -9649240.48047  21760949.298    21760958.787
  21706314.448   -13501880.84949 -10496458.29547  21706314.192    21706324.402
  23756269.253    -4927681.77649  -3833762.49745  23756269.058    23756280.949
  20247243.502   -24547972.87649 -18942074.79048  20247242.935    20247251.130
  21528592.871   -13947921.10449 -10851728.97547  21528592.456    21528600.906
  20850624.585   -18921256.24049 -14497126.84847  20850624.273    20850630.983
 03  4  5  0 11 30.0000000  0  8G17G31G 3G14G 9G15G23G18
  21850222.059   -18198328.00449 -14171587.34346  21850221.576    21850232.245
  23286315.228    -6234075.26549  -4837467.84945  23286314.900    23286326.177
  21756372.632   -12434723.04149  -9667981.72047  21756372.507    21756381.879
  21689949.096   -13587880.46249 -10563470.77847  21689948.831    21689959.008
  23748638.830    -4967779.51049  -3865007.36945  23748638.589    23748650.265
  20248715.180   -24540239.01449 -18936048.39148  20248714.617    20248722.807
  21537272.512   -13902309.32649 -10816187.33247  21537272.117    21537280.561
  20857871.671   -18883172.18349 -14467450.95347  20857871.386    20857878.145
 03  4  5  0 12  0.0000000  0  8G17G31G 3G14G 9G15G23G18
  21861127.000   -18141022.36349 -14126933.68146  21861126.567    21861137.203
  23272973.538    -6304185.96849  -4892099.45545  23272973.206    23272984.292
  21751901.589   -12458218.49649  -9686289.84947  21751901.482    21751910.825
  21673655.520   -13673503.15949 -10630189.55947  21673655.231    21673665.357
  23741094.736    -5007423.51849  -3895898.67245  23741094.553    23741105.988
  20250256.963   -24532136.56349 -18929734.78148  20250256.419    20250264.600
  21545976.137   -13856571.27649 -10780547.29347  21545975.741    21545984.135
  20865160.932   -18844866.91749 -14437602.67547  20865160.640    20865167.428
 03  4  5  0 12 30.0000000  0  8G17G31G 3G14G 9G15G23G18
  21872090.973   -18083406.85449 -14082038.55146  21872090.517    21872101.133
  23259715.798    -6373856.12049  -4946387.77245  23259715.444    23259726.284
  21747536.620   -12481156.65649  -9704163.71647  21747536.524    21747545.778
  21657434.216   -13758746.29949 -10696612.58347  21657433.881    21657443.895
  23733637.293    -5046611.10149  -3926434.30045  23733637.146    23733648.596
  20251869.255   -24523663.98349 -18923132.75248  20251868.713    20251876.844
  21554703.724   -13810707.57349 -10744809.33347  21554703.339    21554711.685
  20872492.112   -18806341.29249 -14407582.68647  20872491.805    20872498.627
 03  4  5  0 13  0.0000000  0  8G17G31G 3G14G 9G15G23G18
  21883114.039   -18025480.39049 -14036901.12646  21883113.566    21883124.307
  23246542.445    -6443082.76049  -5000330.51445  23246542.044    23246552.713
  21743278.067   -12503536.19149  -9721602.30047  21743277.952    21743287.077
  21641285.711   -13843606.80749 -10762737.45947  21641285.340    21641295.246
  23726267.303    -5085339.12049  -3956611.84445  23726267.158    23726278.824
  20253552.329   -24514819.70649 -18916241.09448  20253551.768    20253559.855
  21563455.119   -13764718.55249 -10708973.72447  21563454.731    21563463.048
  20879865.094   -18767595.72649 -14377391.32447  20879864.811    20879871.659
 03  4  5  0 13 30.0000000  0  8G17G31G 3G14G 9G15G23G18
  21894196.264   -17967242.78349 -13991521.26146  21894195.843    21894206.689
  23233453.786    -6511863.47949  -5053925.75445  23233453.395    23233463.909
  21739125.932   -12525356.23649  -9738604.92347  21739125.786    21739134.837
  21625210.420   -13928082.28249 -10828562.31647  21625210.079    21625219.880
  23718985.449    -5123604.99849  -3986429.28745  23718985.378    23718996.955
  20255306.313   -24505602.67149 -18909058.97348  20255305.754    20255313.840
  21572230.161   -13718605.12349 -10673041.16847  21572229.786    21572238.109
  20887279.686   -18728631.48949 -14347029.56847  20887279.397    20887286.260
 03  4  5  0 14  0.0000000  0  8G17G31G 3G14G 9G15G23G18
  21905337.864   -17908693.88349 -13945898.81246  21905337.411    21905348.316
  23220450.264    -6580196.15149  -5107171.85645  23220449.917    23220460.615
  21735080.291   -12546616.05949  -9755170.98847  21735080.137    21735089.187
  21609208.786   -14012170.69649 -10894085.55147  21609208.437    21609218.201
  23711791.931    -5161406.39549  -4015884.77145  23711791.819    23711803.563
  20257131.370   -24496012.20649 -18901585.85748  20257130.810    20257138.894
  21581028.621   -13672368.48849 -10637012.60647  21581028.255    21581036.651
  20894735.783   -18689449.06049 -14316497.78247  20894735.496    20894742.339
 03  4  5  0 14 30.0000000  0  8G17G31G 3G14G 9G15G23G18
  21916538.286   -17849835.24549 -13900035.01846  21916537.846    21916548.834
  23207532.058    -6648080.19549  -5160068.39845  23207531.771    23207542.713
  21731141.104   -12567316.55649  -9771301.22447  21731140.954    21731150.008
  21593280.910   -14095871.10649 -10959306.44847  21593280.593    21593290.375
  23704687.124    -5198742.33849  -4044977.53945  23704686.937    23704699.018
  20259027.336   -24486048.84549 -18893822.18548  20259026.768    20259034.880
  21589850.078   -13626011.39949 -10600890.18047  21589849.708    21589858.109
  20902232.782   -18650051.53749 -14285798.38847  20902232.516    20902239.331
 03  4  5  0 15  0.0000000  0  8G17G31G 3G14G 9G15G23G18
  21927798.016   -17790665.11949 -13853928.50846  21927797.561    21927808.566
  23194699.978    -6715511.68649  -5212612.28845  23194699.674    23194710.855
  21727308.767   -12587455.59949  -9786993.97047  21727308.607    21727317.605
  21577427.632   -14179179.81149 -11024222.13847  21577427.338    21577437.170
  23697671.604    -5235608.73949  -4073704.47045  23697671.384    23697683.476
  20260994.688   -24475710.07349 -18885765.97948  20260994.126    20261002.287
  21598694.654   -13579533.24449 -10564673.42347  21598694.275    21598702.667
  20909770.865   -18610438.78849 -14254931.29847  20909770.597    20909777.322
 03  4  5  0 15 30.0000000  0  8G17G31G 3G14G 9G15G23G18
  21939117.018   -17731183.73849 -13807579.45546  21939116.585    21939127.580
  23181954.482    -6782488.83649  -5264802.15445  23181954.128    23181965.434
  21723583.253   -12607033.37949  -9802249.35547  21723583.077    21723592.051
  21561649.355   -14262094.87549 -11088831.09147  21561649.041    21561658.886
  23690745.834    -5272003.51349  -4102063.91645  23690745.628    23690757.747
  20263033.628   -24464995.26949 -18877416.75648  20263033.054    20263041.242
  21607561.878   -13532935.56149 -10528363.52147  21607561.496    21607569.912
  20917349.748   -18570611.89349 -14223897.33747  20917349.450    20917356.116
 03  4  5  0 16  0.0000000  0  8G17G31G 3G14G 9G15G23G18
  21950495.146   -17671391.65449 -13760988.30646  21950494.699    21950505.646
  23169295.755    -6849009.94549  -5316636.64445  23169295.371    23169306.856
  21719964.595   -12626049.20849  -9817066.85147  21719964.431    21719973.425
  21545946.230   -14344614.55649 -11153131.94147  21545945.912    21545955.807
  23683910.093    -5307925.17549  -4130054.66745  23683909.870    23683922.052
  20265144.171   -24453904.13949 -18868774.28348  20265143.613    20265151.809
  21616451.670   -13486219.73549 -10491961.56147  21616451.282    21616459.707
  20924968.924   -18530572.65049 -14192697.90447  20924968.626    20924975.350
 03  4  5  0 16 30.0000000  0  8G17G31G 3G14G 9G15G23G18
  21961932.351   -17611289.45549 -13714155.50346  21961931.931    21961942.724
  23156724.259    -6915073.45649  -5368114.58745  23156723.854    23156735.272
  21716452.890   -12644503.22149  -9831446.58147  21716452.733    21716461.785
  21530318.645   -14426737.02249 -11217123.28947  21530318.341    21530328.336
  23677164.766    -5343371.75649  -4157675.25845  23677164.580    23677176.600
  20267326.409   -24442436.20449 -18859838.20848  20267325.862    20267334.044
  21625363.643   -13439387.27649 -10455468.71947  21625363.243    21625371.664
  20932628.189   -18490322.88449 -14161334.43547  20932627.913    20932634.659
 03  4  5  0 17  0.0000000  0  8G17G31G 3G14G 9G15G23G18
  21973428.571   -17550877.17449 -13667081.07246  21973428.142    21973438.880
  23144240.244    -6980677.48349  -5419234.47645  23144239.866    23144251.050
  21713048.070   -12662395.14549  -9845388.31447  21713047.900    21713057.098
  21514766.973   -14508460.53449 -11280803.76147  21514766.648    21514776.708
  23670510.450    -5378341.08049  -4184923.94745  23670510.267    23670522.173
  20269580.489   -24430590.96249 -18850608.13148  20269579.932    20269588.150
  21634297.469   -13392439.53149 -10418886.04647  21634297.078    21634305.575
  20940327.301   -18449863.99449 -14129808.01747  20940326.993    20940333.774
 03  4  5  0 17 30.0000000  0  8G17G31G 3G14G 9G15G23G18
  21984984.055   -17490153.37549 -13619763.88846  21984983.593    21984994.302
  23131844.294    -7045818.06149  -5469993.22645  23131843.968    23131855.189
  21709750.678   -12679722.56149  -9858890.17047  21709750.542    21709759.827
  21499291.928   -14589781.22249 -11344170.34547  21499291.621    21499301.690
  23663947.409    -5412829.12549  -4211797.61845  23663947.251    23663959.168
  20271906.739   -24418366.01149 -18841082.17848  20271906.201    20271914.467
  21643253.357   -13345375.84449 -10382213.02247  21643252.988    21643261.488
  20948066.273   -18409195.28349 -14098118.09247  20948065.936    20948072.820
 03  4  5  0 18  0.0000000  0  8G17G31G 3G14G 9G15G23G18
  21996598.522   -17429119.03249 -13572204.72146  21996598.062    21996608.818
  23119536.714    -7110494.73449  -5520390.49145  23119536.378    23119547.573
  21706560.547   -12696486.72149  -9871953.12747  21706560.411    21706569.701
  21483893.689   -14670698.59949 -11407222.66547  21483893.370    21483903.391
  23657475.807    -5446835.00249  -4238295.57945  23657475.732    23657488.092
  20274305.205   -24405762.02949 -18831260.88248  20274304.661    20274312.935
  21652230.864   -13298198.93649 -10345451.78747  21652230.503    21652238.951
  20955844.553   -18368319.49949 -14066266.81947  20955844.251    20955851.225
 03  4  5  0 18 30.0000000  0  8G17G31G 3G14G 9G15G23G18
  22008272.332   -17367772.75449 -13524402.48746  22008271.861    22008282.700
  23107318.119    -7174703.39349  -5570423.06445  23107317.787    23107329.010
  21703478.155   -12712685.01849  -9884575.14247  21703478.025    21703487.253
  21468573.017   -14751208.44449 -11469957.42347  21468572.697    21468582.638
  23651096.755    -5480354.53949  -4264414.56345  23651096.697    23651109.501
  20276776.380   -24392776.01449 -18821141.90148  20276775.830    20276784.042
  21661230.123   -13250907.83349 -10308601.56447  21661229.743    21661238.104
  20963662.467   -18327235.67549 -14034253.43747  20963662.189    20963669.199
 03  4  5  0 19  0.0000000  0  8G17G31G 3G14G 9G15G23G18
  22020005.224   -17306116.10049 -13476358.39946  22020004.788    22020015.639
  23095188.550    -7238443.80549  -5620090.80045  23095188.264    23095199.444
  21700503.076   -12728319.03949  -9896757.46847  21700502.945    21700512.182
  21453329.952   -14831310.45649 -11532374.39347  21453329.629    21453339.464
  23644810.827    -5513387.18449  -4290154.17045  23644810.769    23644823.601
  20279319.989   -24379408.96649 -18810726.01048  20279319.439    20279327.669
  21670250.549   -13203505.26749 -10271664.49747  21670250.148    21670258.419
  20971519.527   -18285946.76149 -14002080.25347  20971519.229    20971526.171
 03  4  5  0 19 30.0000000  0  8G17G31G 3G14G 9G15G23G18
  22031797.344   -17244148.26349 -13428071.84146  22031796.905    22031807.794
  23083148.563    -7301713.19349  -5669391.49845  23083148.279    23083159.488
  21697635.615   -12743387.47949  -9908499.08347  21697635.490    21697644.722
  21438165.104   -14911001.70749 -11594471.29247  21438164.788    21438174.482
  23638617.944    -5545929.84749  -4315511.96045  23638617.926    23638630.991
  20281936.415   -24365659.34049 -18800012.01548  20281935.878    20281944.111
  21679292.138   -13155991.51749 -10234640.79147  21679291.719    21679299.933
  20979415.507   -18244453.16649 -13969747.57947  20979415.213    20979422.145
 03  4  5  0 20  0.0000000  0  8G17G31G 3G14G 9G15G23G18
  22043648.458   -17181870.22749 -13379543.56746  22043648.060    22043658.959
  23071198.595    -7364510.21649  -5718324.11345  23071198.222    23071209.431
  21694875.713   -12757890.64449  -9919800.21347  21694875.590    21694884.840
  21423078.693   -14990280.97149 -11656247.16647  21423078.392    21423087.895
  23632518.611    -5577981.60349  -4340487.22845  23632518.508    23632531.669
  20284625.715   -24351526.98149 -18788999.78448  20284625.176    20284633.346
  21688354.514   -13108368.32849 -10197531.81447  21688354.095    21688362.291
  20987350.074   -18202756.80349 -13937256.90447  20987349.780    20987356.693
 03  4  5  0 20 30.0000000  0  8G17G31G 3G14G 9G15G23G18
  22055558.768   -17119281.67949 -13330773.33746  22055558.384    22055569.326
  23059338.838    -7426832.48849  -5766886.81945  23059338.523    23059349.701
  21692223.522   -12771827.91649  -9930660.38647  21692223.386    21692232.650
  21408071.186   -15069145.63949 -11717699.97447  21408070.881    21408080.243
  23626513.292    -5609539.67649  -4365077.80345  23626513.265    23626526.221
  20287388.037   -24337010.98549 -18777688.62248  20287387.494    20287395.609
  21697437.616   -13060636.39349 -10160338.10247  21697437.207    21697445.335
  20995323.111   -18160858.34449 -13904608.74447  20995322.820    20995329.738
 03  4  5  0 21  0.0000000  0  8G17G31G 3G14G 9G15G23G18
  22067528.065   -17056383.54749 -13281761.86546  22067527.668    22067538.569
  23047569.733    -7488678.94749  -5815078.76045  23047569.490    23047580.521
  21689678.906   -12785199.77349  -9941079.98147  21689678.778    21689688.029
  21393142.823   -15147594.56649 -11778828.83247  21393142.506    21393151.736
  23620602.272    -5640602.79049  -4389282.70445  23620602.187    23620614.865
  20290223.296   -24322111.39949 -18766078.55848  20290222.721    20290230.871
  21706541.011   -13012797.72549 -10123061.22047  21706540.575    21706548.698
  21003334.167   -18118760.07749 -13871804.90247  21003333.884    21003340.767
 03  4  5  0 21 30.0000000  0  8G17G31G 3G14G 9G15G23G18
  22079556.457   -16993174.59249 -13232508.20046  22079556.071    22079566.854
  23035891.965    -7550045.78849  -5862896.98245  23035891.744    23035902.523
  21687242.219   -12798004.39149  -9951057.57247  21687242.095    21687251.281
  21378294.275   -15225624.01349 -11839630.81947  21378293.925    21378303.038
  23614786.028    -5671167.11149  -4413098.96045  23614786.034    23614798.576
  20293131.984   -24306825.70149 -18754167.62748  20293131.438    20293139.645
  21715664.845   -12964851.63149 -10085700.62447  21715664.398    21715672.510
  21011383.384   -18076461.37649 -13838844.87647  21011383.082    21011389.937
 03  4  5  0 22  0.0000000  0  8G17G31G 3G14G 9G15G23G18
  22091643.590   -16929656.99749 -13183014.05446  22091643.154    22091653.968
  23024305.378    -7610933.78049  -5910342.07745  23024305.155    23024315.673
  21684913.064   -12810244.04949  -9960594.93447  21684912.888    21684922.012
  21363525.388   -15303234.51349 -11900106.36347  21363525.030    21363534.001
  23609064.517    -5701232.91749  -4436526.78145  23609064.555    23609077.051
  20296113.839   -24291155.69449 -18741957.23248  20296113.293    20296121.534
  21724808.371   -12916801.61449 -10048259.05147  21724807.929    21724816.060
  21019470.067   -18033965.82149 -13805731.45547  21019469.754    21019476.621
 03  4  5  0 22 30.0000000  0  8G17G31G 3G14G 9G15G23G18
  22103789.966   -16865827.55649 -13133276.91246  22103789.465    22103800.341
  23012810.935    -7671337.61549  -5957409.90845  23012810.652    23012821.054
  21682692.069   -12821914.95649  -9969689.11247  21682691.905    21682701.114
  21348837.145   -15380421.03549 -11960251.52647  21348836.788    21348845.691
  23603438.922    -5730795.15449  -4459562.16745  23603438.820    23603451.442
  20299169.633   -24275097.30249 -18729444.20448  20299169.098    20299177.354
  21733972.169   -12868645.48249 -10010734.80147  21733971.754    21733979.899
  21027594.564   -17991271.24149 -13772462.95347  21027594.249    21027601.088
 03  4  5  0 23  0.0000000  0  8G17G31G 3G14G 9G15G23G18
  22115995.236   -16801688.31249 -13083298.36946  22115994.755    22116005.618
  23001408.653    -7731257.21349  -6004100.40546  23001408.336    23001418.627
  21680579.028   -12833018.85049  -9978341.46547  21680578.918    21680588.186
  21334229.656   -15457183.16149 -12020065.99847  21334229.301    21334238.200
  23597909.395    -5759853.47549  -4482204.89845  23597909.257    23597921.681
  20302299.139   -24258651.63549 -18716629.40648  20302298.591    20302306.880
  21743155.682   -12820385.92349  -9973129.95947  21743155.257    21743163.422
  21035756.319   -17948380.69549 -13739041.74747  21035756.029    21035762.817
 03  4  5  0 23 30.0000000  0  8G17G31G 3G14G 9G15G23G18
  22128259.360   -16737239.66849 -13033078.74046  22128258.895    22128269.795
  22990098.767    -7790690.97549  -6050412.34046  22990098.416    22990108.797
  21678573.904   -12843555.95549  -9986552.16447  21678573.776    21678583.072
  21319703.210   -15533519.42349 -12079548.63547  21319702.857    21319711.725
  23592476.188    -5788406.16049  -4504453.64945  23592476.069    23592488.177
  20305502.394   -24241818.35149 -18703512.56648  20305501.844    20305510.114
  21752358.562   -12772024.21749  -9935445.52847  21752358.156    21752366.386
  21043955.082   -17905295.52149 -13705468.87547  21043954.783    21043961.622
 03  4  5  0 24  0.0000000  0  8G17G31G 3G14G 9G15G23G18
  22140582.565   -16672480.78949 -12982617.35446  22140582.094    22140593.073
  22978881.968    -7849635.73649  -6096343.23046  22978881.542    22978891.991
  21676676.924   -12853524.73949  -9994320.01147  21676676.789    21676686.030
  21305258.432   -15609426.55849 -12138696.88147  21305258.057    21305266.897
  23587139.603    -5816450.06049  -4526305.94245  23587139.493    23587151.221
  20308779.877   -24224595.34249 -18690092.04048  20308779.344    20308787.559
  21761580.993   -12723560.19049  -9897681.34547  21761580.591    21761588.821
  21052190.914   -17862015.79449 -13671744.39847  21052190.622    21052197.504
 03  4  5  0 24 30.0000000  0  8G17G31G 3G14G 9G15G23G18
  22152964.918   -16607411.67149 -12931914.24846  22152964.441    22152975.323
  22967758.481    -7908089.68449  -6141891.67646  22967758.092    22967768.495
  21674888.122   -12862925.11049 -10001644.95747  21674887.947    21674897.178
  21290895.613   -15684902.50549 -12197509.14747  21290895.261    21290904.130
  23581900.139    -5843982.92949  -4547760.01545  23581900.100    23581911.682
  20312131.654   -24206981.99849 -18676367.36648  20312131.104    20312139.243
  21770822.684   -12674994.70149  -9859838.11847  21770822.263    21770830.501
  21060463.655   -17818542.38649 -13637869.00547  21060463.365    21060470.217
 03  4  5  0 25  0.0000000  0  8G17G31G 3G14G 9G15G23G18
  22165406.131   -16542033.49649 -12880970.30746  22165405.669    22165416.340
  22956728.602    -7966052.01249  -6187057.02846  22956728.217    22956738.593
  21673207.281   -12871758.03149 -10008527.73147  21673207.141    21673216.345
  21276614.849   -15759946.72449 -12255985.00447  21276614.547    21276623.507
  23576758.085    -5871003.96749  -4568815.26345  23576757.951    23576769.486
  20315557.550   -24188978.80849 -18662338.90848  20315557.013    20315565.087
  21780083.212   -12626329.95349  -9821917.54247  21780082.802    21780091.078
  21068772.784   -17774877.72149 -13603844.58447  21068772.492    21068779.304
 03  4  5  0 25 30.0000000  0  8G17G31G 3G14G 9G15G23G18
  22177906.160   -16476345.45249 -12829784.91646  22177905.686    22177916.385
  22945792.812    -8023519.66249  -6231836.91246  22945792.369    22945802.858
  21671634.762   -12880022.14449 -10014967.28247  21671634.610    21671643.786
  21262416.940   -15834555.99449 -12314121.94047  21262416.685    21262425.671
  23571713.932    -5897510.07549  -4589469.26745  23571713.892    23571725.143
  20319057.991   -24170583.94849 -18648005.24748  20319057.459    20319065.472
  21789362.701   -12577565.63449  -9783919.37847  21789362.309    21789370.605
  21077118.320   -17731021.62149 -13569670.99547  21077118.055    21077124.766
 03  4  5  0 26  0.0000000  0  8G17G31G 3G14G 9G15G23G18
  22190464.880   -16410348.37849 -12778358.70746  22190464.451    22190475.321
  22934951.286    -8080491.22049  -6276230.23046  22934950.895    22934961.495
  21670170.296   -12887717.97549 -10020964.01247  21670170.153    21670179.359
  21248302.300   -15908728.73049 -12371918.72547  21248302.027    21248310.943
  23566768.189    -5923499.77049  -4609720.87345  23566768.116    23566779.215
  20322633.086   -24151796.79149 -18633365.89948  20322632.524    20322640.536
  21798660.876   -12528703.14249  -9745844.70547  21798660.491    21798668.756
  21085500.064   -17686975.46449 -13535349.30547  21085499.782    21085506.454
 03  4  5  0 26 30.0000000  0  8G17G31G 3G14G 9G15G23G18
  22203082.627   -16344041.44849 -12726691.05546  22203082.226    22203093.155
  22924204.647    -8136964.45449  -6320235.23646  22924204.333    22924214.909
  21668814.082   -12894845.00349 -10026517.52047  21668813.942    21668823.081
  21234271.196   -15982462.49749 -12429373.45047  21234270.920    21234279.676
  23561921.036    -5948970.70449  -4629568.22445  23561920.962    23561932.279
  20326282.996   -24132616.51049 -18618420.22248  20326282.457    20326290.469
  21807977.651   -12479743.07949  -9707694.01247  21807977.281    21807985.486
  21093917.901   -17642739.89149 -13500880.01747  21093917.615    21093924.229
 03  4  5  0 27  0.0000000  0  8G17G31G 3G14G 9G15G23G18
  22215759.270   -16277425.91649 -12674782.94646  22215758.850    22215769.763
  22913553.075    -8192938.31349  -6363851.11146  22913552.758    22913563.312
  21667566.002   -12901403.75249 -10031628.22547  21667565.846    21667574.872
  21220323.792   -16055756.40549 -12486485.42747  21220323.476    21220332.105
  23557172.796    -5973921.74149  -4649010.45345  23557172.839    23557184.064
  20330007.739   -24113043.22549 -18603168.30148  20330007.179    20330015.140
  21817312.724   -12430687.02649  -9669468.52547  21817312.369    21817320.488
  21102371.405   -17598316.77349 -13466264.59147  21102371.102    21102377.596
 03  4  5  0 27 30.0000000  0  8G17G31G 3G14G 9G15G23G18
  22228494.676   -16210501.77649 -12622634.33946  22228494.223    22228505.132
  22902996.946    -8248410.92949  -6407076.41146  22902996.626    22903007.099
  21666426.046   -12907394.35449 -10036296.20947  21666425.866    21666434.884
  21206460.342   -16128608.58149 -12543253.19947  21206460.033    21206468.605
  23552524.008    -5998350.93949  -4668046.07545  23552523.947    23552535.096
  20333807.425   -24093075.91049 -18587609.34648  20333806.868    20333814.822
  21826665.981   -12381535.82649  -9631168.88447  21826665.584    21826673.651
  21110860.340   -17553707.32849 -13431503.96847  21110860.036    21110866.459
 03  4  5  0 28  0.0000000  0  8G17G31G 3G14G 9G15G23G18
  22241288.696   -16143269.46049 -12570245.61146  22241288.136    22241299.208
  22892536.556    -8303380.67249  -6449909.85946  22892536.187    22892546.557
  21665394.020   -12912817.07849 -10040521.70547  21665393.850    21665402.902
  21192681.306   -16201017.18749 -12599675.33647  21192681.003    21192689.554
  23547974.856    -6022256.37749  -4686673.57445  23547974.856    23547985.952
  20337682.169   -24072714.14149 -18571743.01948  20337681.626    20337689.535
  21836037.139   -12332290.58449  -9592795.96547  21836036.716    21836044.772
  21119384.471   -17508912.64049 -13396599.00647  21119384.175    21119390.589
 03  4  5  0 28 30.0000000  0  8G17G31G 3G14G 9G15G23G18
  22254141.213   -16075729.21149 -12517616.94846  22254140.689    22254151.904
  22882172.161    -8357845.87349  -6492350.15646  22882171.802    22882181.992
  21664470.128   -12917671.89549 -10044304.66747  21664469.980    21664479.073
  21178987.047   -16272980.31049 -12655750.33747  21178986.753    21178995.308
  23543525.826    -6045636.44649  -4704891.67845  23543525.767    23543536.921
  20341632.117   -24051957.59349 -18555569.06748  20341631.531    20341639.413
  21845425.890   -12282952.21449  -9554350.46947  21845425.487    21845433.588
  21127943.589   -17463933.78549 -13361550.53247  21127943.299    21127949.816
 03  4  5  0 29  0.0000000  0  8G17G31G 3G14G 9G15G23G18
  22267052.389   -16007880.43149 -12464747.86446  22267051.921    22267063.326
  22871904.250    -8411804.06049  -6534395.38646  22871903.851    22871914.029
  21663654.472   -12921958.04049 -10047644.51047  21663654.324    21663663.432
  21165378.043   -16344495.39249 -12711476.21547  21165377.724    21165386.286
  23539176.932    -6068488.56249  -4722698.38745  23539176.917    23539188.421
  20345657.340   -24030804.81949 -18539086.37148  20345656.745    20345664.616
  21854832.385   -12233520.91049  -9515832.56047  21854832.004    21854840.075
  21136537.699   -17418770.97349 -13326358.72147  21136537.440    21136544.046
 03  4  5  0 29 30.0000000  0  8G17G31G 3G14G 9G15G23G18
  22280022.265   -15939723.95849 -12411639.01546  22280021.822    22280033.298
  22861732.944    -8465253.93749  -6576044.52646  22861732.592    22861742.858
  21662946.863   -12925676.01349 -10050541.62547  21662946.744    21662955.929
  21151854.494   -16415561.28449 -12766852.07047  21151854.176    21151862.783
  23534928.915    -6090811.51149  -4740092.77645  23534928.958    23534940.444
  20349757.955   -24009255.63449 -18522294.78148  20349757.376    20349765.252
  21864256.433   -12183997.98049  -9477243.25447  21864256.030    21864264.008
  21145166.600   -17373425.81149 -13291024.80547  21145166.306    21145172.902
 03  4  5  0 30  0.0000000  0  8G17G31G 3G14G 9G15G23G18
  22293050.636   -15871260.58749 -12358291.02346  22293050.162    22293061.677
  22851658.524    -8518194.50549  -6617296.82346  22851658.206    22851668.485
  21662347.278   -12928826.50049 -10052996.54247  21662347.169    21662356.424
  21138416.622   -16486177.06249 -12821877.20447  21138416.319    21138424.915
  23530781.962    -6112604.06149  -4757073.83345  23530781.899    23530793.564
  20353933.999   -23987310.31049 -18505194.52548  20353933.425    20353941.275
  21873697.584   -12134385.01149  -9438583.78347  21873697.154    21873705.071
  21153829.818   -17327900.04149 -13255550.16647  21153829.549    21153836.134
 03  4  5  0 30 30.0000000  0  8G17G31G 3G14G 9G15G23G18
  22306137.090   -15802491.64349 -12304704.93446  22306136.593    22306148.177
  22841681.165    -8570625.05849  -6658151.71646  22841680.874    22841691.102
  21661855.517   -12931410.67949 -10055010.17747  21661855.409    21661864.641
  21125064.657   -16556341.43849 -12876550.59047  21125064.342    21125072.847
  23526735.980    -6133865.54249  -4773641.07445  23526735.890    23526747.610
  20358185.435   -23964968.72249 -18487785.48848  20358184.882    20358192.665
  21883155.444   -12084683.69149  -9399855.46947  21883155.037    21883162.941
  21162527.082   -17282195.68649 -13219936.36547  21162526.798    21162533.320
 03  4  5  0 31  0.0000000  0  8G17G31G 3G14G 9G15G23G18
  22319281.773   -15733416.61649 -12250880.34846  22319281.213    22319292.822
  22831801.407    -8622542.98949  -6698607.14646  22831801.103    22831811.252
  21661471.700   -12933428.00849 -10056582.11247  21661471.575    21661480.709
  21111799.088   -16626052.16149 -12930870.48347  21111798.786    21111807.149
  23522791.489    -6154593.63649  -4789792.68845  23522791.401    23522803.043
  20362512.581   -23942229.62549 -18470066.70448  20362511.996    20362519.773
  21892630.077   -12034894.09449  -9361058.36847  21892629.658    21892637.604
  21171258.315   -17236312.86749 -13184183.50747  21171258.023    21171264.478
 03  4  5  0 31 30.0000000  0  8G17G31G 3G14G 9G15G23G18
  22332485.195   -15664032.68249 -12196815.05146  22332484.672    22332496.244
  22822020.023    -8673943.69849  -6738659.55446  22822019.755    22822029.820
  21661196.293   -12934875.52949 -10057710.04347  21661196.146    21661205.260
  21098620.803   -16695304.40049 -12984833.11947  21098620.459    21098628.739
  23518949.563    -6174783.39949  -4805524.85245  23518949.490    23518960.955
  20366916.005   -23919089.36549 -18452035.32648  20366915.418    20366923.245
  21902121.886   -11985014.26849  -9322190.95047  21902121.477    21902129.426
  21180023.811   -17190249.70149 -13148290.10647  21180023.535    21180029.950
 03  4  5  0 32  0.0000000  0  8G17G31G 3G14G 9G15G23G18
  22345746.727   -15594343.20149 -12142511.68146  22345746.271    22345757.747
  22812336.841    -8724828.53749  -6778309.96946  22812336.528    22812346.616
  21661028.646   -12935756.57649 -10058396.56647  21661028.472    21661037.621
  21085529.462   -16764099.37949 -13038439.44547  21085529.112    21085537.324
  23515209.869    -6194435.96049  -4820838.37845  23515209.779    23515220.979
  20371395.236   -23895550.42549 -18433693.28448  20371394.677    20371402.566
  21911630.134   -11935047.89449  -9283256.09647  21911629.705    21911637.731
  21188822.880   -17144010.18449 -13112259.29647  21188822.603    21188828.980
 03  4  5  0 32 30.0000000  0  8G17G31G 3G14G 9G15G23G18
  22359066.931   -15524345.65249 -12087968.26346  22359066.490    22359077.878
  22802752.673    -8775193.28049  -6817555.12246  22802752.353    22802762.395
  21660969.142   -12936068.80949 -10058639.85647  21660968.973    21660978.200
  21072525.917   -16832432.79449 -13091686.11147  21072525.585    21072533.748
  23511573.098    -6213546.93549  -4835729.92345  23511573.017    23511584.171
  20375950.996   -23871609.55549 -18415038.04648  20375950.433    20375958.356
  21921155.231   -11884993.02449  -9244252.28347  21921154.800    21921162.878
  21197655.887   -17097592.39849 -13076089.57847  21197655.588    21197661.925
 03  4  5  0 33  0.0000000  0  8G17G31G 3G14G 9G15G23G18
  22372445.005   -15454043.68249 -12033187.61446  22372444.599    22372456.000
  22793267.211    -8825039.31249  -6856396.08246  22793266.880    22793276.950
  21661017.336   -12935815.10649 -10058442.15747  21661017.180    21661026.449
  21059609.915   -16900305.91049 -13144574.09947  21059609.596    21059617.770
  23508038.987    -6232118.20249  -4850200.87845  23508038.903    23508050.081
  20380582.748   -23847269.27449 -18396071.58148  20380582.187    20380590.147
  21930696.409   -11834853.61849  -9205182.59647  21930696.005    21930704.096
  21206521.979   -17051000.53349 -13039784.22947  21206521.691    21206528.047
 03  4  5  0 33 30.0000000  0  8G17G31G 3G14G 9G15G23G18
  22385881.461   -15383435.02549 -11978167.97946  22385881.067    22385892.546
  22783881.112    -8874362.56849  -6894829.69046  22783880.838    22783890.986
  21661173.640   -12934993.43949 -10057801.89847  21661173.472    21661182.777
  21046782.312   -16967714.53949 -13197100.15147  21046782.046    21046790.223
  23504608.427    -6250145.50749  -4864247.99145  23504608.249    23504619.344
  20385291.147   -23822526.46849 -18376791.46048  20385290.597    20385298.495
  21940253.968   -11784628.04949  -9166045.76547  21940253.549    21940261.639
  21215421.531   -17004233.04049 -13003342.01647  21215421.220    21215427.663
 03  4  5  0 34  0.0000000  0  8G17G31G 3G14G 9G15G23G18
  22399375.935   -15312521.38149 -11922910.71746  22399375.545    22399387.133
  22774594.591    -8923162.92349  -6932855.84746  22774594.316    22774604.509
  21661437.656   -12933605.65549 -10056720.50547  21661437.489    21661446.867
  21034043.179   -17034658.58449 -13249264.19247  21034042.925    21034051.070
  23501281.145    -6267628.71749  -4877871.12445  23501281.024    23501292.268
  20390076.005   -23797382.08649 -18357198.42548  20390075.435    20390083.312
  21949827.503   -11734318.61949  -9126843.60047  21949827.101    21949835.102
  21224353.974   -16957292.62849 -12966765.07847  21224353.686    21224360.205
 03  4  5  0 34 30.0000000  0  8G17G31G 3G14G 9G15G23G18
  22412928.428   -15241302.39249 -11867415.51846  22412928.053    22412939.703
  22765408.143    -8971438.25249  -6970472.90146  22765407.806    22765417.979
  21661809.423   -12931651.43649 -10055197.73947  21661809.301    21661818.696
  21021392.906   -17101135.69349 -13301064.38347  21021392.633    21021400.790
  23498057.833    -6284565.64849  -4891068.60945  23498057.794    23498069.199
  20394937.430   -23771835.04949 -18337291.62948  20394936.869    20394944.771
  21959416.976   -11683925.50849  -9087576.22547  21959416.573    21959424.519
  21233319.332   -16910179.40549 -12930053.47147  21233319.039    21233325.599
 03  4  5  0 35  0.0000000  0  8G17G31G 3G14G 9G15G23G18
  22426538.826   -15169779.03949 -11811683.15646  22426538.500    22426550.171
  22756321.706    -9019187.47349  -7007680.01146  22756321.337    22756331.592
  21662289.024   -12929131.46849 -10053234.13047  21662288.879    21662298.195
  21008831.660   -17167144.72149 -13352499.84647  21008831.399    21008839.579
  23494938.869    -6300954.98849  -4903839.41845  23494938.823    23494950.316
  20399875.528   -23745885.14149 -18317070.91248  20399874.970    20399882.846
  21969022.149   -11633449.79449  -9048244.49247  21969021.763    21969029.694
  21242317.243   -16862894.92849 -12893208.41947  21242316.970    21242323.513
 03  4  5  0 35 30.0000000  0  8G17G31G 3G14G 9G15G23G18
  22440207.113   -15097952.27849 -11755714.37146  22440206.738    22440218.380
  22747335.547    -9066409.53849  -7044476.34146  22747335.208    22747345.479
  21662876.051   -12926046.74449 -10050830.44547  21662875.873    21662885.126
  20996359.785   -17232684.62349 -13403569.76147  20996359.493    20996367.659
  23491924.414    -6316795.91249  -4916182.88345  23491924.379    23491935.822
  20404890.293   -23719532.39149 -18296536.28548  20404889.739    20404897.590
  21978642.730   -11582892.84249  -9008849.46447  21978642.353    21978650.389
  21251347.553   -16815440.64449 -12856231.05947  21251347.258    21251353.749
 03  4  5  0 36  0.0000000  0  8G17G31G 3G14G 9G15G23G18
  22453933.283   -15025820.97449 -11699508.26646  22453932.955    22453944.549
  22738450.153    -9113101.97049  -7080859.97246  22738449.789    22738460.087
  21663570.664   -12922396.74349 -10047986.28247  21663570.472    21663579.644
  20983977.640   -17297752.51649 -13454271.86847  20983977.355    20983985.481
  23489014.830    -6332085.80849  -4928096.94945  23489014.774    23489026.041
  20409981.991   -23692775.28649 -18275686.58348  20409981.434    20409989.282
  21988278.878   -11532254.34749  -8969390.90347  21988278.512    21988286.614
  21260410.311   -16767816.24149 -12819121.13847  21260409.994    21260416.420
 03  4  5  0 36 30.0000000  0  8G17G31G 3G14G 9G15G23G18
  22467717.182   -14953387.15749 -11643066.43446  22467716.863    22467728.356
  22729665.589    -9159264.73849  -7116830.88546  22729665.250    22729675.497
  21664372.451   -12918183.13349 -10044702.93947  21664372.287    21664381.413
  20971685.355   -17362348.59649 -13504606.32847  20971685.065    20971693.118
  23486210.158    -6346824.73449  -4939581.71745  23486210.085    23486221.082
  20415150.481   -23665614.66149 -18254522.45948  20415149.926    20415157.791
  21997930.124   -11481536.46749  -8929870.47947  21997929.770    21997937.932
  21269504.759   -16720024.48249 -12781880.81847  21269504.459    21269510.937
 03  4  5  0 37  0.0000000  0  8G17G31G 3G14G 9G15G23G18
  22481558.771   -14880650.76549 -11586388.83546  22481558.400    22481569.830
  22720982.320    -9204896.09449  -7152387.70246  22720981.991    22720991.993
  21665281.427   -12913406.23849 -10040980.66447  21665281.268    21665290.417
  20959483.184   -17426470.88449 -13554571.59647  20959482.902    20959490.886
  23483510.644    -6361010.84149  -4950635.69245  23483510.634    23483521.439
  20420395.896   -23638049.78249 -18233043.32248  20420395.354    20420403.220
  22007596.423   -11430739.71049  -8890288.59547  22007596.068    22007604.246
  21278631.056   -16672065.69449 -12744510.33647  21278630.740    21278637.237
 03  4  5  0 37 30.0000000  0  8G17G31G 3G14G 9G15G23G18
  22495457.626   -14807612.38549 -11529475.91746  22495457.209    22495468.806
  22712400.455    -9249994.66849  -7187529.37046  22712400.093    22712409.936
  21666297.653   -12908066.11049 -10036819.50347  21666297.474    21666306.608
  20947371.420   -17490118.03349 -13604166.62047  20947371.127    20947379.092
  23480916.565    -6374642.77649  -4961257.85645  23480916.490    23480927.425
  20425718.333   -23610080.29249 -18211248.90348  20425717.790    20425725.598
  22017277.621   -11379864.85549  -8850645.85347  22017277.246    22017285.356
  21287788.890   -16623941.08149 -12707010.65247  21287788.551    21287795.086
 03  4  5  0 38  0.0000000  0  8G17G31G 3G14G 9G15G23G18
  22509414.240   -14734270.72249 -11472326.68646  22509413.786    22509425.388
  22703920.535    -9294557.41549  -7222253.52146  22703920.193    22703929.806
  21667421.104   -12902161.96449 -10032218.86047  21667420.947    21667430.067
  20935350.684   -17553286.76049 -13653388.86047  20935350.399    20935358.372
  23478428.121    -6387717.84049  -4971446.11145  23478428.203    23478439.153
  20431118.141   -23581704.31249 -18189137.75548  20431117.591    20431125.293
  22026973.809   -11328911.16749  -8810941.69247  22026973.414    22026981.435
  21296978.355   -16575649.92849 -12669381.20047  21296978.039    21296984.641
 03  4  5  0 38 30.0000000  0  8G17G31G 3G14G 9G15G23G18
  22523428.261   -14660627.53749 -11414942.50146  22523427.736    22523439.315
  22695542.554    -9338583.96949  -7256559.86446  22695542.233    22695551.691
  21668651.634   -12895695.39749 -10027179.94347  21668651.505    21668660.663
  20923421.117   -17615976.53749 -13702237.88847  20923420.848    20923428.767
  23476045.782    -6400235.55949  -4981200.05045  23476045.913    23476057.081
  20436595.223   -23552922.16049 -18166710.10148  20436594.650    20436602.356
  22036684.752   -11277880.25849  -8771177.36447  22036684.331    22036692.212
  21306199.121   -16527194.21249 -12631623.51247  21306198.825    21306205.460
 03  4  5  0 39  0.0000000  0  8G17G31G 3G14G 9G15G23G18
  22537499.561   -14586682.57249 -11357323.14346  22537499.034    22537510.690
  22687266.945    -9382072.65949  -7290447.07646  22687266.642    22687275.971
  21669989.227   -12888666.60449 -10021702.94247  21669989.059    21669998.222
  20911583.033   -17678185.65249 -13750712.37447  20911582.723    20911590.549
  23473769.872    -6412194.19149  -4990518.33645  23473770.028    23473781.349
  20442149.672   -23523733.19449 -18143965.45748  20442149.124    20442156.861
  22046410.252   -11226772.69149  -8731353.29447  22046409.788    22046417.530
  21315451.161   -16478574.40749 -12593737.96747  21315450.841    21315457.495
 03  4  5  0 39 30.0000000  0  8G17G31G 3G14G 9G15G23G18
  22551628.071   -14512436.63749 -11299469.27946  22551627.593    22551639.315
  22679093.911    -9425022.05749  -7323914.06346  22679093.600    22679102.896
  21671433.580   -12881075.93349 -10015788.10747  21671433.469    21671442.639
  20899836.667   -17739912.43349 -13798811.02347  20899836.375    20899844.090
  23471601.022    -6423592.25549  -4999399.79845  23471601.129    23471612.234
  20447781.685   -23494136.87249 -18120903.39348  20447781.126    20447788.808
  22056150.176   -11175589.04749  -8691469.94747  22056149.725    22056157.384
  21324734.223   -16429791.31549 -12555725.18547  21324733.934    21324740.619
 03  4  5  0 40  0.0000000  0  8G17G31G 3G14G 9G15G23G18
  22565813.772   -14437891.51549 -11241382.29346  22565813.252    22565824.962
  22671023.358    -9467432.55749  -7356961.14246  22671023.057    22671032.350
  21672984.549   -12872925.89249 -10009437.39847  21672984.425    21672993.517
  20888182.047   -17801157.21649 -13846534.08047  20888181.763    20888189.404
  23469538.611    -6434430.14549  -5007844.78945  23469538.587    23469549.501
  20453490.956   -23464134.41149 -18097524.85247  20453490.383    20453498.071
  22065903.985   -11124331.75249  -8651529.20847  22065903.563    22065911.210
  21334047.858   -16380847.78049 -12517587.37747  21334047.556    21334054.305
 03  4  5  0 40 30.0000000  0  8G17G31G 3G14G 9G15G23G18
  22580056.423   -14363046.63549 -11183061.72646  22580055.912    22580067.524
  22663055.864    -9509301.55049  -7389586.24746  22663055.543    22663064.838
  21674642.038   -12864215.78749 -10002650.27347  21674641.888    21674650.978
  20876619.708   -17861917.16649 -13893879.35147  20876619.407    20876627.005
  23467583.313    -6444705.33249  -5015851.30145  23467583.420    23467593.939
  20459277.802   -23433724.15249 -18073828.55948  20459277.237    20459284.985
  22075671.976   -11073000.16749  -8611530.58147  22075671.571    22075679.215
  21343392.134   -16331743.39549 -12479324.23447  21343391.827    21343398.540
 03  4  5  0 41  0.0000000  0  8G17G31G 3G14G 9G15G23G18
  22594356.089   -14287901.90949 -11124507.51246  22594355.583    22594367.162
  22655191.711    -9550627.12749  -7421787.90646  22655191.338    22655200.749
  21676406.011   -12854945.57449  -9995426.70047  21676405.886    21676414.970
  20865149.955   -17922190.38249 -13940845.35047  20865149.658    20865157.233
  23465735.745    -6454416.13049  -5023418.02045  23465735.769    23465745.716
  20465142.402   -23402905.21849 -18049813.81347  20465141.847    20465149.669
  22085454.146   -11021594.31649  -8571474.09547  22085453.758    22085461.377
  21352767.004   -16282478.56649 -12440936.05547  21352766.687    21352773.310
 03  4  5  0 41 30.0000000  0  8G17G31G 3G14G 9G15G23G18
  22608712.469   -14212458.44749 -11065720.51346  22608712.004    22608723.674
  22647430.987    -9591408.97749  -7453565.88446  22647430.660    22647440.196
  21678276.393   -12845116.60149  -9987767.73047  21678276.262    21678285.349
  20853772.908   -17981976.37849 -13987431.69947  20853772.624    20853780.247
  23463995.237    -6463562.03449  -5030544.58945  23463995.245    23464005.226
  20471084.729   -23371677.84949 -18025480.79847  20471084.193    20471092.058
  22095250.296   -10970115.68249  -8531360.89147  22095249.887    22095257.469
  21362172.117   -16233054.61549 -12402423.89647  21362171.806    21362178.346
 03  4  5  0 42  0.0000000  0  8G17G31G 3G14G 9G15G23G18
  22623125.849   -14136715.47849 -11006700.14046  22623125.426    22623137.160
  22639774.190    -9631644.69949  -7484918.30246  22639773.831    22639783.571
  21680253.104   -12834728.71949  -9979673.24847  21680252.973    21680262.129
  20842489.145   -18041272.68849 -14033636.47847  20842488.855    20842496.451
  23462362.763    -6472140.87749  -5037229.27145  23462362.744    23462372.673
  20477105.101   -23340040.66249 -18000828.44347  20477104.565    20477112.454
  22105060.314   -10918563.91949  -8491190.70547  22105059.905    22105067.485
  21371607.540   -16183471.48349 -12363787.68947  21371607.234    21371613.676
 03  4  5  0 42 30.0000000  0  8G17G31G 3G14G 9G15G23G18
  22637596.109   -14060674.11549 -10947447.26446  22637595.669    22637607.455
  22632221.493    -9671333.58249  -7515844.60246  22632221.159    22632230.903
  21682335.928   -12823783.22049  -9971144.26847  21682335.811    21682344.958
  20831298.708   -18100078.52249 -14079459.06847  20831298.412    20831305.903
  23460838.030    -6480152.06149  -5043471.61145  23460837.941    23460847.956
  20483203.416   -23307993.88149 -17975856.92547  20483202.874    20483210.741
  22114884.015   -10866940.28249  -8450964.50847  22114883.634    22114891.171
  21381072.847   -16133730.95049 -12325028.83047  21381072.532    21381078.968
 03  4  5  0 43  0.0000000  0  8G17G31G 3G14G 9G15G23G18
  22652123.018   -13984335.11949 -10887962.45646  22652122.621    22652134.496
  22624773.108    -9710474.75649  -7546344.12846  22624772.806    22624782.430
  21684524.804   -12812280.83549  -9962181.35547  21684524.676    21684533.761
  20820201.830   -18158392.51049 -14124898.40247  20820201.535    20820208.959
  23459421.371    -6487594.52549  -5049270.80045  23459421.311    23459431.561
  20489379.773   -23275537.19449 -17950565.99747  20489379.228    20489387.076
  22124721.129   -10815245.83449  -8410683.13047  22124720.764    22124728.333
  21390567.941   -16083833.89349 -12286148.00547  21390567.638    21390574.093
 03  4  5  0 43 30.0000000  0  8G17G31G 3G14G 9G15G23G18
  22666706.560   -13907698.47949 -10828245.73146  22666706.176    22666718.097
  22617429.317    -9749066.38749  -7576415.42546  22617429.000    22617438.619
  21686819.574   -12800221.98449  -9952784.82847  21686819.447    21686828.519
  20809198.883   -18216212.90649 -14169953.12147  20809198.582    20809205.971
  23458113.532    -6494466.55449  -5054625.47345  23458113.496    23458124.086
  20495634.266   -23242669.86149 -17924955.07947  20495633.688    20495641.528
  22134571.764   -10763480.40949  -8370346.44647  22134571.435    22134579.024
  21400092.809   -16033780.54449 -12247145.38847  21400092.484    21400098.962
 03  4  5  0 44  0.0000000  0  8G17G31G 3G14G 9G15G23G18
  22681346.314   -13830766.79949 -10768299.09246  22681345.861    22681357.743
  22610189.796    -9787109.39749  -7606059.21846  22610189.512    22610199.254
  21689219.678   -12787609.43749  -9942956.85247  21689219.565    21689228.580
  20798289.673   -18273540.51149 -14214623.84747  20798289.374    20798296.723
  23456914.057    -6500769.35949  -5059536.62245  23456914.027    23456924.666
  20501966.444   -23209393.71249 -17899025.59847  20501965.884    20501973.769
  22144435.383   -10711646.89149  -8329956.70147  22144435.046    22144442.650
  21409646.806   -15983573.92549 -12208023.34447  21409646.490    21409652.994
 03  4  5  0 44 30.0000000  0  8G17G31G 3G14G 9G15G23G18
  22696042.348   -13753538.56949 -10708121.37446  22696041.907    22696053.730
  22603055.504    -9824600.28449  -7635272.79946  22603055.191    22603064.922
  21691725.598   -12774441.30149  -9932695.96047  21691725.451    21691734.321
  20787475.039   -18330371.55949 -14258907.65047  20787474.731    20787481.995
  23455823.640    -6506499.33049  -5064001.40645  23455823.551    23455834.374
  20508376.936   -23175706.08149 -17872775.48247  20508376.386    20508384.300
  22154312.381   -10659743.30849  -8289512.36247  22154312.019    22154319.712
  21419230.357   -15933212.20149 -12168780.42947  21419230.016    21419236.547
 03  4  5  0 45  0.0000000  0  8G17G31G 3G14G 9G15G23G18
  22710794.369   -13676016.40549 -10647714.60846  22710794.004    22710805.761
  22596026.020    -9861540.28449  -7664057.10946  22596025.667    22596035.400
  21694336.497   -12760720.84349  -9922004.68047  21694336.363    21694345.176
  20776754.714   -18386707.14849 -14302805.37047  20776754.392    20776761.572
  23454842.101    -6511657.80249  -5068020.85845  23454841.951    23454852.618
  20514865.454   -23141608.78849 -17846206.13847  20514864.905    20514872.746
  22164202.070   -10607772.63149  -8249015.73447  22164201.713    22164209.531
  21428842.709   -15882698.83049 -12129419.34747  21428842.361    21428848.915
 03  4  5  0 45 30.0000000  0  8G17G31G 3G14G 9G15G23G18
  22725602.601   -13598199.02149 -10587077.80046  22725602.252    22725613.963
  22589101.785    -9897926.77649  -7692410.11846  22589101.461    22589111.162
  21697052.662   -12746447.59049  -9910882.65747  21697052.533    21697061.260
  20766129.099   -18442544.52649 -14346314.87747  20766128.798    20766135.931
  23453969.460    -6516242.47649  -5071593.21745  23453969.355    23453979.963
  20521432.294   -23107100.15149 -17819316.27147  20521431.718    20521439.460
  22174104.661   -10555734.03349  -8208466.17747  22174104.267    22174112.208
  21438484.046   -15832032.94649 -12089939.42147  21438483.707    21438490.276
 03  4  5  0 46  0.0000000  0  8G17G31G 3G14G 9G15G23G18
  22740467.045   -13520086.81849 -10526211.26146  22740466.653    22740478.460
  22582283.197    -9933757.95349  -7720330.42346  22582282.901    22582292.617
  21699873.936   -12731621.74049  -9899330.04147  21699873.780    21699882.543
  20755598.666   -18497881.80149 -14389434.69748  20755598.368    20755605.511
  23453206.306    -6520251.58549  -5074717.08145  23453206.343    23453216.768
  20528077.519   -23072179.21649 -17792105.12447  20528076.928    20528084.737
  22184020.294   -10503627.39049  -8167863.59247  22184019.892    22184027.827
  21448154.405   -15781214.65449 -12050340.72647  21448154.062    21448160.661
 03  4  5  0 46 30.0000000  0  8G17G31G 3G14G 9G15G23G18
  22755387.108   -13441681.22049 -10465116.08246  22755386.743    22755398.690
  22575570.321    -9969033.92949  -7747818.11146  22575570.068    22575579.747
  21702799.971   -12716245.07249  -9887348.21547  21702799.825    21702808.686
  20745163.396   -18552719.01149 -14432164.86048  20745163.083    20745170.200
  23452552.900    -6523685.27149  -5077392.57245  23452552.836    23452563.214
  20534800.970   -23036846.71249 -17764573.27547  20534800.414    20534808.265
  22193948.490   -10451454.48549  -8127209.37147  22193948.060    22193956.004
  21457853.428   -15730245.99049 -12010624.86347  21457853.097    21457859.673
 03  4  5  0 47  0.0000000  0  8G17G31G 3G14G 9G15G23G18
  22770362.893   -13362983.24549 -10403793.08546  22770362.536    22770374.676
  22568963.435   -10003753.78749  -7774872.46046  22568963.172    22568972.678
  21705830.606   -12700318.72849  -9874938.06947  21705830.447    21705839.364
  20734823.592   -18607054.78049 -14474504.29047  20734823.261    20734830.307
  23452009.086    -6526542.49449  -5079618.87145  23452008.912    23452019.400
  20541602.868   -23001102.43549 -17736720.56647  20541602.305    20541610.121
  22203889.147   -10399215.95249  -8086504.01147  22203888.718    22203896.742
  21467580.906   -15679128.14949 -11970792.75047  21467580.553    21467587.118
 03  4  5  0 47 30.0000000  0  8G17G31G 3G14G 9G15G23G18
  22785394.485   -13283992.19249 -10342241.71546  22785394.080    22785406.303
  22562462.771   -10037915.75549  -7801492.08546  22562462.462    22562471.787
  21708965.756   -12683842.92049  -9862099.77547  21708965.626    21708974.637
  20724579.484   -18660887.31949 -14516451.58747  20724579.153    20724586.207
  23451575.107    -6528821.81749  -5081394.87345  23451575.042    23451585.438
  20548483.202   -22964945.68649 -17708546.45547  20548482.651    20548490.465
  22213842.265   -10346911.50849  -8045747.28247  22213841.857    22213850.035
  21477336.752   -15627861.18449 -11930844.43247  21477336.379    21477342.935
 03  4  5  0 48  0.0000000  0  8G17G31G 3G14G 9G15G23G18
  22800481.535   -13204709.24849 -10280462.89746  22800481.126    22800493.423
  22556068.170   -10071519.19449  -7827676.49646  22556067.909    22556077.131
  21712205.334   -12666819.10649  -9848834.46947  21712205.183    21712214.148
  20714431.315   -18714215.66849 -14558006.02048  20714430.998    20714438.069
  23451251.496    -6530522.52449  -5082719.97245  23451251.417    23451261.630
  20555442.111   -22928376.50649 -17680050.97247  20555441.504    20555449.377
  22223807.858   -10294542.11549  -8004939.95147  22223807.418    22223815.654
  21487120.749   -15576445.84149 -11890780.48947  21487120.376    21487126.956
 03  4  5  0 48 30.0000000  0  8G17G31G 3G14G 9G15G23G18
  22815623.810   -13125135.55449 -10218457.53946  22815623.482    22815635.918
  22549780.051   -10104563.55949  -7853425.26546  22549779.792    22549788.950
  21715548.909   -12649248.36849  -9835142.97747  21715548.758    21715557.720
  20704379.161   -18767039.35349 -14599167.20047  20704378.827    20704385.958
  23451037.848    -6531644.18149  -5083593.89345  23451037.655    23451048.085
  20562479.424   -22891394.84049 -17651234.06447  20562478.832    20562486.774
  22233785.620   -10242108.91549  -7964082.89047  22233785.161    22233793.348
  21496932.659   -15524883.54149 -11850602.02847  21496932.323    21496938.902
 03  4  5  0 49  0.0000000  0  8G17G31G 3G14G 9G15G23G18
  22830821.531   -13045271.23549 -10156225.71946  22830821.201    22830833.831
  22543598.495   -10137047.42249  -7878737.27746  22543598.242    22543607.449
  21718996.488   -12631131.30949  -9821025.78047  21718996.312    21719005.276
  20694423.272   -18819356.64849 -14639933.79547  20694422.960    20694430.163
  23450934.522    -6532185.59649  -5084015.69945  23450934.427    23450944.972
  20569595.334   -22854000.08449 -17622095.27947  20569594.766    20569602.742
  22243775.382   -10189611.93149  -7923176.12847  22243774.935    22243783.156
  21506772.514   -15473174.54849 -11810309.26447  21506772.172    21506778.744
 03  4  5  0 49 30.0000000  0  8G17G31G 3G14G 9G15G23G18
  22846074.628   -12965116.11449 -10093767.28145  22846074.192    22846086.912
  22537523.925   -10168969.34649  -7903611.41746  22537523.687    22537532.902
  21722547.844   -12612468.42949  -9806483.26647  21722547.693    21722556.730
  20684564.100   -18871166.03949 -14680304.61848  20684563.835    20684571.055
  23450942.034    -6532145.27749  -5083984.19945  23450941.911    23450952.483
  20576790.070   -22816191.56549 -17592634.08147  20576789.475    20576797.482
  22253777.338   -10137051.08749  -7882219.59947  22253776.931    22253785.151
  21516640.270   -15421318.95949 -11769902.26847  21516639.920    21516646.528
 03  4  5  0 50  0.0000000  0  8G17G31G 3G14G 9G15G23G18
  22861382.515   -12884672.51249 -10031084.07145  22861382.174    22861394.916
  22531556.277   -10200330.17149  -7928048.33646  22531555.989    22531565.071
  21726202.512   -12593262.72449  -9791517.77647  21726202.413    21726211.438
  20674801.595   -18922468.03449 -14720280.06848  20674801.293    20674808.521
  23451060.114    -6531524.37349  -5083500.28245  23451060.029    23451070.690
  20584063.303   -22777970.73149 -17562851.60647  20584062.730    20584070.665
  22263791.076   -10084428.66849  -7841215.09147  22263790.619    22263798.837
  21526535.394   -15369319.71249 -11729383.33547  21526535.050    21526541.590
 03  4  5  0 50 30.0000000  0  8G17G31G 3G14G 9G15G23G18
  22876745.486   -12803940.71249  -9968176.28445  22876745.039    22876757.791
  22525695.582   -10231128.40949  -7952046.87446  22525695.276    22525704.297
  21729960.544   -12573514.60349  -9776129.62347  21729960.421    21729969.353
  20665135.880   -18973260.95249 -14759858.83148  20665135.585    20665142.857
  23451288.771    -6530321.42549  -5082562.82945  23451288.831    23451299.712
  20591415.117   -22739336.94649 -17532747.35147  20591414.530    20591422.382
  22273816.511   -10031744.57249  -7800162.51447  22273816.078    22273824.297
  21536457.788   -15317176.68449 -11688752.36447  21536457.451    21536463.989
 03  4  5  0 51  0.0000000  0  8G17G31G 3G14G 9G15G23G18
  22892162.953   -12722921.80149  -9905044.77545  22892162.516    22892175.226
  22519941.973   -10261363.43949  -7975606.54546  22519941.689    22519950.634
  21733821.465   -12553225.50649  -9760319.92047  21733821.328    21733830.208
  20655567.229   -19023544.20649 -14799040.45648  20655566.949    20655574.162
  23451628.474    -6528536.20849  -5081171.62945  23451628.515    23451639.429
  20598845.485   -22700290.19349 -17502321.30747  20598844.896    20598852.738
  22283853.526    -9978999.64149  -7759062.53947  22283853.099    22283861.268
  21546407.283   -15264890.91849 -11648010.17247  21546406.993    21546413.560
 03  4  5  0 51 30.0000000  0  8G17G31G 3G14G 9G15G23G18
  22907635.341   -12641614.70449  -9841688.70945  22907634.884    22907647.440
  22514295.974   -10291033.09849  -7998725.66946  22514295.658    22514304.588
  21737785.404   -12532394.76849  -9744088.16847  21737785.264    21737794.131
  20646096.068   -19073315.10949 -14837822.85448  20646095.776    20646102.949
  23452079.375    -6526166.46049  -5079324.95645  23452079.294    23452090.254
  20606354.728   -22660828.73249 -17471572.12347  20606354.168    20606362.020
  22293902.282    -9926192.93249  -7717914.42347  22293901.843    22293910.029
  21556384.241   -15212461.75349 -11607156.24947  21556383.926    21556390.509
 03  4  5  0 52  0.0000000  0  8G17G31G 3G14G 9G15G23G18
  22923162.211   -12560021.75749  -9778109.89445  22923161.735    22923174.013
  22508757.505   -10320137.69849  -8021404.49146  22508757.162    22508766.037
  21741852.032   -12511024.90149  -9727436.32047  21741851.889    21741860.651
  20636722.291   -19122574.01449 -14876206.29048  20636722.005    20636729.168
  23452641.338    -6523212.60549  -5077023.14645  23452641.285    23452652.223
  20613942.725   -22620953.76249 -17440500.71647  20613942.165    20613949.963
  22303962.523    -9873326.16749  -7676719.51347  22303962.068    22303970.195
  21566388.175   -15159891.09749 -11566192.07647  21566387.820    21566394.413
 03  4  5  0 52 30.0000000  0  8G17G31G 3G14G 9G15G23G18
  22938743.207   -12478144.19249  -9714309.30545  22938742.718    22938754.806
  22503326.470   -10348677.30749  -8043643.05546  22503326.152    22503335.065
  21746020.845   -12489117.99149  -9710365.99047  21746020.693    21746029.408
  20627446.047   -19171320.51249 -14914190.43948  20627445.757    20627452.874
  23453314.264    -6519674.85149  -5074266.35245  23453314.358    23453325.184
  20621609.234   -22580665.97949 -17409107.63747  20621608.657    20621616.417
  22314033.759    -9820400.70949  -7635478.86946  22314033.326    22314041.510
  21576418.551   -15107180.58149 -11525118.91747  21576418.227    21576424.839
 03  4  5  0 53  0.0000000  0  8G17G31G 3G14G 9G15G23G18
  22954378.741   -12395979.52149  -9650284.99845  22954378.225    22954390.244
  22498003.711   -10376648.12949  -8065438.40246  22498003.397    22498012.325
  21750292.112   -12466672.14049  -9692875.70747  21750291.966    21750300.713
  20618268.024   -19219550.95849 -14951772.47448  20618267.720    20618274.776
  23454099.129    -6515549.68549  -5071051.84245  23454099.275    23454109.990
  20629354.861   -22539962.31749 -17377390.49947  20629354.325    20629362.067
  22324116.732    -9767413.88049  -7594190.39946  22324116.296    22324124.536
  21586475.987   -15054327.92849 -11483935.01347  21586475.674    21586482.270
 03  4  5  0 53 30.0000000  0  8G17G31G 3G14G 9G15G23G18
  22970067.963   -12313531.79449  -9586040.12645  22970067.453    22970079.551
  22492788.691   -10404052.66649  -8086792.48346  22492788.387    22492797.297
  21754665.066   -12443691.70949  -9674968.86147  21754664.949    21754673.713
  20609187.797   -19267267.47149 -14988954.04648  20609187.497    20609194.449
  23454995.281    -6510839.70849  -5067381.64445  23454995.405    23455006.203
  20637179.076   -22498845.76849 -17345351.62747  20637178.529    20637186.282
  22334210.709    -9714369.32649  -7552856.94846  22334210.298    22334218.573
  21596559.833   -15001336.91049 -11442643.29147  21596559.513    21596566.046
 03  4  5  0 54  0.0000000  0  8G17G31G 3G14G 9G15G23G18
  22985811.638   -12230798.37749  -9521572.65445  22985811.134    22985823.384
  22487682.177   -10430886.81549  -8107702.10946  22487681.842    22487690.785
  21759140.237   -12420174.23349  -9656643.54747  21759140.131    21759148.842
  20600206.217   -19314465.71249 -15025731.76748  20600205.904    20600212.758
  23456003.563    -6505540.81249  -5063252.54245  23456003.716    23456014.215
  20645082.539   -22457312.94849 -17312988.38347  20645081.967    20645089.713
  22344316.210    -9661264.21749  -7511476.31046  22344315.842    22344324.094
  21606670.511   -14948204.94849 -11401241.74947  21606670.193    21606676.643
 03  4  5  0 54 30.0000000  0  8G17G31G 3G14G 9G15G23G18
  23001609.092   -12147782.97049  -9456885.44745  23001608.537    23001620.920
  22482683.722   -10457152.89249  -8128169.09546  22482683.433    22482692.371
  21763716.758   -12396124.21349  -9637903.26547  21763716.653    21763725.329
  20591322.729   -19361147.90849 -15062107.37948  20591322.434    20591329.265
  23457123.611    -6499655.38849  -5058666.40345  23457123.651    23457134.007
  20653064.614   -22415366.64449 -17280302.94747  20653064.051    20653071.821
  22354432.634    -9608102.11149  -7470051.26746  22354432.258    22354440.421
  21616807.260   -14894935.77249 -11359733.28747  21616806.956    21616813.317
 03  4  5  0 55  0.0000000  0  8G17G31G 3G14G 9G15G23G18
  23017460.064   -12064485.92749  -9391978.78145  23017459.524    23017472.000
  22477793.687   -10482849.79149  -8148192.55846  22477793.388    22477802.266
  21768394.519   -12371542.61649  -9618748.75847  21768394.394    21768403.029
  20582537.758   -19407312.57749 -15098079.72448  20582537.486    20582544.295
  23458355.504    -6493182.60949  -5053622.57245  23458355.607    23458365.613
  20661125.498   -22373006.41849 -17247294.96947  20661124.951    20661132.684
  22364560.017    -9554883.00849  -7428581.79546  22364559.587    22364567.599
  21626970.070   -14841529.67449 -11318118.12747  21626969.760    21626976.102
 03  4  5  0 55 30.0000000  0  8G17G31G 3G14G 9G15G23G18
  23033364.746   -11980906.88849  -9326852.38545  23033364.263    23033376.656
  22473012.306   -10507975.75049  -8167771.14146  22473011.998    22473020.853
  21773173.408   -12346429.61949  -9599180.17247  21773173.266    21773181.848
  20573851.683   -19452957.94149 -15133647.42048  20573851.409    20573858.109
  23459699.480    -6486120.93449  -5048119.88645  23459699.447    23459709.292
  20669265.438   -22330230.94749 -17213963.42047  20669264.866    20669272.579
  22374698.319    -9501606.20049  -7387067.37946  22374697.889    22374705.759
  21637159.014   -14787986.25149 -11276395.96347  21637158.717    21637165.067
 03  4  5  0 56  0.0000000  0  8G17G31G 3G14G 9G15G23G18
  23049322.318   -11897050.62149  -9261509.98045  23049321.806    23049334.097
  22468338.988   -10532534.02649  -8186907.38046  22468338.693    22468347.381
  21778052.407   -12320790.16949  -9579201.37947  21778052.248    21778060.878
  20565263.936   -19498086.78949 -15168812.63748  20565263.634    20565270.215
  23461154.838    -6478473.75049  -5042160.95146  23461154.681    23461164.413
  20677483.650   -22287043.87149 -17180311.13847  20677483.066    20677490.812
  22384846.739    -9448275.87749  -7345511.26546  22384846.294    22384854.134
  21647373.300   -14734309.90949 -11234570.23247  21647372.996    21647379.347
 03  4  5  0 56 30.0000000  0  8G17G31G 3G14G 9G15G23G18
  23065333.324   -11812912.69749  -9195948.07845  23065332.932    23065345.202
  22463774.761   -10556519.19849  -8205597.05246  22463774.423    22463782.915
  21783032.172   -12294620.98749  -9558809.79747  21783032.031    21783040.722
  20556775.448   -19542693.67349 -15203571.12448  20556775.141    20556781.653
  23462722.404    -6470235.88749  -5035741.73346  23462722.335    23462732.015
  20685781.032   -22243440.70549 -17146334.63047  20685780.462    20685788.185
  22395006.043    -9394887.79049  -7303910.12146  22395005.660    22395013.516
  21657613.688   -14680496.48449 -11192637.68047  21657613.396    21657619.717
 03  4  5  0 57  0.0000000  0  8G17G31G 3G14G 9G15G23G18
  23081397.599   -11728495.54849  -9130168.61645  23081397.221    23081409.589
  22459319.295   -10579932.04549  -8223840.75346  22459318.948    22459327.441
  21788112.215   -12267924.79449  -9538007.55647  21788112.054    21788120.821
  20548386.197   -19586778.84049 -15237923.08148  20548385.909    20548392.365
  23464402.096    -6461408.11649  -5028862.86146  23464402.082    23464411.944
  20694157.293   -22199422.86549 -17112034.99847  20694156.723    20694164.478
  22405176.097    -9341443.70049  -7262265.36246  22405175.709    22405183.561
  21667879.757   -14626548.21249 -11150600.05847  21667879.449    21667885.735
 03  4  5  0 57 30.0000000  0  8G17G31G 3G14G 9G15G23G18
  23097514.887   -11643799.66149  -9064171.95545  23097514.453    23097526.877
  22454972.857   -10602772.11249  -8241638.13446  22454972.536    22454981.173
  21793292.280   -12240703.09149  -9516795.83347  21793292.108    21793300.981
  20540096.313   -19630341.93749 -15271868.23648  20540096.028    20540102.451
  23466194.180    -6451990.27449  -5021524.18846  23466194.102    23466204.066
  20702612.476   -22154990.32549 -17077412.22947  20702611.920    20702619.753
  22415356.824    -9287943.93949  -7220577.22746  22415356.362    22415364.196
  21678171.276   -14572465.77249 -11108457.88847  21678170.965    21678177.257
 03  4  5  0 58  0.0000000  0  8G17G31G 3G14G 9G15G23G18
  23113684.978   -11558826.47349  -8997959.20445  23113684.549    23113696.914
  22450735.423   -10625039.13749  -8258988.99546  22450735.140    22450743.915
  21798572.130   -12212957.23549  -9495175.68547  21798571.963    21798580.899
  20531905.941   -19673382.28449 -15305406.05148  20531905.628    20531912.073
  23468098.468    -6441982.09049  -5013725.49946  23468098.444    23468108.482
  20711146.618   -22110143.26249 -17042466.45547  20711146.032    20711153.919
  22425547.915    -9234389.18949  -7178846.24046  22425547.477    22425555.332
  21688488.145   -14518249.95149 -11066211.78647  21688487.852    21688494.177
 03  4  5  0 58 30.0000000  0  8G17G31G 3G14G 9G15G23G18
  23129907.611   -11473576.55949  -8931530.82045  23129907.198    23129919.592
  22446607.246   -10646732.52749  -8275892.86046  22446606.947    22446615.791
  21803951.382   -12184688.96649  -9473148.45447  21803951.229    21803960.187
  20523815.153   -19715898.93349 -15338535.79348  20523814.869    20523821.365
  23470115.078    -6431383.37249  -5005466.64546  23470115.128    23470125.294
  20719759.612   -22064881.62949 -17007197.63847  20719759.039    20719766.906
  22435749.349    -9180779.97149  -7137072.81046  22435748.905    22435756.771
  21698830.238   -14463901.54949 -11023862.37247  21698829.953    21698836.335
 03  4  5  0 59  0.0000000  0  8G17G31G 3G14G 9G15G23G18
  23146182.378   -11388052.18849  -8864888.56245  23146181.912    23146194.507
  22442588.198   -10667853.34749  -8292350.58646  22442587.850    22442596.588
  21809429.486   -12155900.96049  -9450716.24247  21809429.356    21809438.340
  20515823.863   -19757892.87649 -15371258.23748  20515823.591    20515830.086
  23472243.737    -6420195.44049  -4996748.67246  23472243.854    23472254.164
  20728451.179   -22019207.14149 -16971607.12647  20728450.592    20728458.457
  22445960.755    -9127118.08649  -7095258.36546  22445960.355    22445968.261
  21709197.219   -14409422.73149 -10981411.34947  21709196.926    21709203.354
 03  4  5  0 59 30.0000000  0  8G17G31G 3G14G 9G15G23G18
  23162509.508   -11302252.26249  -8798031.59645  23162508.999    23162521.844
  22438678.521   -10688398.98449  -8308360.11646  22438678.157    22438686.906
  21815006.698   -12126592.69249  -9427878.61747  21815006.535    21815015.551
  20507932.643   -19799361.33049 -15403571.20948  20507932.334    20507938.839
  23474485.231    -6408415.75349  -4987569.60746  23474485.362    23474495.668
  20737221.718   -21973117.44549 -16935693.06547  20737221.121    20737229.004
  22456182.553    -9073401.86549  -7053401.55946  22456182.189    22456190.126
  21719589.352   -14354811.67749 -10938857.26947  21719589.051    21719595.459
 03  4  5  1  0  0.0000000  0  8G17G31G 3G14G 9G15G23G18
  23178889.271   -11216176.61649  -8730959.79845  23178888.699    23178901.566
  22434878.401   -10708368.30249  -8323920.56946  22434877.998    22434886.823
  21820682.799   -12096764.89649  -9404636.17347  21820682.625    21820691.563
  20500141.684   -19840302.81449 -15435473.55148  20500141.378    20500147.828
  23476839.744    -6396043.33649  -4977928.64346  23476839.842    23476849.923
  20746071.392   -21926611.84049 -16899454.92247  20746070.834    20746078.655
  22466414.891    -9019630.88649  -7011502.08746  22466414.495    22466422.400
  21730006.682   -14300068.67049 -10896200.37447  21730006.350    21730012.684
 03  4  5  1  0 30.0000000  0  8G17G31G 3G14G 9G15G23G18
  23195320.461   -11129830.64649  -8663677.34445  23195319.894    23195332.674
  22431187.078   -10727764.96149  -8339034.79646  22431186.753    22431195.654
  21826456.664   -12066423.06249  -9380993.18447  21826456.489    21826465.359
  20492450.371   -19880720.59549 -15466967.81748  20492450.062    20492456.421
  23479306.177    -6383082.16549  -4967828.93346  23479306.215    23479316.205
  20754999.490   -21879694.56049 -16862895.99447  20754998.913    20755006.663
  22476656.848    -8965809.44949  -6969563.30746  22476656.405    22476664.268
  21740448.243   -14245198.09249 -10853444.07147  21740447.941    21740454.180
 03  4  5  1  1  0.0000000  0  8G17G31G 3G14G 9G15G23G18
  23211803.450   -11043211.77149  -8596182.24245  23211802.954    23211815.804
  22427605.572   -10746585.66149  -8353700.23246  22427605.252    22427614.091
  21832328.583   -12035565.94649  -9356948.68647  21832328.393    21832337.230
  20484859.314   -19920611.20449 -15498051.29948  20484859.017    20484865.315
  23481885.199    -6369529.05149  -4957267.97346  23481885.230    23481895.196
  20764006.489   -21832362.62549 -16826013.96447  20764005.888    20764013.642
  22486908.862    -8911934.88949  -6927583.13746  22486908.427    22486916.240
  21750914.473   -14190197.81349 -10810586.70847  21750914.175    21750920.359
 03  4  5  1  1 30.0000000  0  8G17G31G 3G14G 9G15G23G18
  23228338.219   -10956320.50049  -8528474.88445  23228337.796    23228350.769
  22424133.859   -10764829.72749  -8367916.33846  22424133.505    22424142.344
  21838298.267   -12004194.73549  -9332503.58147  21838298.091    21838306.954
  20477368.825   -19959973.72749 -15528723.28348  20477368.523    20477374.758
  23484576.915    -6355383.40949  -4946245.29846  23484576.886    23484586.917
  20773092.347   -21784615.90349 -16788808.72447  20773091.778    20773099.531
  22497170.908    -8858007.20549  -6885561.56546  22497170.473    22497178.344
  21761405.274   -14135067.99549 -10767628.39447  21761404.953    21761411.117
 03  4  5  1  2  0.0000000  0  8G17G31G 3G14G 9G15G23G18
  23244924.622   -10869158.95149  -8460556.91645  23244924.113    23244937.145
  22420771.741   -10782497.61249  -8381683.46846  22420771.423    22420780.257
  21844365.453   -11972311.47449  -9307659.49747  21844365.280    21844374.132
  20469978.714   -19998808.45249 -15558984.00648  20469978.399    20469984.609
  23487381.072    -6340646.05849  -4934761.54346  23487381.144    23487391.291
  20782257.046   -21736455.40449 -16751281.06747  20782256.443    20782264.200
  22507442.762    -8804027.65549  -6843499.58346  22507442.372    22507450.319
  21771920.366   -14079810.26949 -10724570.41447  21771920.083    21771926.203
 03  4  5  1  2 30.0000000  0  8G17G31G 3G14G 9G15G23G18
  23261562.383   -10781727.46649  -8392428.61545  23261561.925    23261574.896
  22417519.367   -10799588.82849  -8395001.24946  22417519.074    22417527.895
  21850529.781   -11939917.75549  -9282417.64647  21850529.593    21850538.509
  20462689.209   -20037114.28649 -15588832.60148  20462688.935    20462695.105
  23490298.257    -6325316.51849  -4922816.32546  23490298.265    23490308.240
  20791500.439   -21687880.85749 -16713430.77047  20791499.844    20791507.620
  22517724.539    -8749996.41249  -6801397.32346  22517724.164    22517732.184
  21782459.896   -14024424.84249 -10681412.92447  21782459.607    21782465.593
 03  4  5  1  3  0.0000000  0  8G17G31G 3G14G 9G15G23G18
  23278251.169   -10694028.16549  -8324091.61845  23278250.752    23278263.661
  22414376.629   -10816103.91449  -8407870.10546  22414376.320    22414385.155
  21856790.732   -11907016.00049  -9256779.91747  21856790.579    21856799.535
  20455500.367   -20074891.73949 -15618269.46948  20455500.062    20455506.194
  23493327.684    -6309395.59849  -4910410.28846  23493327.758    23493337.545
  20800822.437   -21638893.16549 -16675258.54447  20800821.871    20800829.659
  22528015.944    -8695914.61049  -6759255.66346  22528015.579    22528023.691
  21793023.480   -13968912.91849 -10638156.85847  21793023.164    21793029.139
 03  4  5  1  3 30.0000000  0  8G17G31G 3G14G 9G15G23G18
  23294990.623   -10606062.18549  -8255546.82645  23294990.194    23295003.172
  22411343.477   -10832043.44349  -8420290.46646  22411343.130    22411351.925
  21863148.012   -11873608.65749  -9230748.23247  21863147.858    21863156.704
  20448411.999   -20112141.11749 -15647294.85548  20448411.689    20448417.784
  23496469.634    -6292884.09549  -4897544.05946  23496469.563    23496479.532
  20810222.830   -21589493.55149 -16636765.33847  20810222.263    20810230.071
  22538316.765    -8641783.41249  -6717075.51146  22538316.408    22538324.574
  21803610.849   -13913276.11049 -10594803.48247  21803610.515    21803616.495
 03  4  5  1  4  0.0000000  0  8G17G31G 3G14G 9G15G23G18
  23311781.266   -10517827.39049  -8186792.58145  23311780.840    23311793.786
  22408420.516   -10847403.80249  -8432259.54146  22408420.154    22408428.899
  21869601.793   -11839694.19949  -9204321.40147  21869601.600    21869610.386
  20441424.890   -20148858.42849 -15675905.64848  20441424.576    20441430.647
  23499724.529    -6275778.61149  -4884214.99546  23499724.550    23499734.541
  20819702.295   -21539678.65849 -16597948.54547  20819701.750    20819709.558
  22548627.624    -8587599.80949  -6674854.51946  22548627.270    22548635.437
  21814222.386   -13857511.80349 -10551350.75447  21814222.078    21814228.123
 03  4  5  1  4 30.0000000  0  8G17G31G 3G14G 9G15G23G18
  23328622.229   -10429328.49349  -8117832.54345  23328621.711    23328634.583
  22405606.961   -10862188.78849  -8443780.26646  22405606.621    22405615.328
  21876150.913   -11805278.03249  -9177503.61847  21876150.766    21876159.487
  20434538.336   -20185047.16949 -15704104.56948  20434538.004    20434544.087
  23503091.863    -6258083.16349  -4870426.24946  23503091.878    23503101.862
  20829260.018   -21489452.63149 -16558811.39747  20829259.414    20829267.201
  22558947.622    -8533368.05349  -6632596.00346  22558947.265    22558955.374
  21824857.432   -13801624.36349 -10507802.08447  21824857.136    21824863.208
 03  4  5  1  5  0.0000000  0  8G17G31G 3G14G 9G15G23G18
  23345513.377   -10340565.55149  -8048666.74445  23345512.868    23345525.643
  22402903.158   -10876397.36349  -8454851.85246  22402902.803    22402911.476
  21882795.416   -11770361.11149  -9150295.63747  21882795.236    21882803.939
  20427752.557   -20220706.31649 -15731890.82248  20427752.251    20427758.266
  23506571.754    -6239796.91949  -4856177.13146  23506571.708    23506581.561
  20838896.024   -21438814.81849 -16519353.36947  20838895.453    20838903.229
  22569276.768    -8479087.38049  -6590299.36246  22569276.405    22569284.579
  21835515.886   -13745613.68249 -10464157.37547  21835515.577    21835521.705
 03  4  5  1  5 30.0000000  0  8G17G31G 3G14G 9G15G23G18
  23362454.972   -10251537.61149  -7979294.45945  23362454.459    23362467.151
  22400309.315   -10890027.48449  -8465472.68246  22400308.949    22400317.720
  21889535.225   -11734943.22449  -9122697.29247  21889535.050    21889543.815
  20421068.126   -20255833.31749 -15759262.41148  20421067.799    20421073.699
  23510164.367    -6220918.20349  -4841466.33446  23510164.302    23510174.021
  20848610.821   -21387763.50649 -16479573.13647  20848610.227    20848617.961
  22579615.516    -8424756.27549  -6547963.42546  22579615.198    22579623.478
  21846198.033   -13689478.23749 -10420415.44647  21846197.752    21846203.949
 03  4  5  1  6  0.0000000  0  8G17G31G 3G14G 9G15G23G18
  23379446.790   -10162246.07749  -7909716.79045  23379446.226    23379458.728
  22397825.398   -10903079.30149  -8475642.88646  22397825.089    22397833.947
  21896370.014   -11699026.23849  -9094710.03647  21896369.838    21896378.573
  20414484.910   -20290427.85449 -15786219.09648  20414484.577    20414490.443
  23513869.526    -6201447.37749  -4826294.15746  23513869.467    23513878.930
  20858404.250   -21336299.04149 -16439470.96347  20858403.638    20858411.321
  22589963.812    -8370375.30349  -6505588.62446  22589963.494    22589971.846
  21856903.765   -13633218.77849 -10376576.88247  21856903.471    21856909.804
 03  4  5  1  6 30.0000000  0  8G17G31G 3G14G 9G15G23G18
  23396488.213   -10072693.97349  -7839936.06245  23396487.639    23396499.998
  22395451.335   -10915554.41949  -8485363.70346  22395451.062    22395459.850
  21903299.116   -11662613.75149  -9066336.67747  21903298.922    21903307.586
  20408002.704   -20324491.38249 -15812762.00848  20408002.384    20408008.288
  23517686.992    -6181386.24749  -4810662.01946  23517686.984    23517696.328
  20868275.859   -21284423.55549 -16399048.50747  20868275.224    20868282.932
  22600321.197    -8315946.56549  -6463176.60046  22600320.854    22600329.263
  21867632.625   -13576837.87849 -10332643.68747  21867632.343    21867638.752
 03  4  5  1  7  0.0000000  0  8G17G31G 3G14G 9G15G23G18
  23413579.110    -9982880.89249  -7769951.97045  23413578.577    23413590.976
  22393187.436   -10927451.80449  -8494634.33346  22393187.119    22393195.686
  21910322.291   -11625706.48749  -9037577.77547  21910322.080    21910330.770
  20401621.792   -20358022.47549 -15838890.04048  20401621.492    20401627.450
  23521617.202    -6160733.79649  -4794569.10746  23521617.093    23521626.155
  20878225.783   -21232136.27649 -16358305.18347  20878225.145    20878232.873
  22610687.803    -8261469.19349  -6420726.68546  22610687.427    22610695.926
  21878384.799   -13520334.75049 -10288615.26647  21878384.519    21878390.986
 03  4  5  1  7 30.0000000  0  8G17G31G 3G14G 9G15G23G18
  23430719.583    -9892806.98449  -7699764.62345  23430718.971    23430731.626
  22391033.643   -10938770.49149  -8503454.01846  22391033.260    22391041.734
  21917439.398   -11588305.30749  -9008434.00347  21917439.203    21917448.024
  20395342.468   -20391019.92149 -15864602.24448  20395342.169    20395348.106
  23525659.563    -6139489.46449  -4778015.00546  23525659.475    23525668.563
  20888254.118   -21179436.65849 -16317240.55447  20888253.523    20888261.209
  22621063.714    -8206942.73049  -6378238.50446  22621063.374    22621071.963
  21889160.208   -13463709.14949 -10244491.39147  21889159.920    21889166.457
 03  4  5  1  8  0.0000000  0  8G17G31G 3G14G 9G15G23G18
  23447909.598    -9802473.09049  -7629374.69045  23447908.921    23447921.679
  22388989.917   -10949510.31949  -8511822.65646  22388989.575    22388997.900
  21924650.080   -11550411.91249  -8978906.68447  21924649.931    21924658.999
  20389164.760   -20423483.43249 -15889898.39248  20389164.445    20389170.359
  23529814.627    -6117653.26749  -4760999.71246  23529814.628    23529823.630
  20898360.906   -21126324.92649 -16275854.80747  20898360.326    20898368.014
  22631449.161    -8152367.12749  -6335712.04146  22631448.784    22631457.332
  21899958.795   -13406961.76749 -10200272.62147  21899958.495    21899965.140
 03  4  5  1  8 30.0000000  0  8G17G31G 3G14G 9G15G23G18
  23465148.381    -9711883.40349  -7558785.42145  23465147.606    23465160.357
  22387055.779   -10959674.56749  -8519742.77646  22387055.424    22387063.599
  21931953.525   -11512031.40949  -8948999.80347  21931953.405    21931962.666
  20383088.119   -20455415.67449 -15914780.56848  20383087.822    20383093.762
  23534081.879    -6095228.69549  -4743525.92646  23534081.844    23534090.897
  20908545.519   -21072804.28649 -16234150.42847  20908544.946    20908552.699
  22641843.324    -8097745.73949  -6293149.89946  22641842.908    22641851.367
  21910779.822   -13350096.19249 -10155961.75947  21910779.503    21910786.271
 03  4  5  1  9  0.0000000  0  8G17G31G 3G14G 9G15G23G18
  23482436.079    -9621036.00549  -7487995.35945  23482435.458    23482448.271
  22385231.698   -10969260.31749  -8527212.11546  22385231.327    22385239.378
  21939350.010   -11473162.67749  -8918712.48347  21939349.914    21939359.221
  20377113.243   -20486813.44049 -15939246.26848  20377112.948    20377118.886
  23538461.663    -6072212.99049  -4725591.52746  23538461.612    23538470.713
  20918808.468   -21018872.21849 -16192125.45747  20918807.910    20918815.695
  22652246.579    -8043076.09549  -6250550.13546  22652246.176    22652254.584
  21921623.843   -13293109.89549 -10111556.84147  21921623.546    21921630.383
 03  4  5  1  9 30.0000000  0  8G17G31G 3G14G 9G15G23G18
  23499772.458    -9529932.96049  -7417006.07845  23499771.567    23499784.891
  22383517.385   -10978268.30549  -8534231.25746  22383517.024    22383525.157
  21946839.052   -11433808.06749  -8888046.55847  21946838.929    21946848.140
  20371239.952   -20517677.34149 -15963295.96448  20371239.645    20371245.606
  23542953.601    -6048607.01449  -4707197.17846  23542953.532    23542962.599
  20929149.508   -20964529.76549 -16149780.69247  20929148.942    20929156.748
  22662658.883    -7988359.10849  -6207913.49646  22662658.458    22662666.886
  21932490.733   -13236004.17349 -10067058.86247  21932490.433    21932497.274
 03  4  5  1 10  0.0000000  0  8G17G31G 3G14G 9G15G23G18
  23517157.642    -9438574.31449  -7345817.64645  23517156.750    23517170.177
  22381913.085   -10986698.08749  -8540799.85546  22381912.775    22381920.933
  21954420.201   -11393969.26149  -8857003.33747  21954420.051    21954429.184
  20365468.392   -20548006.52449 -15986929.00548  20365468.110    20365474.036
  23547558.007    -6024410.65849  -4688342.77646  23547557.895    23547566.955
  20939568.644   -20909776.71149 -16107115.98547  20939568.079    20939575.875
  22673080.250    -7933594.40349  -6165239.67846  22673079.814    22673088.264
  21943380.363   -13178779.01649 -10022467.82147  21943380.074    21943386.866
 03  4  5  1 10 30.0000000  0  8G17G31G 3G14G 9G15G23G18
  23534590.578    -9346964.21449  -7274433.26345  23534589.742    23534603.423
  22380418.281   -10994553.10749  -8546920.59746  22380417.959    22380426.101
  21962092.527   -11353651.33949  -8825586.77347  21962092.370    21962101.433
  20359798.013   -20577803.88049 -16010147.64148  20359797.716    20359803.640
  23552274.060    -5999627.47449  -4669031.13146  23552273.880    23552282.975
  20950065.251   -20854616.55949 -16064134.06047  20950064.682    20950072.542
  22683509.978    -7878785.33049  -6122531.29246  22683509.583    22683518.037
  21954292.162   -13121437.83649  -9977786.37747  21954291.840    21954298.463
 03  4  5  1 11  0.0000000  0  8G17G31G 3G14G 9G15G23G18
  23552071.471    -9255101.20949  -7202851.83345  23552070.850    23552084.565
  22379033.366   -11001830.36949  -8552591.13746  22379033.048    22379041.235
  21969856.190   -11312853.22749  -8793796.04247  21969856.055    21969865.023
  20354229.470   -20607066.28249 -16032949.42748  20354229.151    20354235.094
  23557102.370    -5974254.89749  -4649260.21646  23557102.197    23557111.130
  20960639.851   -20799046.77549 -16020832.94347  20960639.271    20960647.117
  22693948.767    -7823929.30349  -6079786.32246  22693948.307    22693956.778
  21965226.380   -13063978.67949  -9933013.00247  21965226.050    21965232.462
 03  4  5  1 11 30.0000000  0  8G17G31G 3G14G 9G15G23G18
  23569600.394    -9162986.10349  -7131073.94245  23569599.846    23569613.716
  22377758.388   -11008529.92349  -8557811.52846  22377758.110    22377766.312
  21977710.947   -11271576.69549  -8761632.51747  21977710.817    21977719.650
  20348762.782   -20635793.35549 -16055334.07248  20348762.475    20348768.457
  23562042.526    -5948293.23149  -4629030.26046  23562042.477    23562051.591
  20971292.442   -20743067.26249 -15977212.56247  20971291.857    20971299.622
  22704396.533    -7769026.24149  -6037004.70446  22704396.024    22704404.402
  21976183.073   -13006401.48249  -9888147.65247  21976182.705    21976188.938
 03  4  5  1 12  0.0000000  0  8G17G31G 3G14G 9G15G23G18
  23587177.402    -9070619.23749  -7059099.90445  23587176.657    23587190.733
  22376593.622   -11014650.79049  -8562581.01246  22376593.347    22376601.491
  21985656.600   -11229822.40749  -8729096.71947  21985656.447    21985665.182
  20343398.276   -20663983.75449 -16077300.53348  20343397.959    20343403.962
  23567095.197    -5921741.63349  -4608340.61046  23567095.000    23567104.022
  20982023.088   -20686677.35349 -15933272.38547  20982022.518    20982030.205
  22714853.415    -7714075.14249  -5994185.64646  22714852.915    22714861.087
  21987162.299   -12948705.69449  -9843189.89147  21987161.945    21987167.998
 03  4  5  1 12 30.0000000  0  8G17G31G 3G14G 9G15G23G18
  23604801.643    -8978003.31149  -6986931.78145  23604800.946    23604814.989
  22375538.590   -11020195.45249  -8566901.49446  22375538.277    22375546.359
  21993692.279   -11187594.62349  -8696191.95647  21993692.134    21993700.872
  20338135.463   -20691639.71149 -16098850.54148  20338135.162    20338141.124
  23572259.512    -5894602.81049  -4587193.41446  23572259.324    23572268.231
  20992831.290   -20629879.90249 -15889014.63847  20992830.736    20992838.367
  22725318.988    -7659078.52349  -5951331.12046  22725318.519    22725326.484
  21998163.419   -12890894.16349  -9798141.93747  21998163.059    21998169.064
 03  4  5  1 13  0.0000000  0  8G17G31G 3G14G 9G15G23G18
  23622472.837    -8885140.55949  -6914571.32645  23622472.202    23622486.090
  22374592.727   -11025165.38649  -8570774.14246  22374592.392    22374600.611
  22001817.450   -11144896.44649  -8662920.65647  22001817.289    22001826.029
  20332974.170   -20718762.29249 -16119984.93448  20332973.865    20332979.734
  23577535.165    -5866878.47349  -4565589.93345  23577534.893    23577543.650
  21003716.790   -20572676.31849 -15844440.42747  21003716.240    21003723.850
  22735792.805    -7604037.89049  -5908442.29946  22735792.408    22735800.325
  22009186.223   -12832968.52649  -9753005.07947  22009185.918    22009191.947
 03  4  5  1 13 30.0000000  0  8G17G31G 3G14G 9G15G23G18
  23640191.426    -8792029.47949  -6842017.37845  23640190.996    23640204.379
  22373756.687   -11029557.98049  -8574196.91546  22373756.381    22373764.667
  22010032.348   -11101727.23849  -8629282.33247  22010032.182    22010040.786
  20327914.938   -20745348.64549 -16140701.48748  20327914.628    20327920.407
  23582922.507    -5838566.29649  -4543528.44945  23582922.303    23582931.216
  21014679.958   -20515064.12249 -15799547.81047  21014679.440    21014687.024
  22746275.628    -7548950.48349  -5865517.03746  22746275.221    22746283.156
  22020231.208   -12774926.45449  -9707777.49047  22020230.941    22020236.968
 03  4  5  1 14  0.0000000  0  8G17G31G 3G14G 9G15G23G18
  23657956.639    -8698673.13549  -6769272.28845  23657956.058    23657969.469
  22373030.214   -11033375.54849  -8577171.63946  22373029.934    22373038.016
  22018336.106   -11058090.97949  -8595280.07847  22018335.913    22018344.428
  20322957.389   -20771400.37649 -16161001.45248  20322957.100    20322962.851
  23588421.296    -5809668.93949  -4521010.94245  23588421.156    23588430.168
  21025720.513   -20457045.85449 -15754338.77447  21025720.017    21025727.572
  22756766.919    -7493818.50349  -5822557.03946  22756766.518    22756774.407
  22031297.893   -12716770.40049  -9662461.09147  22031297.620    22031303.732
 03  4  5  1 14 30.0000000  0  8G17G31G 3G14G 9G15G23G18
  23675768.569    -8605070.29149  -6696335.12445  23675768.107    23675781.452
  22372413.583   -11036616.20849  -8579696.80946  22372413.261    22372421.179
  22026728.737   -11013987.44549  -8560913.70647  22026728.543    22026737.127
  20318101.943   -20796915.53049 -16180883.30848  20318101.651    20318107.377
  23594031.709    -5780184.72949  -4498036.16945  23594031.691    23594040.902
  21036838.692   -20398619.83449 -15708812.02347  21036838.150    21036845.678
  22767267.064    -7438639.87149  -5779560.69846  22767266.649    22767274.528
  22042386.678   -12658498.38449  -9617054.31847  22042386.413    22042392.605
 03  4  5  1 15  0.0000000  0  8G17G31G 3G14G 9G15G23G18
  23693627.053    -8511223.82049  -6623208.10145  23693626.623    23693639.851
  22371906.270   -11039281.91349  -8581773.95146  22371905.922    22371913.916
  22035209.576   -10969420.38049  -8526186.14847  22035209.402    22035218.045
  20313348.381   -20821895.62049 -16200348.23348  20313348.072    20313353.779
  23599753.454    -5750115.89449  -4474605.84145  23599753.392    23599762.752
  21048033.917   -20339788.25649 -15662969.24347  21048033.380    21048040.936
  22777775.767    -7383416.41549  -5736529.43046  22777775.324    22777783.121
  22053497.087   -12600112.86649  -9571559.10847  22053496.832    22053503.055
 03  4  5  1 15 30.0000000  0  8G17G31G 3G14G 9G15G23G18
  23711531.595    -8417135.78849  -6549892.86445  23711531.019    23711544.418
  22371508.086   -11041373.83049  -8583403.98446  22371507.767    22371515.823
  22043778.102   -10924392.52049  -8491099.52847  22043777.920    22043786.584
  20308696.438   -20846341.36249 -16219396.78348  20308696.142    20308701.821
  23605586.101    -5719463.87549  -4450721.08445  23605586.053    23605595.468
  21059306.047   -20280552.44949 -15616811.48247  21059305.516    21059313.204
  22788292.873    -7328149.16049  -5693464.01846  22788292.394    22788300.167
  22064628.962   -12541614.93849  -9525976.31547  22064628.665    22064634.852
 03  4  5  1 16  0.0000000  0  8G17G31G 3G14G 9G15G23G18
  23729482.121    -8322806.43849  -6476389.57145  23729481.761    23729494.730
  22371219.356   -11042891.63349  -8584586.65846  22371219.037    22371226.978
  22052433.968   -10878905.50349  -8455655.12647  22052433.798    22052442.467
  20304146.292   -20870252.20949 -16238028.53548  20304145.992    20304151.650
  23611529.817    -5688228.43949  -4426381.71045  23611529.858    23611539.292
  21070655.178   -20220911.99749 -15570338.41947  21070654.649    21070662.477
  22798818.353    -7272837.40449  -5650363.94446  22798817.877    22798825.655
  22075782.249   -12483004.20349  -9480305.60047  22075781.934    22075788.105
 03  4  5  1 16 30.0000000  0  8G17G31G 3G14G 9G15G23G18
  23747477.941    -8228238.08149  -6402700.05445  23747477.554    23747490.531
  22371039.643   -11043836.47849  -8585322.84246  22371039.282    22371047.244
  22061176.607   -10832962.23449  -8419855.19747  22061176.465    22061185.240
  20299697.789   -20893628.83949 -16256244.00848  20299697.502    20299703.133
  23617584.460    -5656411.08649  -4401588.91245  23617584.506    23617593.953
  21082081.107   -20160868.19849 -15523551.05147  21082080.609    21082088.513
  22809352.086    -7217482.02249  -5607229.84946  22809351.635    22809359.521
  22086956.790   -12424281.77649  -9434547.87147  22086956.468    22086962.593
 03  4  5  1 17  0.0000000  0  8G17G31G 3G14G 9G15G23G18
  23765519.379    -8133430.40749  -6328824.05745  23765518.953    23765531.913
  22370969.051   -11044207.33149  -8585611.77246  22370968.720    22370976.724
  22070006.067   -10786563.38349  -8383700.28847  22070005.942    22070014.717
  20295351.250   -20916469.90749 -16274042.15848  20295350.951    20295356.529
  23623750.136    -5624011.09349  -4376342.09045  23623750.118    23623759.477
  21093584.078   -20100420.15649 -15476448.70247  21093583.546    21093591.421
  22819894.343    -7162081.84749  -5564060.87046  22819893.906    22819901.836
  22098152.668   -12365446.91549  -9388702.51447  22098152.338    22098158.411
 03  4  5  1 17 30.0000000  0  8G17G31G 3G14G 9G15G23G18
  23783606.360    -8038384.08849  -6254762.10145  23783605.872    23783618.658
  22371007.584   -11044004.69249  -8585453.81846  22371007.254    22371015.308
  22078921.886   -10739711.16549  -8347192.10647  22078921.740    22078930.359
  20291106.610   -20938775.50249 -16291423.05948  20291106.290    20291111.834
  23630026.406    -5591029.20949  -4350641.86745  23630026.323    23630035.765
  21105163.894   -20039568.15149 -15429031.56647  21105163.339    21105171.209
  22830445.118    -7106636.92149  -5520857.02846  22830444.682    22830452.689
  22109369.878   -12306499.93349  -9342769.80547  22109369.552    22109375.466
 03  4  5  1 18  0.0000000  0  8G17G31G 3G14G 9G15G23G18
  23801737.913    -7943102.52849  -6180516.84045  23801737.430    23801750.265
  22371154.691   -11043231.18849  -8584851.04046  22371154.343    22371162.482
  22087923.185   -10692409.44749  -8310333.66547  22087922.989    22087931.613
  20286963.377   -20960547.74449 -16308388.37048  20286963.098    20286968.642
  23636412.755    -5557468.05449  -4324490.31045  23636412.692    23636422.386
  21116820.005   -19978314.83049 -15381301.72347  21116819.480    21116827.334
  22841004.042    -7051149.49049  -5477620.07746  22841003.632    22841011.628
  22120608.073   -12247443.14849  -9296751.52847  22120607.712    22120613.457
 03  4  5  1 18 30.0000000  0  8G17G31G 3G14G 9G15G23G18
  23819914.521    -7847583.74549  -6106086.71345  23819914.156    23819926.755
  22371410.958   -11041883.90649  -8583801.15446  22371410.615    22371418.771
  22097010.071   -10644657.27849  -8273124.20947  22097009.888    22097018.596
  20282922.407   -20981783.30949 -16324935.48848  20282922.115    20282927.595
  23642909.717    -5523325.17649  -4297885.43045  23642909.704    23642919.657
  21128552.982   -19916657.65449 -15333257.18147  21128552.408    21128560.346
  22851571.767    -6995616.25549  -5434347.42446  22851571.296    22851579.268
  22131867.520   -12188273.92849  -9250645.63247  22131867.197    22131872.931
 03  4  5  1 19  0.0000000  0  8G17G31G 3G14G 9G15G23G18
  23838135.660    -7751831.42349  -6031474.62345  23838135.252    23838148.077
  22371775.858   -11039966.14749  -8582306.75246  22371775.502    22371783.620
  22106181.737   -10596459.55949  -8235567.58747  22106181.559    22106190.431
  20278982.932   -21002485.22849 -16341066.78148  20278982.613    20278988.044
  23649516.827    -5488604.19649  -4270830.12045  23649516.780    23649526.833
  21140362.123   -19854599.78049 -15284900.41047  21140361.582    21140369.629
  22862147.571    -6940039.92449  -5391041.19546  22862147.105    22862155.092
  22143147.861   -12128995.21849  -9204454.43547  22143147.518    22143153.337
 03  4  5  1 19 30.0000000  0  8G17G31G 3G14G 9G15G23G18
  23856401.220    -7655845.84349  -5956680.76045  23856400.727    23856413.723
  22372249.420   -11037477.38749  -8580367.41746  22372249.055    22372257.185
  22115437.952   -10547817.40049  -8197664.64447  22115437.801    22115446.839
  20275145.135   -21022652.61649 -16356781.55348  20275144.819    20275150.213
  23656233.975    -5453304.81549  -4243324.08745  23656233.821    23656244.053
  21152247.703   -19792140.78849 -15236231.08747  21152247.154    21152255.214
  22872731.598    -6884419.59949  -5347700.69146  22872731.158    22872739.243
  22154449.139   -12069606.49349  -9158177.49647  22154448.824    22154454.695
 03  4  5  1 20  0.0000000  0  8G17G31G 3G14G 9G15G23G18
  23874711.354    -7559625.88149  -5881704.23845  23874710.861    23874723.976
  22372831.949   -11034415.89849  -8577981.81346  22372831.571    22372839.782
  22124778.807   -10498730.68849  -8159415.29447  22124778.635    22124787.785
  20271409.531   -21042283.14849 -16372077.99748  20271409.205    20271414.561
  23663061.370    -5417425.39849  -4215366.08345  23663061.274    23663071.438
  21164210.018   -19729279.01349 -15187247.90647  21164209.462    21164217.428
  22883324.401    -6828752.98749  -5304324.10446  22883323.994    22883332.217
  22165771.742   -12010105.64649  -9111813.19547  22165771.416    22165777.448
 03  4  5  1 20 30.0000000  0  8G17G31G 3G14G 9G15G23G18
  23893064.981    -7463178.56049  -5806550.57745  23893064.366    23893077.398
  22373522.226   -11030788.01149  -8575154.84046  22373521.873    22373530.148
  22134202.762   -10449207.47049  -8120825.81547  22134202.561    22134211.756
  20267774.925   -21061382.83849 -16386960.80348  20267774.612    20267779.933
  23669997.950    -5380972.66249  -4186961.29945  23669997.790    23670007.805
  21176247.792   -19666020.58849 -15137955.65047  21176247.209    21176255.127
  22893925.003    -6773045.99349  -5260916.06046  22893924.616    22893932.882
  22177114.424   -11950498.75449  -9065366.26347  22177114.104    22177120.326
 03  4  5  1 21  0.0000000  0  8G17G31G 3G14G 9G15G23G18
  23911462.234    -7366501.48649  -5731217.88945  23911461.620    23911474.503
  22374320.978   -11026590.44049  -8571883.96546  22374320.610    22374328.938
  22143710.038   -10399246.01049  -8081894.83247  22143709.869    22143719.104
  20264242.083   -21079947.88549 -16401426.99348  20264241.777    20264247.075
  23677044.555    -5343943.49849  -4158107.37645  23677044.353    23677054.116
  21188361.616   -19602362.18949 -15088351.71447  21188361.033    21188368.919
  22904534.173    -6717294.78049  -5217473.57346  22904533.771    22904541.977
  22188477.937   -11890782.20249  -9018833.87446  22188477.687    22188484.044
 03  4  5  1 21 30.0000000  0  8G17G31G 3G14G 9G15G23G18
  23929902.785    -7269595.28249  -5655706.63945  23929902.044    23929915.402
  22375228.001   -11021823.67849  -8568169.56946  22375227.623    22375235.927
  22153300.485   -10348848.27549  -8042623.91147  22153300.299    22153309.423
  20260810.952   -21097978.47149 -16415476.72948  20260810.623    20260815.918
  23684200.589    -5306338.37049  -4128804.65545  23684200.488    23684209.941
  21200551.434   -19538304.25049 -15038436.45847  21200550.864    21200558.676
  22915151.937    -6661499.14149  -5173996.46446  22915151.510    22915159.444
  22199862.384   -11830956.37749  -8972216.33846  22199862.106    22199868.503
 03  4  5  1 22  0.0000000  0  8G17G31G 3G14G 9G15G23G18
  23948386.130    -7172464.29749  -5580020.23245  23948385.478    23948399.059
  22376242.693   -11016491.38749  -8564014.51146  22376242.330    22376250.529
  22162972.883   -10298019.57549  -8003017.15947  22162972.673    22162981.696
  20257480.853   -21115477.84149 -16429112.52748  20257480.538    20257485.820
  23691465.469    -5268161.48649  -4099056.40545  23691465.419    23691474.377
  21212816.591   -19473850.52349 -14988212.78447  21212816.003    21212823.804
  22925777.502    -6605662.05849  -5130487.06246  22925777.065    22925784.896
  22211266.946   -11771024.50449  -8925516.17346  22211266.680    22211273.139
 03  4  5  1 22 30.0000000  0  8G17G31G 3G14G 9G15G23G18
  23966912.481    -7075107.23349  -5504157.65445  23966911.862    23966925.839
  22377365.447   -11010591.64449  -8559417.28946  22377365.083    22377373.122
  22172727.358   -10246759.64549  -7963074.38447  22172727.160    22172736.082
  20254252.394   -21132443.55149 -16442332.48448  20254252.043    20254257.291
  23698839.542    -5229411.09349  -4068861.28545  23698839.465    23698848.379
  21225157.472   -19408998.88249 -14937679.05247  21225156.880    21225164.670
  22936411.359    -6549781.00649  -5086943.39546  22936410.983    22936418.768
  22222692.152   -11710984.36949  -8878731.65146  22222691.901    22222698.322
 03  4  5  1 23  0.0000000  0  8G17G31G 3G14G 9G15G23G18
  23985481.767    -6977524.93849  -5428119.57345  23985481.217    23985495.233
  22378596.000   -11004125.00849  -8554378.31946  22378595.671    22378603.627
  22182563.539   -10195070.56749  -7922797.20447  22182563.351    22182572.216
  20251125.351   -21148875.67749 -16455136.66348  20251125.028    20251130.234
  23706322.596    -5190088.07249  -4038219.94245  23706322.465    23706331.298
  21237573.954   -19343749.84849 -14886835.66047  21237573.364    21237581.122
  22947053.571    -6493855.88949  -5043365.38346  22947053.166    22947061.011
  22234138.010   -11650836.00849  -8831862.80446  22234137.757    22234144.164
 03  4  5  1 23 30.0000000  0  8G17G31G 3G14G 9G15G23G18
  24004093.381    -6879720.19649  -5351908.14845  24004092.812    24004106.997
  22379934.084   -10997093.67249  -8548899.32846  22379933.725    22379941.623
  22192480.778   -10142956.01249  -7882188.48647  22192480.555    22192489.405
  20248099.579   -21164776.08049 -16467526.51648  20248099.243    20248104.383
  23713914.149    -5150194.91349  -4007134.32845  23713914.009    23713922.659
  21250065.643   -19278105.83649 -14835684.50247  21250065.036    21250072.799
  22957703.894    -6437888.26449  -4999754.25946  22957703.473    22957711.339
  22245604.174   -11590581.54249  -8784911.28346  22245603.879    22245610.154
 03  4  5  1 24  0.0000000  0  8G17G31G 3G14G 9G15G23G18
  24022747.036    -6781694.74849  -5275524.75845  24022746.479    24022760.738
  22381379.388   -10989498.82149  -8542981.24746  22381379.034    22381386.832
  22202478.295   -10090418.84649  -7841250.44947  22202478.064    22202487.012
  20245174.786   -21180145.37649 -16479502.52248  20245174.468    20245179.605
  23721613.738    -5109733.23549  -3975605.70345  23721613.818    23721622.166
  21262632.211   -19212067.83549 -14784226.33647  21262631.616    21262639.417
  22968362.192    -6381878.59049  -4956110.38046  22968361.755    22968369.613
  22257090.450   -11530221.33749  -8737877.36046  22257090.147    22257096.326
 03  4  5  1 24 30.0000000  0  8G17G31G 3G14G 9G15G23G18
  24041442.555    -6683449.31049  -5198969.95445  24041441.976    24041456.468
  22382931.870   -10981340.77049  -8536624.29946  22382931.529    22382939.229
  22212555.757   -10037460.95649  -7799984.57247  22212555.578    22212564.687
  20242351.111   -21194983.49049 -16491064.62048  20242350.792    20242355.958
  23729421.588    -5068703.45249  -3943634.36945  23729421.424    23729429.841
  21275273.781   -19145636.04949 -14732461.33647  21275273.175    21275280.954
  22979028.417    -6325826.31049  -4912433.30446  22979028.021    22979036.013
  22268596.721   -11469755.50249  -8690761.13946  22268596.412    22268602.591
 03  4  5  1 25  0.0000000  0  8G17G31G 3G14G 9G15G23G18
  24060179.632    -6584985.06049  -5122244.65145  24060179.095    24060193.692
  22384591.368   -10972620.00049  -8529828.87946  22384591.020    22384598.719
  22222713.019    -9984084.31949  -7758392.40047  22222712.836    22222721.956
  20239628.441   -21209290.47849 -16502212.84848  20239628.127    20239633.347
  23737337.083    -5027106.28349  -3911220.96845  23737336.954    23737345.560
  21287990.185   -19078810.65349 -14680389.62447  21287989.582    21287997.371
  22989702.706    -6269731.14449  -4868722.80446  22989702.391    22989710.591
  22280123.130   -11409183.75649  -8643562.38646  22280122.822    22280129.021
 03  4  5  1 25 30.0000000  0  8G17G31G 3G14G 9G15G23G18
  24078958.342    -6486301.21649  -5045348.21545  24078957.815    24078972.644
  22386358.175   -10963335.36649  -8522594.09446  22386357.827    22386365.533
  22232949.858    -9930289.41449  -7716474.31347  22232949.669    22232958.830
  20237007.243   -21223064.80949 -16512946.02648  20237006.952    20237012.135
  23745360.639    -4984940.71549  -3878364.63945  23745360.729    23745369.324
  21300781.768   -19011590.36249 -14628010.20647  21300781.166    21300789.012
  23000385.588    -6213591.11049  -4824977.35746  23000385.315    23000393.669
  22291669.948   -11348504.75749  -8596280.06546  22291669.638    22291675.829
 03  4  5  1 26  0.0000000  0  8G17G31G 3G14G 9G15G23G18
  24097778.205    -6387401.64149  -4968283.68545  24097777.737    24097792.655
  22388231.623   -10953490.61449  -8514922.85646  22388231.200    22388238.887
  22243265.306    -9876081.22049  -7674234.17447  22243265.158    22243274.306
  20234486.884   -21236309.64449 -16523266.60348  20234486.556    20234491.683
  23753491.814    -4942210.79849  -3845068.60845  23753492.089    23753500.739
  21313647.743   -18943978.84749 -14575325.93947  21313647.159    21313655.145
  23011076.687    -6157408.90549  -4781199.06746  23011076.363    23011084.803
  22303236.599   -11287721.39349  -8548916.40446  22303236.341    22303242.491
 03  4  5  1 26 30.0000000  0  8G17G31G 3G14G 9G15G23G18
  24116639.248    -6288285.94349  -4891050.75345  24116638.549    24116653.883
  22390211.781   -10943084.72649  -8506814.35646  22390211.419    22390219.081
  22253659.475    -9821460.33149  -7631672.46647  22253659.282    22253668.339
  20232067.433   -21249023.67149 -16533173.56548  20232067.102    20232072.227
  23761730.774    -4898916.09649  -3811332.43545  23761730.915    23761739.518
  21326588.415   -18875974.98149 -14522335.94847  21326587.850    21326595.895
  23021776.148    -6101182.71149  -4737386.48646  23021775.846    23021784.319
  22314823.467   -11226832.12849  -8501470.23146  22314823.190    22314829.284
 03  4  5  1 27  0.0000000  0  8G17G31G 3G14G 9G15G23G18
  24135540.571    -6188957.80449  -4813652.27445  24135539.973    24135555.394
  22392298.178   -10932120.95649  -8498271.14946  22392297.745    22392305.374
  22264131.153    -9766431.71449  -7588793.04247  22264130.933    22264139.981
  20229748.498   -21261209.43449 -16542668.90448  20229748.187    20229753.261
  23770076.360    -4855059.98649  -3777158.77245  23770076.559    23770085.377
  21339603.203   -18807581.90649 -14469042.67747  21339602.630    21339610.710
  23032483.506    -6044914.88049  -4693541.45746  23032483.224    23032491.737
  22326429.898   -11165839.69849  -8453943.66846  22326429.615    22326435.753
 03  4  5  1 27 30.0000000  0  8G17G31G 3G14G 9G15G23G18
  24154482.702    -6089416.44449  -4736087.65845  24154482.160    24154497.511
  22394490.777   -10920598.10949  -8489292.32246  22394490.367    22394498.011
  22274680.219    -9710995.47149  -7545595.98547  22274680.010    22274689.197
  20227530.336   -21272865.37849 -16551751.39448  20227530.052    20227535.104
  23778529.084    -4810641.26249  -3742546.74244  23778529.226    23778537.992
  21352692.344   -18738798.16349 -14415444.97947  21352691.759    21352699.879
  23043199.406    -5988603.18449  -4649662.24846  23043199.095    23043207.532
  22338056.367   -11104742.33949  -8406335.33546  22338056.036    22338062.262
 03  4  5  1 28  0.0000000  0  8G17G31G 3G14G 9G15G23G18
  24173465.034    -5989664.74349  -4658359.09445  24173464.308    24173479.757
  22396789.409   -10908518.58949  -8479879.70646  22396789.026    22396796.659
  22285306.149    -9655155.32949  -7502084.20347  22285305.974    22285315.205
  20225412.647   -21283993.43549 -16560422.53848  20225412.359    20225417.434
  23787088.403    -4765662.77649  -3707498.53944  23787088.372    23787096.786
  21365855.366   -18669626.04449 -14361544.64347  21365854.787    21365862.944
  23053923.327    -5932249.01349  -4605749.91746  23053922.991    23053931.418
  22349702.398   -11043541.55049  -8358646.41146  22349702.063    22349708.534
 03  4  5  1 28 30.0000000  0  8G17G31G 3G14G 9G15G23G18
  24192487.188    -5889703.58249  -4580467.36345  24192486.410    24192501.592
  22399193.845   -10895883.06649  -8470033.85146  22399193.491    22399201.226
  22296008.685    -9598913.55349  -7458259.47247  22296008.514    22296017.683
  20223395.443   -21294593.69549 -16568682.42148  20223395.135    20223400.192
  23795753.889    -4720125.25749  -3672014.69544  23795753.681    23795761.968
  21379092.125   -18600066.19349 -14307342.18747  21379091.523    21379099.784
  23064655.382    -5875851.99749  -4561804.21446  23064655.051    23064663.474
  22361368.106   -10982237.32849  -8310876.89146  22361367.767    22361374.497
 03  4  5  1 29  0.0000000  0  8G17G31G 3G14G 9G15G23G18
  24211548.961    -5789534.75649  -4502413.80645  24211548.243    24211563.256
  22401703.698   -10882693.09149  -8459755.95846  22401703.394    22401711.237
  22306787.146    -9542272.89649  -7414123.92647  22306786.963    22306796.150
  20221478.374   -21304667.47849 -16576532.05648  20221478.062    20221483.097
  23804525.587    -4674030.38048  -3636096.53044  23804525.408    23804533.264
  21392402.367   -18530119.74349 -14252838.48047  21392401.779    21392410.184
  23075395.490    -5819412.64249  -4517825.51546  23075395.146    23075403.618
  22373053.343   -10920830.17749  -8263027.16446  22373053.088    22373059.958
 03  4  5  1 29 30.0000000  0  9G17G25G31G 3G14G 9G15G23G18
  24230650.062    -5689158.61849  -4424198.68045  24230649.341    24230664.283
                   -657072.64049   -492918.79243
  22404319.202   -10868948.72249  -8449046.07346  22404318.872    22404326.685
  22317641.184    -9485234.92549  -7369678.79047  22317640.988    22317650.147
  20219661.641   -21314214.07249 -16583970.89748  20219661.330    20219666.374
  23813403.043    -4627378.93248  -3599744.67244  23813402.703    23813410.661
  21405786.292   -18459786.51149 -14198033.38347  21405785.733    21405794.165
  23086143.905    -5762929.94149  -4473813.02246  23086143.555    23086151.921
  22384758.425   -10859319.62049  -8215096.86246  22384758.194    22384765.022
 03  4  5  1 30  0.0000000  0  9G17G25G31G 3G14G 9G15G23G18
  24249790.097    -5588577.44849  -4345823.78645  24249789.479    24249804.387
                   -755215.73249   -569416.98143
  22407039.836   -10854651.77849  -8437905.61546  22407039.510    22407047.311
  22328570.137    -9427803.06149  -7324926.72847  22328569.952    22328579.106
  20217944.973   -21323234.90549 -16591000.05648  20217944.668    20217949.722
  23822386.100    -4580172.80658  -3562960.61344  23822386.316    23822393.714
  21419243.516   -18389068.22149 -14142928.23847  21419242.987    21419251.379
  23096900.440    -5706404.57049  -4429767.28146  23096900.099    23096908.332
  22396482.977   -10797706.91249  -8167086.96746  22396482.747    22396489.530
 03  4  5  1 30 30.0000000  0  9G17G25G31G 3G14G 9G15G23G18
  24268968.640    -5487792.66748  -4267290.21345  24268968.124    24268982.843
                   -853407.00449   -645952.71443
  22409865.341   -10839803.27449  -8426335.36146  22409865.023    22409872.841
  22339573.478    -9369979.75249  -7279869.65047  22339573.335    22339582.532
  20216328.237   -21331730.56949 -16597620.00248  20216327.918    20216332.963
  23831473.848    -4532413.05448  -3525745.17644  23831474.077
  21432774.008   -18317965.54949 -14087523.59047  21432773.469    21432781.737
  23107665.037    -5649836.47349  -4385688.25046  23107664.636    23107672.858
  22408227.017   -10735992.15849  -8118997.54946  22408226.727    22408233.533
 03  4  5  1 31  0.0000000  0  8G17G31G 3G14G 9G15G23G18
  24288186.330    -5386803.39449  -4188597.32745  24288185.778    24288200.398
  22412796.026   -10824402.22649  -8414334.55446  22412795.714    22412803.500
  22350651.189    -9311765.37749  -7234507.84846  22350651.057    22350660.353
  20214811.737   -21339699.41049 -16603829.43748  20214811.447    20214816.475
  23840666.255    -4484099.37548  -3488098.15644  23840666.921
  21446377.901   -18246477.13849 -14031818.36547  21446377.342    21446385.490
  23118438.100    -5593223.39649  -4341574.15346  23118437.729    23118445.996
  22419990.698   -10674173.45549  -8070827.14346  22419990.414    22419997.301
 03  4  5  1 31 30.0000000  0  8G25G31G 3G14G 9G15G23G18
                   -764357.74549   -569909.80443
  22415833.325   -10808441.46149  -8401897.60646  22415832.972    22415840.720
  22361804.501    -9253154.16249  -7188836.82146  22361804.355    22361813.713
  20213396.983   -21347134.02849 -16609622.59048  20213396.687    20213401.691
  23849965.967    -4435224.56348  -3450013.82244  23849966.253
  21460056.522   -18174595.93149 -13975807.06247  21460055.962    21460064.079
  23129221.376    -5536556.99049  -4297418.50746  23129221.043    23129229.372
  22431775.810   -10612242.57949  -8022569.31246  22431775.524    22431782.335
 03  4  5  1 32  0.0000000  0  7G25G31G 3G14G15G23G18
                   -862672.61249   -646435.55543
  22418973.656   -10791938.98949  -8389038.53946  22418973.318    22418980.915
  22373029.803    -9194165.35049  -7142871.57146  22373029.604    22373038.898
  20212080.570   -21354051.62349 -16615012.86348  20212080.268    20212085.274
  21473806.578   -18102339.41649 -13919503.31447  21473806.003    21473814.040
  23140011.712    -5479854.04749  -4253234.38446  23140011.283    23140019.653
  22443578.914   -10550216.93349  -7974237.65146  22443578.604    22443585.346
 03  4  5  1 32 30.0000000  0  7G25G31G 3G14G15G23G18
                   -961030.94149   -515182.90843
  22422217.192   -10774894.82549  -8375757.37446  22422216.812    22422224.192
  22384326.617    -9134800.29449  -7096613.15046  22384326.454    22384335.763
  20210862.611   -21360451.86849 -16620000.01348  20210862.301    20210867.304
  21487628.069   -18029707.25249 -13862906.85947  21487627.485    21487635.458
  23150809.145    -5423113.51749  -4209020.97546  23150808.708    23150816.966
  22455400.216   -10488095.57449  -7925831.41346  22455399.960    22455406.589
 03  4  5  1 33  0.0000000  0  7G25G31G 3G14G15G23G18
                  -1059430.14449   -591856.82843
  22425563.406   -10757310.55749  -8362055.34946  22425563.016    22425570.370
  22395694.379    -9075061.96249  -7050063.86546  22395694.263    22395703.616
  20209742.900   -21366335.80749 -16624584.84448  20209742.567    20209747.581
  21501520.688   -17956700.79649 -13806018.74647  21501520.098    21501528.104
  23161613.599    -5366335.55149  -4164778.39146  23161613.169    23161621.406
  22467239.711   -10425878.72949  -7877350.75846  22467239.424    22467246.002
 03  4  5  1 33 30.0000000  0  7G25G31G 3G14G15G23G18
                  -1157863.53749   -668556.70543
  22429012.883   -10739183.00249  -8347929.97646  22429012.508    22429020.003
  22407133.560    -9014948.50249  -7003222.26946  22407133.434    22407142.841
  20208722.094   -21371699.60249 -16628764.37248  20208721.773    20208726.788
  21515485.167   -17883316.63349 -13748836.31547  21515484.590    21515492.686
  23172426.090    -5309515.59649  -4120503.09246  23172425.703    23172433.843
  22479098.077   -10363562.51349  -7828792.68346  22479097.834    22479104.450
 03  4  5  1 34  0.0000000  0  7G25G31G 3G14G15G23G18
                  -1256325.36549   -537133.99543
  22432566.088   -10720510.28249  -8333379.78846  22432565.728    22432573.381
  22418644.182    -8954459.38549  -6956087.96146  22418644.066    22418653.516
  20207800.825   -21376540.97049 -16632536.81448  20207800.511    20207805.487
  21529522.062   -17809552.56349 -13691357.85547  21529521.472    21529529.586
  23183247.196    -5252650.45449  -4076192.58646  23183246.782    23183255.042
  22490975.933   -10301144.07149  -7780154.95546  22490975.741    22490982.279
 03  4  5  1 34 30.0000000  0  7G25G31G 3G14G15G23G18
                  -1354812.41549   -613876.85643
  22436222.781   -10701293.34749  -8318405.53546  22436222.447    22436230.311
  22430225.929    -8893596.83549  -6908662.66446  22430225.818    22430235.273
  20206978.858   -21380860.31249 -16635902.48748  20206978.540    20206983.476
  21543631.247   -17735409.02849 -13633583.70347  21543630.645    21543638.669
  23194076.843    -5195739.75649  -4031846.58946  23194076.455    23194084.906
  22502873.393   -10238622.99449  -7731437.25546  22502873.185    22502879.586
 03  4  5  1 35  0.0000000  0  7G25G31G 3G14G15G23G18
                  -1453322.41049   -690637.32043
  22439982.794   -10681533.51749  -8303008.23146  22439982.494    22439990.599
  22441878.386    -8832363.62049  -6860948.54546  22441878.240    22441887.623
  20206256.077   -21384658.36449 -16638861.95648  20206255.760    20206260.659
  21557812.355   -17660887.43749 -13575514.96547  21557811.747    21557819.715
  23204915.195    -5138783.32949  -3987464.96846  23204914.802    23204923.469
  22514790.360   -10175999.69249  -7682639.89946  22514790.075    22514796.390
 03  4  5  1 35 30.0000000  0  7G25G31G 3G14G15G23G18
                  -1551854.15749   -767414.66244                  24253780.414
  22443845.645   -10661233.86649  -8287190.29046  22443845.320    22443853.538
  22453600.525    -8770764.13349  -6812949.01346  22453600.336    22453609.661
  20205632.033   -21387937.78249 -16641417.29248  20205631.702    20205636.550
  21572064.896   -17585990.34849 -13517153.62947  21572064.261    21572072.237
  23215762.035    -5081782.96349  -3943049.11446  23215761.632    23215770.273
  22526726.295   -10113276.17749  -7633764.46846  22526726.032    22526732.294
 03  4  5  1 36  0.0000000  0  7G25G31G 3G14G15G23G18
  24235013.956    -1650404.51149   -844206.48745  24235013.319    24235026.780
  22447811.019   -10640395.12149  -8270952.26846  22447810.704    22447819.062
  22465391.821    -8708800.22649  -6764665.52746  22465391.633    22465400.993
  20205106.616   -21390698.68249 -16643568.59148  20205106.286    20205111.076
  21586388.694   -17510718.14249 -13458499.99347  21586388.055    21586396.092
  23226617.470    -5024737.91549  -3898598.46346  23226617.018    23226625.500
  22538681.339   -10050451.99449  -7584810.60846  22538681.085    22538687.365
 03  4  5  1 36 30.0000000  0  7G25G31G 3G14G15G23G18
  24216256.702    -1748972.30349   -921011.91845  24216253.976    24216269.926
  22451878.479   -10619020.20949  -8254296.47046  22451878.149    22451886.527
  22477251.590    -8646476.15749  -6716101.39846  22477251.463    22477260.855
  20204679.418   -21392943.43649 -16645317.70248  20204679.092    20204683.804
  21600783.335   -17435073.32349 -13399556.00947  21600782.729    21600790.871
  23237481.032    -4967649.53049  -3854114.04046  23237480.667    23237489.018
  22550655.222    -9987529.08549  -7535779.81346  22550654.976    22550661.265
 03  4  5  1 37  0.0000000  0  7G25G31G 3G14G15G23G18
  24197496.861    -1847553.45049   -997827.76945  24197495.063    24197510.459
  22456048.097   -10597109.05749  -8237222.80546  22456047.732    22456056.057
  22489179.747    -8583792.95349  -6667257.41146  22489179.654    22489189.069
  20204350.545   -21394671.41849 -16646664.12548  20204350.220    20204354.911
  21615249.078   -17359055.22049 -13340321.15347  21615248.475    21615256.702
  23248353.094    -4910516.09849  -3809594.51446  23248352.770    23248361.079
  22562648.100    -9924505.97849  -7486670.96246  22562647.844    22562654.068
 03  4  5  1 37 30.0000000  0  7G25G31G 3G14G15G23G18
  24178734.712    -1946146.10649  -1074652.62245  24178733.331    24178748.715
  22460319.288   -10574663.95349  -8219733.08446  22460318.944    22460327.156
  22501175.838    -8520754.25749  -6618136.42046  22501175.720    22501185.018
  20204119.598   -21395884.36349 -16647609.22948  20204119.309    20204124.046
  21629785.530   -17282666.00849 -13280797.12647  21629784.941    21629793.157
  23259233.772    -4853338.58749  -3765040.66046  23259233.387    23259241.542
  22574659.846    -9861383.79649  -7437484.90246  22574659.539    22574665.692
 03  4  5  1 38  0.0000000  0  7G25G31G 3G14G15G23G18
  24159970.355    -2044750.37349  -1151486.49845  24159969.352    24159984.750
  22464691.382   -10551688.90549  -8201830.42446  22464691.028    22464699.077
  22513238.551    -8457365.39049  -6568742.56746  22513238.359    22513247.617
  20203986.065   -21396585.64449 -16648155.63148  20203985.772    20203990.511
  21644391.876   -17205909.19649 -13220986.65047  21644391.320    21644399.479
  23270122.434    -4796119.44149  -3720454.35946  23270122.009    23270129.987
  22586689.818    -9798165.35549  -7388223.83746  22586689.530    22586695.760
 03  4  5  1 38 30.0000000  0  7G25G31G 3G14G15G23G18
  24141205.052    -2143359.69449  -1228324.35645  24141204.332    24141219.802
  22469164.695   -10528181.49549  -8183512.93146  22469164.301    22469172.372
  22525368.036    -8393625.00649  -6519074.81546  22525367.852    22525377.128
  20203950.552   -21396772.22549 -16648300.96348  20203950.236    20203954.960
  21659068.734   -17128782.05049 -13160887.60447  21659068.169    21659076.347
  23281019.643    -4738854.54149  -3675832.40646  23281019.186    23281027.069
  22598738.931    -9734846.80649  -7338884.75946  22598738.609    22598744.948
 03  4  5  1 39  0.0000000  0  7G25G31G 3G14G15G23G18
  24122439.308    -2241972.28749  -1305164.76345  24122438.904    24122454.131
  22473738.787   -10504144.18549  -8164782.51946  22473738.484    22473746.556
  22537563.628    -8329536.75149  -6469135.96146  22537563.460    22537572.830
  20204012.534   -21396446.28949 -16648046.92948  20204012.204    20204016.914
  21673815.570   -17051286.69549 -13100501.63947  21673815.000    21673823.210
  23291925.377    -4681544.70249  -3631175.43546  23291924.946    23291932.693
  22610806.833    -9671429.32649  -7289468.58346  22610806.514    22610812.971
 03  4  5  1 39 30.0000000  0  7G25G31G 3G14G15G23G18
  24103673.166    -2340586.89649  -1382006.73445  24103672.815    24103688.050
  22478413.313   -10479579.91649  -8145641.50846  22478412.989    22478421.022
  22549824.659    -8265104.55149  -6418929.11246  22549824.501    22549834.002
  20204171.623   -21395609.94149 -16647395.18248  20204171.323    20204176.030
  21688632.028   -16973425.72849 -13039830.78947  21688631.463    21688639.696
  23302839.465    -4624191.15749  -3586484.41246  23302839.030    23302846.616
  22622893.337    -9607914.36049  -7239976.44046  22622893.057    22622899.515
 03  4  5  1 40  0.0000000  0  7G25G31G 3G14G15G23G18
  24084907.587    -2439199.51849  -1458847.19245  24084907.087    24084922.187
  22483188.029   -10454488.64349  -8126089.84146  22483187.713    22483195.702
  22562150.968    -8200329.91149  -6368455.41846  22562150.808    22562160.279
  20204427.971   -21394262.73249 -16646345.35548  20204427.676    20204432.325
  21703518.185   -16895198.53549 -12978874.56847  21703517.597    21703525.793
  23313762.180    -4566792.19649  -3541758.00046  23313761.769    23313769.269
  22634998.694    -9544300.65149  -7190407.33846  22634998.407    22635004.858
 03  4  5  1 40 30.0000000  0  7G25G31G 3G14G15G23G18
  24066142.521    -2537809.18749  -1535685.35045  24066142.047    24066156.929
  22488062.265   -10428874.24949  -8106130.54846  22488061.949    22488069.943
  22574541.467    -8135217.59849  -6317718.60746  22574541.320    22574550.815
  20204780.963   -21392407.80549 -16644899.91248  20204780.661    20204785.238
  21718473.394   -16816608.52249 -12917635.63847  21718472.814    21718480.975
  23324693.135    -4509349.99049  -3496997.89046  23324692.721    23324700.363
  22647122.257    -9480590.71849  -7140763.24846  22647121.974    22647128.504
 03  4  5  1 41  0.0000000  0  7G25G31G 3G14G15G23G18
  24047378.725    -2636411.09549  -1612517.46445  24047378.367    24047393.194
  22493036.195   -10402736.01749  -8085763.07746  22493035.865    22493043.938
  22586996.074    -8069768.06949  -6266719.01946  22586995.948    22587005.599
  20205230.822   -21390044.02149 -16643057.95048  20205230.520    20205235.003
  21733497.929   -16737654.35049 -12856112.94247  21733497.363    21733505.502
  23335632.718    -4451862.12149  -3452202.17946  23335632.248    23335640.068
  22659264.429    -9416782.55649  -7091042.59546  22659264.198    22659270.890
 03  4  5  1 41 30.0000000  0  7G25G31G 3G14G15G23G18
  24028616.658    -2735003.42349  -1689342.12145  24028616.306    24028631.136
  22498109.427   -10376075.93149  -8064988.96546  22498109.113    22498117.203
  22599514.372    -8003984.56749  -6215459.20146  22599514.242    22599523.837
  20205777.190   -21387172.61349 -16640820.44448  20205776.862    20205781.351
  21748591.434   -16658337.71049 -12794307.80947  21748590.874    21748598.976
  23346580.870    -4394328.85649  -3407371.09446  23346580.439    23346588.466
  22671425.277    -9352877.02249  -7041246.07546  22671424.989    22671431.801
 03  4  5  1 42  0.0000000  0  7G25G31G 3G14G15G23G18
  24009856.839    -2833583.98149  -1766157.60445  24009856.613    24009871.435
  22503281.588   -10348896.27649  -8043809.99946  22503281.253    22503289.368
  22612095.638    -7937870.51149  -6163941.80946  22612095.462    22612104.990
  20206419.777   -21383795.31049 -16638188.72748  20206419.457    20206423.992
  21763753.506   -16578660.35449 -12732221.60947  21763752.977    21763761.074
  23357537.590    -4336750.60749  -3362504.95746  23357537.183    23357545.226
  22683604.699    -9288874.23649  -6991373.77046  22683604.387    22683611.175
 03  4  5  1 42 30.0000000  0  8G11G25G31G 3G14G15G23G18
                  -1133078.46949   -868615.36944                  24416963.695
  23991099.874    -2932149.73549  -1842961.56745  23991099.788    23991114.526
  22508552.203   -10321198.66049  -8022227.43346  22508551.854    22508560.060
  22624739.084    -7871428.48049  -6112168.85346  22624738.899    22624748.515
  20207158.457   -21379913.16249 -16635163.63348  20207158.156    20207162.704
  21778984.038   -16498623.62949 -12669855.37947  21778983.503    21778991.587
  23368502.918    -4279127.33549  -3317603.72146  23368502.523    23368510.617
  22695802.599    -9224774.35949  -6941425.80546  22695802.283    22695809.001
 03  4  5  1 43  0.0000000  0  8G11G25G31G 3G14G15G23G18
  24398040.634    -1232471.12849   -946064.04845  24398040.848    24398050.710
  23972346.312    -3030697.42049  -1919751.47145  23972346.211    23972361.098
  22513921.123   -10292983.87949  -8000241.88346  22513920.767    22513929.004
  22637444.493    -7804660.43949  -6060141.86346  22637444.413    22637454.072
  20207993.185   -21375526.30549 -16631745.26048  20207992.888    20207997.432
  21794282.972   -16418227.69949 -12607209.23947  21794282.392    21794290.453
  23379476.916    -4221458.03249  -3272666.61046  23379476.565    23379484.850
  22708019.043    -9160577.05349  -6891401.91846  22708018.745    22708025.369
 03  4  5  1 43 30.0000000  0  8G11G25G31G 3G14G15G23G18
  24379143.102    -1331781.82749  -1023448.86345  24379144.360    24379151.333
  23953596.340    -3129226.65549  -1996526.99645  23953596.321    23953611.116
  22519387.739   -10264256.11349  -7977856.61446  22519387.393    22519395.668
  22650211.232    -7737571.55649  -6007864.87346  22650211.115    22650220.754
  20208923.350   -21370638.28049 -16627936.36548  20208923.054    20208927.574
  21809649.411   -16337476.06749 -12544285.92347  21809648.874    21809656.989
  23390459.356    -4163744.82749  -3227695.29346  23390459.042    23390467.285
  22720253.477    -9096284.87149  -6841304.10446  22720253.196    22720259.796
 03  4  5  1 44  0.0000000  0  8G11G25G31G 3G14G15G23G18
  24360261.213    -1431007.95849  -1100767.76645  24360261.502    24360269.278
  23934850.662    -3227733.89149  -2073285.38845  23934850.688    23934865.352
  22524951.974   -10235016.14949  -7955072.24546  22524951.640    22524959.850
  22663038.678    -7670163.55249  -5955339.22046  22663038.535    22663048.120
  20209948.822   -21365249.43049 -16623737.21648  20209948.514    20209953.041
  21825083.563   -16256369.19549 -12481085.80347  21825083.039    21825091.129
  23401450.462    -4105986.68149  -3182688.95046  23401450.093    23401458.150
  22732506.163    -9031897.07849  -6791131.77546  22732505.834    22732512.443
 03  4  5  1 44 30.0000000  0  8G11G25G31G 3G14G15G23G18
  24341395.903    -1530146.36149  -1178018.30545  24341396.102    24341403.900
  23916109.962    -3326215.46249  -2150023.78045  23916109.942    23916124.452
  22530613.632   -10205264.81149  -7931889.39046  22530613.241    22530621.252
  22675926.472    -7602438.51049  -5902566.51346  22675926.313    22675935.840
  20211069.537   -21359359.85249 -16619147.89348  20211069.248    20211073.748
  21840585.302   -16174907.23749 -12417608.98447  21840584.768    21840592.792
  23412450.278    -4048182.54449  -3137646.76146  23412449.918    23412457.773
  22744777.082    -8967412.90849  -6740884.34946  22744776.809    22744783.377
 03  4  5  1 45  0.0000000  0  8G11G25G31G 3G14G15G23G18
  24322547.815    -1629194.43049  -1255198.48245  24322547.900    24322555.792
  23897374.712    -3424668.42649  -2226739.89045  23897374.602    23897388.857
  22536372.125   -10175003.27049  -7908308.99146  22536371.784    22536379.673
  22688874.118    -7534398.77549  -5849548.59346  22688873.949    22688883.434
  20212285.461   -21352970.11649 -16614168.83948  20212285.166    20212289.620
  21856154.391   -16093091.06749 -12353856.16147  21856153.870    21856161.914
  23423458.952    -3990331.52749  -3092568.05845  23423458.577    23423466.356
  22757066.499    -8902831.97649  -6690561.53546  22757066.151    22757072.693
 03  4  5  1 45 30.0000000  0  8G11G25G31G 3G14G15G23G18
  24303717.169    -1728150.34749  -1332306.84945  24303717.147    24303724.958
  23878645.467    -3523089.84349  -2303431.43845  23878645.339    23878659.348
  22542227.463   -10144233.27349  -7884332.38846  22542227.131    22542234.926
  22701881.208    -7466046.97049  -5796287.48746  22701881.024    22701890.365
  20213596.315   -21346081.32649 -16608800.91048  20213595.999    20213600.462
  21871790.712   -16010921.91549 -12289828.28747  21871790.195    21871798.229
  23434476.535    -3932433.53749  -3047452.74645  23434476.140    23434483.943
  22769374.187    -8838154.23349  -6640163.28446  22769373.931    22769380.384
 03  4  5  1 46  0.0000000  0  8G11G25G31G 3G14G15G23G18
  24284904.566    -1827011.58349  -1409341.43145  24284904.410    24284912.254
  23859922.782    -3621476.67049  -2380096.01945  23859922.561    23859936.290
  22548179.309   -10112956.47449  -7859960.88546  22548178.961    22548186.729
  22714947.134    -7397385.76049  -5742785.30246  22714946.949    22714956.085
  20215001.925   -21338694.74349 -16603045.09148  20215001.606    20215006.132
  21887493.994   -15928400.67749 -12225526.05947  21887493.464    21887501.549
  23445503.176    -3874488.30849  -3002300.60845  23445502.736    23445510.514
  22781700.157    -8773380.00249  -6589689.83746  22781699.958    22781706.447
 03  4  5  1 46 30.0000000  0  8G11G25G31G 3G14G15G23G18
  24266109.930    -1925777.81549  -1486301.96645  24266109.742    24266117.612
  23841206.749    -3719827.96749  -2456732.92645  23841206.557    23841220.110
  22554226.884   -10081176.45149  -7835197.26346  22554226.534    22554234.221
  22728070.919    -7328419.51149  -5689045.41446  22728070.744    22728079.862
  20216501.720   -21330812.98449 -16596903.41648  20216501.388    20216505.955
  21903263.706   -15845530.51149 -12160951.93647  21903263.157    21903271.333
  23456538.557    -3816497.21549  -2957112.74345  23456538.127    23456545.842
  22794044.306    -8708510.68249  -6539142.30946  22794044.121    22794050.646
 03  4  5  1 47  0.0000000  0  8G11G25G31G 3G14G15G23G18
  24247333.949    -2024445.89149  -1563186.05545  24247333.691    24247341.649
  23822498.141    -3818139.88649  -2533339.16745  23822498.109    23822511.423
  22560370.172   -10048893.68049  -7810041.88246  22560369.781    22560377.457
  22741252.502    -7259149.79449  -5635069.06346  22741252.328    22741261.503
  20218095.731   -21322435.99049 -16590375.84848  20218095.414    20218100.018
  21919099.930   -15762311.15549 -12096105.71347  21919099.343    21919107.543
  23467582.948    -3758458.73049  -2911887.94945  23467582.461    23467590.263
  22806406.842    -8643545.23849  -6488519.88646  22806406.633    22806413.221
 03  4  5  1 47 30.0000000  0  8G11G25G31G 3G14G15G23G18
  24228576.908    -2123013.92149  -1639992.16945  24228576.696    24228584.718
  23803797.540    -3916409.97349  -2609912.81745  23803797.485    23803810.797
  22566608.567   -10016110.21249  -7784496.34846  22566608.212    22566615.990
  22754491.371    -7189579.60649  -5580858.58646  22754491.163    22754500.348
  20219783.711   -21313565.24849 -16583463.54448  20219783.415    20219788.045
  21935002.243   -15678744.26549 -12030988.68347  21935001.624    21935009.895
  23478636.255    -3700372.91449  -2866626.30045  23478635.848    23478643.743
  22818787.682    -8578484.21649  -6437822.98946  22818787.382    22818793.995
 03  4  5  1 48  0.0000000  0  8G11G25G31G 3G14G15G23G18
  24209839.636    -2221478.87749  -1716717.98245  24209839.417    24209847.246
  23785105.750    -4014634.18749  -2686450.74345  23785105.655    23785118.960
  22572942.085    -9982827.02049  -7758561.40946  22572941.748    22572949.752
  22767786.944    -7119711.13349  -5526415.66546  22767786.749    22767795.881
  20221565.602   -21304201.08949 -16576166.75548  20221565.302    20221569.912
  21950970.423   -15594830.49249 -11965601.35147  21950969.830    21950978.268
  23489698.938    -3642238.75249  -2821326.97145  23489698.440    23489706.374
  22831186.703    -8513326.78049  -6387050.95046  22831186.348    22831193.087
 03  4  5  1 48 30.0000000  0  8G11G25G31G 3G14G15G23G18
  24191121.874    -2319841.51249  -1793364.05645  24191121.665    24191129.372
  23766422.677    -4112812.65749  -2762953.03745  23766422.589    23766435.738
  22579369.882    -9949048.78349  -7732240.73446  22579369.538    22579377.655
  22781138.188    -7049549.91349  -5471744.64746  22781137.957    22781147.192
  20223440.625   -21294347.61549 -16568488.67948  20223440.334    20223444.879
  21967003.915   -15510573.89549 -11899946.88547  21967003.310    21967011.854
  23500770.197    -3584058.74949  -2775991.91345  23500769.746    23500777.754
  22843603.442    -8448075.57049  -6336205.85146  22843603.083    22843609.949
 03  4  5  1 49  0.0000000  0  8G11G25G31G 3G14G15G23G18
  24172424.266    -2418097.63849  -1869927.12245  24172424.010    24172431.702
  23747749.213    -4210941.02449  -2839416.28145  23747749.086    23747762.116
  22585891.815    -9914775.60649  -7705534.38646  22585891.483    22585899.641
  22794544.833    -6979097.01349  -5416846.32846  22794544.645    22794554.057
  20225408.964   -21284004.12449 -16560428.77148  20225408.661    20225413.147
  21983102.833   -15425973.64949 -11834024.64147  21983102.215    21983110.825
  23511850.496    -3525830.99449  -2730619.64745  23511850.045    23511858.074
  22856038.398    -8382728.93149  -6285286.41546  22856038.084    22856044.920
 03  4  5  1 49 30.0000000  0  8G11G25G31G 3G14G15G23G18
  24153747.531    -2516244.06549  -1946404.71045  24153747.288    24153755.018
  23729086.154    -4309015.16149  -2915837.27945  23729085.866    23729098.743
  22592507.856    -9880008.09049  -7678442.84246  22592507.552    22592515.704
  22808006.784    -6908354.05149  -5361721.99746  22808006.615    22808016.104
  20227470.452   -21273170.78049 -16551987.16248  20227470.124    20227474.611
  21999267.008   -15341029.93949 -11767834.75547  21999266.455    21999275.124
  23522940.201    -3467553.73349  -2685208.79245  23522939.698    23522947.889
  22868491.839    -8317285.95049  -6234291.89246  22868491.552    22868498.295
 03  4  5  1 50  0.0000000  0  8G11G25G31G 3G14G15G23G18
  24135091.677    -2614281.32049  -2022797.24745  24135091.404    24135099.115
  23710433.310    -4407035.15949  -2992216.10645  23710432.990    23710445.659
  22599217.165    -9844750.87649  -7650969.71146  22599216.798    22599224.902
  22821522.867    -6837326.48349  -5306375.90446  22821522.698    22821532.301
  20229624.483   -21261851.27649 -16543166.72748  20229624.163    20229628.557
  22015495.898   -15255746.81949 -11701380.40347  22015495.329    22015503.950
  23534038.816    -3409229.59649  -2639761.42245  23534038.394    23534046.725
  22880963.133    -8251749.23449  -6183224.32846  22880962.809    22880969.432
 03  4  5  1 50 30.0000000  0  8G11G25G31G 3G14G15G23G18
  24116457.234    -2712205.51249  -2099101.66545  24116456.964    24116464.441
  23691791.632    -4504996.19649  -3068548.98945  23691791.414    23691803.872
  22606019.599    -9809003.95149  -7623114.97846  22606019.228    22606027.344
  22835092.947    -6766015.14249  -5250808.68746  22835092.794    22835102.402
  20231871.188   -21250044.95349 -16533966.95448  20231870.837    20231875.174
  22031789.616   -15170123.42349 -11634660.89947  22031789.020    22031797.526
  23545146.928    -3350856.26249  -2594275.72145  23545146.465    23545154.883
  22893452.490    -8186117.10749  -6132082.42346  22893452.213    22893458.773
 03  4  5  1 51  0.0000000  0  8G11G25G31G 3G14G15G23G18
  24097844.536    -2810015.17949  -2175316.85545  24097844.250    24097851.675
  23673161.411    -4602896.33649  -3144834.42045  23673161.262    23673173.682
  22612914.652    -9772770.08749  -7594880.81546  22612914.305    22612922.406
  22848716.493    -6694423.46349  -5195023.00846  22848716.342    22848725.850
  20234209.989   -21237754.07049 -16524389.59848  20234209.658    20234214.010
  22048147.439   -15084162.05249 -11567678.03947  22048146.865    22048155.348
  23556264.173    -3292434.23049  -2548752.06546  23556263.768    23556272.255
  22905960.028    -8120390.16349  -6080866.64846  22905959.644    22905966.156
 03  4  5  1 51 30.0000000  0  8G11G25G31G 3G14G15G23G18
  24079253.855    -2907708.70849  -2251441.53845  24079253.511    24079261.008
  23654543.231    -4700733.16849  -3221070.50545  23654543.221    23654555.570
  22619901.903    -9736051.73049  -7566269.11746  22619901.538    22619909.615
  22862392.808    -6622554.91149  -5139021.59446  22862392.605    22862402.012
  20236640.710   -21224980.49449 -16514436.13148  20236640.375    20236644.722
  22064569.360   -14997864.57149 -11500433.27547  22064568.757    22064577.187
  23567390.711    -3233963.73249  -2503190.64546  23567390.365    23567398.831
  22918485.420    -8054569.00249  -6029577.43746  22918485.013    22918491.491
 03  4  5  1 52  0.0000000  0  8G11G25G31G 3G14G15G23G18
  24060685.754    -3005283.31649  -2327473.56445  24060685.404    24060692.970
  23635937.797    -4798503.40849  -3297254.72045  23635937.852    23635950.126
  22626981.094    -9698850.33249  -7537281.02446  22626980.717    22626988.824
  22876121.237    -6550411.81149  -5082806.23946  22876121.071    22876130.459
  20239163.158   -21211724.84149 -16504107.01948  20239162.809    20239167.163
  22081055.045   -14911231.77049 -11432927.22846  22081054.444    22081062.848
  23578526.681    -3175443.97149  -2457590.81846  23578526.276    23578534.729
  22931028.703    -7988653.24749  -5978214.52946  22931028.350    22931034.831
 03  4  5  1 52 30.0000000  0  8G11G25G31G 3G14G15G23G18
  24042140.601    -3102736.82949  -2403411.22445  24042140.334    24042148.154
  23617345.609    -4896204.63249  -3373385.16745  23617345.563    23617357.805
  22634151.854    -9661168.02749  -7507918.19746  22634151.493    22634159.544
  22889901.430    -6477997.17949  -5026379.30646  22889901.271    22889910.618
  20241776.979   -21197988.68049 -16493403.48348  20241776.650    20241781.032
  22097604.318   -14824265.15149 -11365161.05146  22097603.737    22097612.040
  23589672.115    -3116874.91549  -2411952.58346  23589671.650    23589680.089
  22943590.057    -7922642.91049  -5926777.91246  22943589.704    22943596.219
 03  4  5  1 53  0.0000000  0  8G11G25G31G 3G14G15G23G18
  24023618.951    -3200066.82949  -2479252.63845  24023618.726    24023626.695
  23598767.155    -4993833.54149  -3449459.25145  23598767.114    23598779.244
  22641413.799    -9623006.66949  -7478182.07946  22641413.445    22641421.440
  22903732.781    -6405313.58749  -4969742.80146  22903732.566    22903741.927
  20244482.073   -21183773.12949 -16482326.39748  20244481.747    20244486.154
  22114216.953   -14736965.84949 -11297135.65346  22114216.347    22114224.542
  23600827.017    -3058256.01449  -2366275.51546  23600826.568    23600834.979
  22956169.506    -7856537.33449  -5875267.06646  22956169.205    22956175.714
 03  4  5  1 53 30.0000000  0  8G11G25G31G 3G14G15G23G18
  24005121.065    -3297272.28849  -2554997.00745  24005120.831    24005128.858
  23580202.815    -5091388.03449  -3525475.35845  23580202.716    23580214.838
  22648766.427    -9584368.93749  -7448074.76146  22648766.065    22648773.929
  22917614.430    -6332364.58049  -4912899.46246  22917614.276    22917623.747
  20247277.997   -21169080.20249 -16470877.33248  20247277.671    20247282.094
  22130892.454   -14649336.06349 -11228852.74146  22130891.812    22130900.001
  23611991.339    -2999587.80249  -2320560.02646  23611990.879    23611999.189
  22968766.861    -7790337.93749  -5823683.11946  22968766.544    22968773.045
 03  4  5  1 54  0.0000000  0  8G11G25G31G 3G14G15G23G18
  23986647.421    -3394349.81149  -2630641.68545  23986647.400    23986655.334
  23561653.231    -5188864.52049  -3601430.68045  23561653.227    23561665.165
  22656209.435    -9545256.02749  -7417597.17046  22656209.053    22656216.908
  22931546.180    -6259152.30849  -4855850.99546  22931546.021    22931555.673
  20250164.659   -21153910.41749 -16459056.68948  20250164.343    20250168.699
  22147630.664   -14561376.13849 -11160312.56946  22147630.035    22147638.255
  23623165.256    -2940868.96049  -2274805.06846  23623164.833    23623172.943
  22981382.116    -7724044.10349  -5772025.58846  22981381.810    22981388.342
 03  4  5  1 54 30.0000000  0  8G11G25G31G 3G14G15G23G18
  23968198.409    -3491297.57249  -2706185.26145  23968198.423    23968206.598
  23543118.991    -5286260.48249  -3677323.26645  23543119.058    23543130.997
  22663742.335    -9505670.34149  -7386751.18246  22663741.988    22663749.868
  22945527.464    -6185679.62849  -4798599.60746  22945527.372    22945537.202
  20253141.813   -21138265.40149 -16446865.73448  20253141.482    20253145.759
  22164431.316   -14473087.79349 -11091516.48946  22164430.744    22164439.020
  23634348.792    -2882099.48749  -2229010.67346  23634348.302    23634356.343
  22994015.499    -7657655.48349  -5720294.18346  22994015.194    22994021.711
 03  4  5  1 55  0.0000000  0  8G11G25G31G 3G14G15G23G18
  23949774.477    -3588113.43649  -2781626.06945  23949774.617    23949783.061
  23524600.689    -5383573.02549  -3753150.84345  23524600.808    23524612.651
  22671364.850    -9465614.05849  -7355538.49246  22671364.451    22671372.400
  22959557.783    -6111949.57449  -4741147.67246  22959557.719    22959567.674
  20256209.018   -21122146.82249 -16434305.76548  20256208.699    20256213.029
  22181294.283   -14384472.45349 -11022465.60746  22181293.720    22181302.019
  23645541.895    -2823279.31149  -2183176.77546  23645541.413    23645549.496
  23006666.753    -7591172.81449  -5668489.51546  23006666.406    23006672.961
 03  4  5  1 55 30.0000000  0  8G11G25G31G 3G14G15G23G18
  23931375.828    -3684797.49549  -2856964.16945  23931376.003    23931384.489
  23506098.459    -5480802.02249  -3828913.32545  23506098.467    23506110.199
  22679075.950    -9425091.63149  -7323962.58246  22679075.533    22679083.565
  22973636.247    -6037967.30849  -4683499.20546  22973636.132    22973646.001
  20259365.654   -21105558.34749 -16421379.64448  20259365.353    20259369.722
  22198218.720   -14295534.15749 -10953163.07346  22198218.173    22198226.514
  23656744.399    -2764410.35949  -2137304.86946  23656743.887    23656751.833
  23019335.411    -7524598.10849  -5616613.12146  23019335.116    23019341.737
 03  4  5  1 56  0.0000000  0  8G11G25G31G 3G14G15G23G18
  23913003.578    -3781343.66949  -2932194.83645  23913003.652    23913012.431
  23487613.487    -5577940.55249  -3904605.30745  23487613.434    23487624.958
  22686875.960    -9384101.29449  -7292022.05146  22686875.603    22686883.752
  22987762.730    -5963732.20349  -4625653.71146  22987762.623    22987772.490
  20262612.255   -21088497.63749 -16408085.54748  20262611.936    20262616.231
  22215205.143   -14206270.27149 -10883606.82146  22215204.564    22215212.947
  23667956.929    -2705488.42049  -2091391.68445  23667956.385    23667964.285
  23032022.248    -7457927.91349  -5564662.32446  23032021.973    23032028.711
 03  4  5  1 56 30.0000000  0  8G11G25G31G 3G14G15G23G18
  23894657.485    -3877752.61149  -3007318.57145  23894657.593    23894666.240
  23469145.691    -5674988.69949  -3980226.87445  23469145.559    23469156.955
  22694764.180    -9342648.04849  -7259720.81846  22694763.862    22694771.996
  23001936.363    -5889249.63849  -4567615.40446  23001936.230    23001946.211
  20265947.918   -21070968.63449 -16394426.54648  20265947.567    20265951.861
  22232252.730   -14116685.11149 -10813800.24246  22232252.132    22232260.473
  23679178.919    -2646516.17749  -2045439.31245  23679178.406    23679186.294
  23044726.927    -7391164.83649  -5512639.16046  23044726.618    23044733.255
 03  4  5  1 57  0.0000000  0  8G11G25G31G 3G14G15G23G18
  23876338.108    -3974021.52049  -3082333.19745  23876338.145    23876346.727
  23450695.600    -5771943.45449  -4055775.67245  23450695.452    23450706.628
  22702740.304    -9300733.76549  -7227060.32346  22702739.980    22702748.026
  23016156.720    -5814522.24349  -4509386.31446  23016156.516    23016166.587
  20269372.335   -21052972.71549 -16380403.72748  20269372.016    20269376.383
  22249361.333   -14026779.77549 -10743744.17846  22249360.658    22249368.928
  23690410.582    -2587493.08049  -1999447.29845  23690410.090    23690418.017
  23057449.394    -7324308.74349  -5460543.51546  23057449.010    23057455.478
 03  4  5  1 57 30.0000000  0  8G11G25G31G 3G14G15G23G18
  23858046.258    -4070146.27749  -3157235.50145  23858046.208    23858054.661
  23432264.197    -5868799.94249  -4131247.88245  23432264.112    23432274.969
  22710804.143    -9258358.57949  -7194040.68146  22710803.808    22710811.745
  23030423.380    -5739550.97849  -4450967.20946  23030423.190    23030433.384
  20272885.740   -21034509.27949 -16366016.60248  20272885.424    20272889.804
  22266530.864   -13936553.71949 -10673438.19246  22266530.162    22266538.334
  23701652.510    -2528416.58249  -1953413.67945  23701652.048    23701659.917
  23070189.890    -7257357.44449  -5408373.67246  23070189.510    23070195.888
 03  4  5  1 58  0.0000000  0  8G11G25G31G 3G14G15G23G18
  23839781.895    -4166127.13549  -3232025.66745  23839781.763    23839789.922
  23413851.582    -5965557.51849  -4206643.02645  23413851.489    23413862.182
  22718954.795    -9215526.64149  -7160665.12046  22718954.456    22718962.319
  23044735.413    -5664340.77649  -4392361.91046  23044735.241    23044745.512
  20276487.475   -21015581.76149 -16351267.85148  20276487.150    20276491.539
  22283760.579   -13846010.43449 -10602885.01846  22283759.924    22283768.108
  23712904.085    -2469288.39749  -1907339.77745  23712903.718    23712911.695
  23082948.091    -7190312.80749  -5356131.09846  23082947.708    23082954.095
 03  4  5  1 58 30.0000000  0  8G11G25G31G 3G14G15G23G18
  23821545.190    -4261962.68349  -3306702.59545  23821544.967    23821552.954
  23395458.227    -6062214.04549  -4281959.40945  23395458.202    23395468.707
  22727191.672    -9172241.48249  -7126936.40446  22727191.293    22727199.153
  23059092.273    -5588895.69649  -4333573.59546  23059092.063    23059102.257
  20280176.968   -20996192.85549 -16336159.58748  20280176.666    20280181.092
  22301050.151   -13755152.55349 -10532086.70446  22301049.525    22301057.740
  23724165.523    -2410109.47349  -1861226.32645  23724165.102    23724173.087
  23095723.747    -7123176.15549  -5303816.81546  23095723.433    23095729.696
 03  4  5  1 59  0.0000000  0  8G11G25G31G 3G14G15G23G18
  23803336.912    -4357648.74649  -3381263.03945  23803336.633    23803344.412
  23377084.942    -6158765.17649  -4357193.66846  23377084.951    23377095.365
  22735514.841    -9128503.42949  -7092854.78146  22735514.411    22735522.187
  23073493.496    -5513216.65749  -4274602.98046  23073493.313    23073503.583
  20283954.372   -20976342.39249 -16320691.66848  20283954.051    20283958.461
  22318399.653   -13663979.96149 -10461043.17546  22318399.074    22318407.244
  23735436.997    -2350877.65649  -1815071.67245  23735436.579    23735444.415
  23108517.321    -7055945.74449  -5251429.49846  23108516.987    23108523.260
 03  4  5  1 59 30.0000000  0  8G11G25G31G 3G14G15G23G18
  23785157.600    -4453182.19749  -3455704.56145  23785157.288    23785164.771
  23358732.378    -6255207.09649  -4432342.82746  23358732.356    23358742.773
  22743923.823    -9084313.71849  -7058421.21046  22743923.429    22743931.191
  23087938.694    -5437305.87649  -4215451.77346  23087938.553    23087948.938
  20287819.538   -20956030.65449 -16304864.31448  20287819.215    20287823.607
  22335809.100   -13572492.90149 -10389754.60346  22335808.482    22335816.657
  23746718.751    -2291591.56849  -1768874.72845  23746718.339    23746726.071
  23121328.878    -6988620.65349  -5198968.38345  23121328.458    23121334.928
 03  4  5  2  0  0.0000000  0  8G11G25G31G 3G14G15G23G18
  23767007.238    -4548562.64549  -3530026.84845  23767006.964    23767014.192
  23340400.689    -6351538.99549  -4507406.23246  23340400.647    23340411.137
  22752417.971    -9039676.60349  -7023639.01946  22752417.549    22752425.338
  23102427.265    -5361167.87949  -4156123.51346  23102427.172    23102437.510
  20291771.746   -20935261.55749 -16288680.57048  20291771.439    20291775.812
  22353277.687   -13480694.88649 -10318223.71546  22353277.118    22353285.280
  23758010.467    -2232252.95149  -1722636.83245  23758010.032    23758017.684
  23134157.911    -6921202.86949  -5146435.05745  23134157.477    23134164.166
 03  4  5  2  0 30.0000000  0  8G11G25G31G 3G14G15G23G18
  23748886.549    -4643786.92749  -3604227.44945  23748886.298    23748893.573
  23322090.626    -6447756.74349  -4582380.70446  23322090.594    23322101.226
  22760996.974    -8994593.24349  -6988509.09246  22760996.560    22761004.423
  23116958.853    -5284804.44049  -4096619.59346  23116958.732    23116969.026
  20295811.011   -20914035.10649 -16272140.44948  20295810.703    20295815.025
  22370805.391   -13388586.37449 -10246450.89546  22370804.834    22370813.013
  23769312.516    -2172860.29249  -1676356.83545  23769312.137    23769319.566
  23147004.940    -6853691.05049  -5093828.42845  23147004.572    23147011.203
 03  4  5  2  1  0.0000000  0  8G11G25G31G 3G14G15G23G18
  23730795.973    -4738852.51349  -3678304.39245  23730795.792    23730802.997
  23303802.868    -6543857.60349  -4657264.07946  23303802.844    23303813.588
  22769660.454    -8949065.83149  -6953033.17446  22769660.093    22769668.029
  23131532.790    -5208218.63249  -4036942.38746  23131532.653    23131542.883
  20299936.984   -20892353.08849 -16255245.33548  20299936.656    20299940.954
  22388391.943   -13296168.84349 -10174437.26146  22388391.339    22388399.574
  23780624.924    -2113413.27449  -1630034.47345  23780624.496    23780631.838
  23159869.916    -6786085.17349  -5041148.52445  23159869.525    23159876.111
 03  4  5  2  1 30.0000000  0  8G11G25G31G 3G14G15G23G18
  23712736.321    -4833755.98849  -3752255.02045  23712736.234    23712743.329
  23285538.090    -6639837.74049  -4732053.39746  23285538.068    23285548.822
  22778408.334    -8903095.65849  -6917212.24746  22778407.966    22778415.913
  23146148.748    -5131412.25649  -3977093.33046  23146148.604    23146158.649
  20304149.531   -20870215.88349 -16237995.53348  20304149.210    20304153.507
  22406037.117   -13203442.84749 -10102183.28246  22406036.474    22406044.849
  23791947.820    -2053910.42749  -1583668.60545  23791947.467    23791954.704
  23172752.894    -6718384.49949  -4988394.75145  23172752.447    23172759.162
 03  4  5  2  2  0.0000000  0  8G11G25G31G 3G14G15G23G18
  23694707.388    -4928498.60349  -3826080.31245  23694707.296    23694714.200
  23267296.221    -6735697.60149  -4806748.99346  23267296.187    23267306.888
  22787239.458    -8856688.45549  -6881050.77446  22787239.053    22787246.968
  23160805.415    -5054391.51249  -3917077.21846  23160805.238    23160815.195
  20308447.781   -20847628.34849 -16220394.82548  20308447.444    20308451.749
  22423740.116   -13110413.01249 -10029692.54146  22423739.448    22423747.949
  23803280.878    -1994354.83249  -1537261.61845  23803280.471    23803287.723
  23185653.382    -6650592.09049  -4935569.48545  23185652.976    23185659.727
 03  4  5  2  2 30.0000000  0  8G11G25G31G 3G14G15G23G18
  23676709.618    -5023077.19449  -3899777.79645  23676709.445    23676716.239
  23249077.960    -6831433.71349  -4881348.16746  23249077.919    23249088.518
  22796153.290    -8809845.60649  -6844549.83646  22796152.902    22796160.827
  23175502.388    -4977158.56949  -3856895.76546  23175502.263    23175512.106
  20312831.545   -20824591.29949 -16202443.84548  20312831.210    20312835.500
  22441500.641   -13017080.55249  -9956965.98046  22441500.013    22441508.563
  23814624.211    -1934745.26749  -1490812.58945  23814623.759    23814631.086
  23198571.385    -6582707.17149  -4882672.14945  23198571.084    23198577.696
 03  4  5  2  3  0.0000000  0  8G11G25G31G 3G14G15G23G18
  23658743.564    -5117488.71249  -3973345.10045  23658743.413    23658750.040
  23230884.041    -6927042.15349  -4955847.86346  23230884.005    23230894.326
  22805149.803    -8762568.72749  -6807710.70346  22805149.413    22805157.242
  23190239.458    -4899715.17849  -3796550.31546  23190239.272    23190249.036
  20317300.684   -20801105.48349 -16184143.18148  20317300.366    20317304.672
  22459318.759   -12923445.78749  -9884003.85646  22459318.128    22459326.724
  23825978.000    -1875080.51149  -1444320.53745  23825977.579    23825985.008
  23211507.014    -6514729.03349  -4829702.17445  23211506.818    23211513.360
 03  4  5  2  3 30.0000000  0  8G11G25G31G 3G14G15G23G18
  23640810.103    -5211729.26049  -4046779.18445  23640810.027    23640816.448
  23212715.251    -7022518.69249  -5030244.78346  23212715.142    23212725.182
  22814228.839    -8714858.51649  -6770533.90646  22814228.428    22814236.033
  23205016.089    -4822062.93449  -3736042.11746  23205015.902    23205025.722
  20321855.258   -20777170.87849 -16165492.81348  20321854.953    20321859.233
  22477194.235   -12829508.89349  -9810806.29246  22477193.603    22477202.306
  23837342.701    -1815358.57749  -1397783.94745  23837342.402    23837349.895
  23224460.631    -6446656.02149  -4776658.26645  23224460.431    23224467.070
 03  4  5  2  4  0.0000000  0  8G11G25G31G 3G14G15G23G18
  23622909.131    -5305799.59249  -4120080.63145  23622909.110    23622915.307
  23194571.500    -7117863.49749  -5104539.06446  23194571.393    23194581.125
  22823389.158    -8666720.50549  -6733023.77146  22823388.727    22823396.234
  23219831.362    -4744208.02549  -3675376.01246  23219831.166    23219841.036
  20326494.425   -20752792.04049 -16146496.28448  20326494.101    20326498.306
  22495126.302   -12735274.54949  -9737376.95346  22495125.689    22495134.492
  23848717.697    -1755582.43749  -1351205.10145  23848717.437    23848724.964
  23237431.980    -6378491.22849  -4723542.86145  23237431.730    23237438.271
 03  4  5  2  4 30.0000000  0  8G11G25G31G 3G14G15G23G18
  23605041.476    -5399695.27549  -4193245.98545  23605041.340    23605047.403
  23176453.647    -7213071.78749  -5178726.95946  23176453.546    23176463.109
  22832630.849    -8618154.89749  -6695180.43546  22832630.439    22832637.877
  23234685.109    -4666150.99949  -3614552.40346  23234684.992    23234694.738
  20331218.125   -20727968.72749 -16127153.41448  20331217.801    20331221.997
  22513115.226   -12640742.06549  -9663715.30146  22513114.595    22513123.428
  23860103.536    -1695749.47549  -1304581.99745  23860103.194    23860110.716
  23250421.385    -6310232.04849  -4670353.87945  23250421.128    23250427.448
 03  4  5  2  5  0.0000000  0  8G11G25G31G 3G14G15G23G18
  23587207.087    -5493415.64949  -4266274.74345  23587206.997    23587212.927
  23158361.962    -7308142.23049  -5252807.45246  23158361.831    23158371.326
  22841953.162    -8569165.89049  -6657007.18746  22841952.705    22841960.153
  23249576.547    -4587896.49749  -3553574.91846  23249576.334    23249586.073
  20336025.757   -20702704.29049 -16107466.80648  20336025.423    20336029.621
  22531160.270   -12545914.66749  -9589823.84346  22531159.653    22531168.460
  23871500.048    -1635860.96349  -1257915.59345  23871499.605    23871507.106
  23263428.467    -6241880.18949  -4617092.68745  23263428.104    23263434.265
 03  4  5  2  5 30.0000000  0  8G11G25G31G 3G14G15G23G18
  23569406.401    -5586958.57649  -4339165.21845  23569406.260    23569412.261
  23140296.931    -7403072.18349  -5326778.48146  23140296.837    23140306.336
  22851355.552    -8519755.88749  -6618505.89746  22851355.136    22851362.537
  23264504.746    -4509447.57249  -3492445.93246  23264504.529    23264514.433
  20340916.980   -20677000.49749 -16087437.84848  20340916.656    20340920.821
  22549261.215   -12450794.18349  -9515704.02446  22549260.601    22549269.249
  23882906.932    -1575916.61449  -1211205.70345  23882906.458    23882914.294
  23276453.105    -6173436.11049  -4563759.63445  23276452.707    23276458.785
 03  4  5  2  6  0.0000000  0  8G11G25G31G 3G14G15G23G18
  23551640.500    -5680318.17649  -4411912.84145  23551640.389    23551646.580
  23122259.987    -7497855.12849  -5400634.96746  23122259.893    23122269.324
  22860838.349    -8469923.80249  -6579675.71446  22860837.911    22860845.237
  23279470.198    -4430803.28249  -3431164.70846  23279469.998    23279480.011
  20345892.208   -20650855.43949 -16067065.04448  20345891.882    20345896.008
  22567418.333   -12355378.86249  -9441354.44546  22567417.682    22567426.135
  23894325.071    -1515912.59549  -1164449.30845  23894324.693    23894332.633
  23289495.969    -6104896.18849  -4510351.89845  23289495.597    23289501.502
 03  4  5  2  6 30.0000000  0  8G11G25G31G 3G14G15G23G18
  23533909.013    -5773497.11049  -4484519.68345  23533908.814    23533915.300
  23104250.579    -7592493.61349  -5474378.90146  23104250.491    23104259.822
  22870399.925    -8419677.35749  -6540522.64546  22870399.462    22870406.922
  23294471.439    -4351972.02249  -3369737.80046  23294471.223    23294481.027
  20350950.108   -20624275.96249 -16046353.73048  20350949.771    20350953.850
  22585630.214   -12259675.39449  -9366780.34146  22585629.564    22585637.953
  23905753.845    -1455853.83149  -1117650.25145  23905753.412    23905761.534
  23302556.023    -6036265.67549  -4456873.55345  23302555.706    23302561.488
 03  4  5  2  7  0.0000000  0  8G11G25G31G 3G14G15G23G18
  23516212.986    -5866489.49249  -4556981.16345  23516212.825    23516219.477
  23086270.041    -7686980.80449  -5548004.94346  23086269.938    23086279.161
  22880040.487    -8369015.17949  -6501045.62946  22880040.028    22880047.727
  23309508.357    -4272952.97949  -3308164.55746  23309508.144    23309517.925
  20356091.053   -20597259.93449 -16025302.25248  20356090.722    20356094.792
  22603897.155   -12163681.89749  -9291980.22746  22603896.538    22603904.931
  23917193.727    -1395736.18449  -1070805.32945  23917193.372    23917201.625
  23315633.853    -5967540.59049  -4403321.52645  23315633.474    23315639.550
 03  4  5  2  7 30.0000000  0  8G11G25G31G 3G14G15G23G18
  23498552.612    -5959294.29449  -4629296.47145  23498552.491    23498559.328
  23068318.615    -7781315.26949  -5621512.00046  23068318.486    23068327.592
  22889759.455    -8317940.95049  -6461247.53846  22889759.040    22889766.892
  23324580.138    -4193750.25149  -3246448.20046  23324580.009    23324589.742
  20361314.551   -20569810.10949 -16003912.75248  20361314.235    20361318.302
  22622218.711   -12067401.01249  -9216956.17446  22622218.144    22622226.674
  23928644.634    -1335560.45349  -1023915.13445  23928644.323    23928652.645
  23328729.550    -5898722.00649  -4349696.66045  23328729.147    23328735.364
 03  4  5  2  8  0.0000000  0  8G11G25G31G 3G14G15G23G18
  23480928.403    -6051909.18949  -4701463.80145  23480928.282    23480935.255
  23050396.749    -7875494.12549  -5694897.78446  23050396.653    23050405.619
  22899556.487    -8266457.34949  -6421130.46446  22899556.047    22899563.909
  23339686.397    -4114367.00549  -3184591.17746  23339686.182    23339695.895
  20366620.239   -20541928.46449 -15982186.76848  20366619.902    20366623.946
  22640594.741   -11970834.44649  -9141709.50346  22640594.163    22640602.765
  23940106.948    -1275326.38249   -976979.49645  23940106.609    23940114.732
  23341842.986    -5829810.28949  -4295999.20845  23341842.609    23341848.865
 03  4  5  2  8 30.0000000  0  8G11G25G31G 3G14G15G23G18
  23463340.505    -6144333.47349  -4773482.59645  23463340.437    23463347.332
  23032504.687    -7969516.53449  -5768161.67846  23032504.589    23032513.495
  22909430.607    -8214568.43149  -6380697.54746  22909430.191    22909438.090
  23354825.974    -4034807.69449  -3122596.95646  23354825.811    23354835.507
  20372007.419   -20513618.47749 -15960127.00348  20372007.083    20372011.107
  22659024.641   -11873985.51549  -9066242.80846  22659024.024    22659032.647
  23951580.139    -1215035.22149   -929999.36545  23951579.766    23951587.492
  23354973.802    -5760806.97649  -4242230.39545  23354973.429    23354979.792
 03  4  5  2  9  0.0000000  0  8G11G25G31G 3G14G15G23G18
  23445790.044    -6236562.13349  -4845348.97245  23445789.877    23445796.597
  23014643.467    -8063376.91049  -5841299.31546  23014643.374    23014652.149
  22919381.901    -8162274.23949  -6339948.85446  22919381.512    22919389.287
  23369999.013    -3955072.72749  -3060465.84646  23369998.807    23370008.600
  20377476.251   -20484879.32649 -15937732.83448  20377475.907    20377479.957
  22677508.467   -11776853.46549  -8990555.51446  22677507.837    22677516.351
  23963064.672    -1154683.96849   -882972.39845  23963064.216    23963071.793
  23368122.571    -5691709.53149  -4188388.23645  23368122.226    23368128.703
 03  4  5  2  9 30.0000000  0  8G11G25G31G 3G14G15G23G18
  23428276.971    -6328593.94449  -4917061.94645  23428276.752    23428283.347
  22996813.461    -8157073.24349  -5914309.13546  22996813.368    22996822.044
  22929409.704    -8109578.10649  -6298886.94246  22929409.310    22929416.966
  23385204.777    -3875165.68249  -2998200.65546  23385204.589    23385214.564
  20383026.274   -20455713.36149 -15915006.08048  20383025.945    20383030.019
  22696045.671   -11679440.65149  -8914649.43746  22696045.044    22696053.440
  23974560.549    -1094273.23049   -835899.08445  23974560.107    23974567.552
  23381289.160    -5622518.68049  -4134473.29546  23381288.821    23381295.452
 03  4  5  2 10  0.0000000  0  8G11G25G31G 3G14G15G23G18
  23410801.891    -6420426.28749  -4988619.49445  23410801.620    23410808.134
  22979015.214    -8250602.50549  -5987188.75346  22979015.139    22979023.685
  22939513.479    -8056482.39749  -6257513.68146  22939513.076    22939520.764
  23400442.760    -3795089.50249  -2935803.66746  23400442.630    23400452.697
  20388657.251   -20426122.22249 -15891948.02048  20388656.927    20388660.977
  22714635.909   -11581748.69049  -8838525.84246  22714635.265    22714643.620
  23986067.856    -1033802.35149   -788778.92145  23986067.351    23986074.902
  23394473.680    -5553234.05249  -4080485.25946  23394473.333    23394480.029
 03  4  5  2 10 30.0000000  0  8G11G25G31G 3G14G15G23G18
  23393364.482    -6512059.88649  -5060022.18345  23393364.171    23393370.669
  22961248.780    -8343964.80349  -6059938.28946  22961248.659    22961257.091
  22949692.319    -8002992.71549  -6215833.42246  22949691.878    22949699.659
  23415711.844    -3714850.23849  -2873279.59446  23415711.680    23415721.840
  20394368.259   -20396110.78749 -15868562.46148  20394367.903    20394371.943
  22733278.188   -11483782.28349  -8762188.39546  22733277.580    22733285.988
  23997586.009     -973273.89149   -741613.87345  23997585.478    23997593.108
  23407675.470    -5483858.87649  -4026426.66046  23407675.064    23407681.731
 03  4  5  2 11  0.0000000  0  8G11G25G31G 3G14G15G23G18
  23375966.140    -6603488.05149  -5131264.78545  23375965.856    23375972.319
  22943515.406    -8437153.25549  -6132552.37146  22943515.275    22943523.642
  22959946.431    -7949107.42949  -6173844.90846  22959946.050    22959953.783
  23431012.230    -3634446.40849  -2810627.29746  23431012.038    23431022.299
  20400159.592   -20365676.44849 -15844847.36948  20400159.254    20400163.378
  22751973.271   -11385539.02249  -8685635.22346  22751972.687    22751981.104
  24009115.945     -912683.44749   -694400.52645  24009115.425    24009122.916
  23420895.304    -5414388.71549  -3972294.06345  23420894.861    23420901.440
 03  4  5  2 11 30.0000000  0  8G11G25G31G 3G14G15G23G18
  23358606.739    -6694711.85649  -5202348.15745  23358606.464    23358612.813
  22925814.916    -8530168.46649  -6205031.46246  22925814.799    22925823.162
  22970274.778    -7894832.53949  -6131552.79146  22970274.390    22970282.009
  23446342.692    -3553884.42449  -2747851.76846  23446342.455    23446352.907
  20406030.403   -20334824.59849 -15820806.93948  20406030.099    20406034.300
  22770720.147   -11287023.83549  -8608870.15946  22770719.548    22770727.973
  24020657.187     -852034.08949   -647141.26245  24020656.725    24020664.174
  23434132.468    -5344827.12749  -3918090.21945  23434132.068    23434138.600
 03  4  5  2 12  0.0000000  0  8G11G25G31G 3G14G15G23G18
  23341287.374    -6785725.22149  -5273267.53745  23341287.084    23341293.374
  22908148.730    -8623003.67749  -6277370.29446  22908148.570    22908156.978
  22980677.490    -7840166.75849  -6088956.08746  22980677.048    22980684.562
  23461703.490    -3473163.39149  -2684952.30446  23461703.221    23461713.769
  20411981.187   -20303553.04549 -15796439.46448  20411980.870    20411985.073
  22789519.186   -11188234.68449  -8531891.61946  22789518.485    22789526.882
  24032210.491     -791321.57349   -599832.78145  24032209.957    24032217.535
  23447387.745    -5275170.04149  -3863811.95745  23447387.382    23447393.742
 03  4  5  2 12 30.0000000  0  8G11G25G31G 3G14G15G23G18
  23324007.724    -6876529.47149  -5344023.98245  23324007.456    23324013.822
  22890516.533    -8715659.91949  -6349569.68046  22890516.396    22890524.863
  22991153.142    -7785116.57049  -6046059.85246  22991152.677    22991160.333
  23477093.284    -3392290.20349  -2621934.27846  23477092.996    23477103.426
  20418010.714   -20271867.46249 -15771749.37348  20418010.396    20418014.638
  22808369.099   -11089177.43549  -8454704.17146  22808368.376    22808376.723
  24043775.020     -730549.39349   -552477.79845  24043774.551    24043782.190
  23460660.331    -5205421.23849  -3809462.22945  23460659.993    23460666.365
 03  4  5  2 13  0.0000000  0  8G11G25G31G 3G14G15G23G18
  23306768.981    -6967118.66049  -5414612.84445  23306768.789    23306775.199
  22872919.553    -8808130.79149  -6421624.62246  22872919.488    22872927.998
  23001702.059    -7729680.88049  -6002863.22146  23001701.663    23001709.431
  23492512.047    -3311264.04749  -2558797.05446  23492511.803    23492522.214
  20424119.425   -20239765.93449 -15746735.16748  20424119.117    20424123.397
  22827270.450   -10989849.94749  -8377306.15946  22827269.700    22827278.110
  24055351.665     -669713.55149   -505073.22545  24055351.168    24055359.007
  23473950.750    -5135577.28449  -3755038.34545  23473950.563    23473957.213
 03  4  5  2 13 30.0000000  0  8G11G25G31G 3G14G15G23G18
  23289571.199    -7057492.84149  -5485034.16446  23289571.026    23289577.562
  22855357.978    -8900415.97249  -6493534.87946  22855357.916    22855366.485
  23012323.551    -7673864.74349  -5959370.13546  23012323.150    23012330.980
  23507958.865    -3230089.85349  -2495544.47546  23507958.659    23507969.193
  20430306.504   -20207252.65349 -15721400.11548  20430306.183    20430310.449
  22846222.523   -10890256.21749  -8299700.67646  22846221.800    22846230.163
  24066939.870     -608815.96449   -457620.54145  24066939.336    24066947.418
  23487258.993    -5065640.24849  -3700541.93045  23487258.769    23487265.941
 03  4  5  2 14  0.0000000  0  8G11G25G31G 3G14G15G23G18
  23272414.588    -7147650.42849  -5555286.71646  23272414.513    23272421.126
  22837832.235    -8992513.48949  -6565298.90446  22837832.148    22837840.722
  23023016.698    -7617671.58649  -5915583.25846  23023016.278    23023024.210
  23523433.249    -3148771.71749  -2432179.72846  23523433.016    23523443.534
  20436571.381   -20174330.42549 -15695746.39948  20436571.036    20436575.282
  22865224.701   -10790399.07249  -8221889.94446  22865223.954    22865232.366
  24078539.810     -547857.06249   -410120.06645  24078539.264    24078547.652
  23500584.921    -4995611.12049  -3645973.74245  23500584.724    23500592.027
 03  4  5  2 14 30.0000000  0  8G11G25G31G 3G14G15G23G18
  23255300.433    -7237585.46449  -5625365.84346  23255300.311    23255306.989
  22820343.404    -9084416.63849  -6636911.46746  22820343.296    22820351.862
  23033781.720    -7561100.47949  -5871501.89146  23033781.325    23033789.317
  23538935.167    -3067308.94049  -2368702.28646  23538934.895    23538945.464
  20442914.419   -20140997.29549 -15669772.50448  20442914.095    20442918.311
  22884277.335   -10690276.45849  -8143872.34646  22884276.585    22884285.114
  24090152.236     -486832.89749   -362568.71645  24090151.686    24090160.190
  23513929.095    -4925486.12249  -3591330.88245  23513928.847    23513936.157
 03  4  5  2 15  0.0000000  0  8G11G25G31G 3G14G15G23G18
  23238228.186    -7327300.88549  -5695273.84546  23238227.950    23238234.592
  22802891.110    -9176127.69449  -6708374.35946  22802891.018    22802899.541
  23044617.167    -7504159.21049  -5827132.07546  23044616.784    23044624.853
  23554462.909    -2985709.74049  -2305118.51946  23554462.704    23554473.380
  20449334.393   -20107260.27749 -15643483.89248  20449334.031    20449338.237
  22903379.181   -10589895.27449  -8065653.26646  22903378.421    22903387.015
  24101776.108     -425748.28149   -314970.27945  24101775.658    24101784.084
  23527290.710    -4855270.37249  -3536617.29945  23527290.476    23527297.622
 03  4  5  2 15 30.0000000  0  8G11G25G31G 3G14G15G23G18
  23221198.610    -7416791.91949  -5765006.98846  23221198.409    23221204.746
  22785476.130    -9267642.26549  -6779684.15446  22785476.054    22785484.521
  23055522.858    -7446848.44949  -5782474.32246  23055522.514    23055530.613
  23570016.657    -2903974.73749  -2241428.96046  23570016.407    23570027.137
  20455831.244   -20073119.10449 -15616880.35148  20455830.903    20455835.076
  22922530.149   -10489255.57849  -7987232.75546  22922529.453    22922538.130
  24113412.125     -364600.79249   -267322.85945  24113411.683    24113419.908
  23540670.172    -4784961.79349  -3481831.35545  23540669.883    23540676.890
 03  4  5  2 16  0.0000000  0  8G11G25G31G 3G14G15G23G18
  23204212.744    -7506053.54249  -5834561.39846  23204212.518    23204218.722
  22768099.632    -9358954.61149  -6850836.36746  22768099.613    22768108.048
  23066499.076    -7389167.95449  -5737528.48346  23066498.685    23066506.722
  23585596.181    -2822104.12849  -2177633.73146  23585595.902    23585606.549
  20462405.193   -20038572.73949 -15589961.08148  20462404.862    20462408.996
  22941730.549   -10388356.06249  -7908609.78346  22941729.921    22941738.692
  24125060.538     -303387.16949   -219623.91045  24125060.159    24125068.388
  23554067.816    -4714557.52249  -3426970.87545  23554067.439    23554074.374
 03  4  5  2 16 30.0000000  0  8G11G25G31G 3G14G15G23G18
  23187270.205    -7595087.13749  -5903938.10146  23187269.957    23187276.071
  22750761.532    -9450065.44149  -6921831.57346  22750761.566    22750769.916
  23077544.351    -7331124.32249  -5692299.68146  23077543.989    23077551.978
  23601200.086    -2740104.76849  -2113738.14945  23601199.849    23601210.452
  20469055.193   -20003626.93849 -15562730.57248  20469054.858    20469058.888
  22960979.417   -10287202.21749  -7829788.62346  22960978.835    22960987.647
  24136720.815     -242110.80949   -171876.07445  24136720.467    24136728.899
  23567483.021    -4644061.07549  -3372038.55945  23567482.491    23567489.287
 03  4  5  2 17  0.0000000  0  8G11G25G31G 3G14G15G23G18
  23170371.471    -7683890.15949  -5973135.14246  23170371.176    23170377.199
  22733462.513    -9540971.83549  -6992667.47146  22733462.522    22733470.709
  23088658.234    -7272719.98349  -5646789.80146  23088657.905    23088665.797
  23616827.951    -2657979.34749  -2049744.36345  23616827.751    23616838.338
  20475780.945   -19968283.42049 -15535190.14848  20475780.592    20475784.545
  22980276.554   -10185795.93249  -7750770.75346  22980275.966    22980284.574
  24148393.191     -180771.15249   -124078.92445  24148392.796    24148401.483
  23580915.699    -4573472.44949  -3317034.43545  23580915.272    23580921.808
 03  4  5  2 17 30.0000000  0  8G11G25G31G 3G14G15G23G18
  23153517.694    -7772456.94849  -6042148.10946  23153517.394    23153523.298
  22716203.547    -9631667.78149  -7063339.38246  22716203.490    22716211.530
  23099841.042    -7213954.22749  -5600998.28746  23099840.683    23099848.392
  23632479.995    -2575727.31149  -1985651.90845  23632479.775    23632490.356
  20482582.583   -19932540.61149 -15507338.59248  20482582.213    20482586.115
  22999622.099   -10084135.43749  -7671554.80946  22999621.453    22999629.919
  24160078.511     -119364.29849    -76229.38045  24160077.986    24160086.902
  23594366.676    -4502788.08549  -3261955.68745  23594366.280    23594372.595
 03  4  5  2 18  0.0000000  0  8G11G25G31G 3G14G15G23G18
  23136708.617    -7860788.19249  -6110977.55146  23136708.370    23136714.127
  22698984.570    -9722153.78949  -7133847.71346  22698984.450    22698992.354
  23111091.297    -7154833.08649  -5554929.85446  23111090.965    23111098.635
  23648155.149    -2493354.90549  -1921465.66545  23648154.902    23648165.378
  20489459.203   -19896403.46749 -15479179.75548  20489458.843    20489462.779
  23019014.951    -9982226.03049  -7592144.90246  23019014.258    23019022.644
  24171775.993      -57893.14449    -28329.75645  24171775.528    24171784.618
  23607835.374    -4432011.17149  -3206804.81445  23607834.866    23607840.877
 03  4  5  2 18 30.0000000  0  8G11G25G31G 3G14G15G23G18
  23119944.779    -7948882.08949  -6179622.04046  23119944.545    23119950.237
  22681805.863    -9812427.40349  -7204190.53646  22681805.723    22681813.611
  23122408.581    -7095359.90749  -5508587.10546  23122408.290    23122416.031
  23663852.671    -2410865.46249  -1857188.21746  23663852.385    23663862.676
  20496410.338   -19859874.63549 -15450715.70548  20496409.971    20496413.976
  23038454.680    -9880069.91249  -7512542.76246  23038454.010    23038462.374
  24183485.604        3642.03849     19619.76145  24183485.202    24183494.349
  23621321.294    -4361142.23049  -3151582.27345  23621320.829    23621326.654
 03  4  5  2 19  0.0000000  0  8G11G25G31G 3G14G15G23G18
  23103227.085    -8036733.83649  -6248077.84746  23103226.829    23103232.420
  22664668.566    -9902483.41549  -7274363.82046  22664668.437    22664676.318
  23133792.952    -7035534.92649  -5461970.23846  23133792.628    23133800.414
  23679572.275    -2328259.59049  -1792820.05146  23679571.943    23679582.076
  20503436.105   -19822953.50249 -15421945.97248  20503435.747    20503439.778
  23057941.440    -9777666.49449  -7432747.90346  23057940.770    23057949.125
  24195207.919       65244.10949     67621.40645  24195207.616    24195216.631
  23634824.989    -4290178.94849  -3096286.18745  23634824.582    23634830.244
 03  4  5  2 19 30.0000000  0  8G11G25G31G 3G14G15G23G18
  23086555.908    -8124340.97649  -6316343.06446  23086555.620    23086561.269
  22647573.232    -9992318.76349  -7344365.15546  22647573.142    22647581.016
  23145243.593    -6975360.68049  -5415081.20646  23145243.262    23145251.183
  23695313.334    -2245539.77149  -1728363.09646  23695313.056    23695323.018
  20510536.288   -19785641.69249 -15392871.81848  20510535.922    20510539.938
  23077474.859    -9675017.26849  -7352761.51946  23077474.168    23077482.574
  24206943.328      126913.72749    115675.68445  24206942.942    24206951.838
  23648346.858    -4219121.03949  -3040916.37545  23648346.331    23648351.868
 03  4  5  2 20  0.0000000  0  8G11G25G31G 3G14G15G23G18
  23069930.874    -8211705.49849  -6384419.22746  23069930.590    23069936.269
  22630519.558   -10081935.09949  -7414195.84446  22630519.538    22630527.404
  23156759.298    -6914844.49849  -5367925.72746  23156759.020    23156767.058
  23711074.712    -2162713.56549  -1663823.22946  23711074.375    23711084.178
  20517709.615   -19747945.50749 -15363498.14948  20517709.245    20517713.209
  23097053.649    -9572128.77149  -7272588.68346  23097053.063    23097061.500
  24218690.948      188646.64649    163779.27345  24218690.539    24218699.065
  23661885.908    -4147972.89549  -2985476.25445  23661885.338    23661890.965
 03  4  5  2 20 30.0000000  0  8G11G25G31G 3G14G15G23G18
  23053353.562    -8298819.21749  -6452299.96646  23053353.276    23053359.000
  22613509.178   -10171324.17349  -7483849.44746  22613509.154    22613517.004
  23168340.788    -6853983.22849  -5320501.34946  23168340.492    23168348.616
  23726856.922    -2079777.96749  -1599198.13746  23726856.619    23726866.392
  20524956.798   -19709861.29949 -15333822.12348  20524956.428    20524960.321
  23116678.738    -9468996.95849  -7192226.24646  23116678.207    23116686.783
  24230451.934      250449.08949    211937.04345  24230451.447    24230459.653
  23675443.331    -4076728.28949  -2929960.95745  23675442.722    23675448.368
 03  4  5  2 21  0.0000000  0  8G11G25G31G 3G14G15G23G18
  23036824.198    -8385680.86149  -6519984.28946  23036823.929    23036829.600
  22596542.315   -10260484.54149  -7553324.84946  22596542.250    22596550.038
  23179987.170    -6792781.01849  -5272811.31846  23179986.849    23179994.954
  23742659.045    -1996737.46849  -1534491.29046  23742658.730    23742668.575
  20532277.226   -19671392.09449 -15303846.09948  20532276.851    20532280.747
  23136349.797    -9365624.93849  -7111676.64445  23136349.259    23136357.773
  24242225.788      312320.24449    260148.35145  24242225.326    24242233.277
  23689019.008    -4005388.69549  -2874371.65745  23689018.393    23689024.007
 03  4  5  2 21 30.0000000  0  8G11G25G31G 3G14G15G23G18
  23020342.190    -8472293.36949  -6587474.48346  23020341.950    23020347.635
  22579618.560   -10349418.30549  -7622623.67346  22579618.496    22579626.251
  23191697.087    -6731245.69449  -5224861.73646  23191696.712    23191704.629
  23758479.515    -1913599.90849  -1469708.80646  23758479.267    23758489.180
  20539669.549   -19632544.93449 -15273575.56548  20539669.183    20539673.115
  23156065.335    -9262019.68149  -7030945.29445  23156064.759    23156073.227
  24254011.635      374255.39049    308409.53045  24254011.148    24254019.015
  23702611.614    -3933959.29349  -2818712.36645  23702611.084    23702616.789
 03  4  5  2 22  0.0000000  0  8G11G25G31G 3G14G15G23G18
  23003909.228    -8558648.36649  -6654764.02646  23003909.005    23003914.680
  22562739.566   -10438116.66749  -7691739.07546  22562739.541    22562747.288
  23203470.997    -6669374.02549  -5176650.06246  23203470.512    23203478.380
  23774319.189    -1830362.21349  -1404848.30346  23774318.971    23774328.803
  20547134.652   -19593315.56549 -15243007.20748  20547134.305    20547138.186
  23175825.938    -9158176.97749  -6950028.91945  23175825.340    23175833.866
  24265810.702      436261.01449    356725.62045  24265810.310    24265818.340
  23716222.199    -3862433.90449  -2762978.28845  23716221.762    23716227.722
 03  4  5  2 22 30.0000000  0  8G11G25G31G 3G14G15G23G18
  22987525.310    -8644745.93249  -6721852.97846  22987525.098    22987530.768
  22545905.441   -10526579.71449  -7760671.12246  22545905.425    22545913.112
  23215307.691    -6607171.67349  -5128180.73246  23215307.227    23215315.074
  23790176.980    -1747029.85449  -1339914.03846  23790176.733    23790186.591
  20554671.517   -19553709.02849 -15212144.95648  20554671.147    20554675.060
  23195630.803    -9054101.43349  -6868931.11145  23195630.179    23195638.842
  24277622.761      498334.56749    405094.63945  24277622.312    24277630.643
  23729850.640    -3790815.07049  -2707171.38845  23729850.217    23729856.384
 03  4  5  2 23  0.0000000  0  8G11G25G31G 3G14G15G23G18
  22971191.194    -8730581.86149  -6788738.03646  22971190.996    22971196.730
  22529117.052   -10614802.93749  -7829416.28746  22529116.957    22529124.566
  23227207.063    -6544639.85049  -5079454.65846  23227206.649    23227214.512
  23806052.364    -1663604.31349  -1274907.15446  23806052.093    23806062.096
  20562280.036   -19513725.50649 -15180988.95148  20562279.670    20562283.675
  23215479.816    -8949793.81949  -6787652.46245  23215479.218    23215487.966
  24289448.287      560478.03949    453518.15745  24289447.914    24289456.103
  23743497.329    -3719100.93949  -2651290.21245  23743496.889    23743503.178
 03  4  5  2 23 30.0000000  0  8G11G25G31G 3G14G15G23G18
  22954906.635    -8816157.64949  -6855420.40346  22954906.459    22954912.148
  22512374.123   -10702787.02649  -7897975.12546  22512374.018    22512381.484
  23239168.012    -6481784.78549  -5030476.70346  23239167.638    23239175.450
  23821944.218    -1580091.99449  -1209832.66146  23821943.962    23821954.051
  20569959.292   -19473370.21749 -15149543.25148  20569958.964    20569963.033
  23235372.052    -8845259.17349  -6706196.90345  23235371.547    23235380.306
  24301286.446      622688.23549    501993.63345  24301286.039    24301294.175
  23757161.628    -3647295.40349  -2595337.83745  23757161.289    23757167.267
 03  4  5  2 24  0.0000000  0  8G11G25G31G 3G14G15G23G18
  22938672.830    -8901467.34649  -6921895.41846  22938672.647    22938678.226
  22495677.867   -10790525.61649  -7966342.66346  22495677.787    22495685.124
  23251190.769    -6418605.64249  -4981246.20846  23251190.356    23251198.025
  23837852.742    -1496492.06649  -1144689.89046  23837852.498    23837862.681
  20577709.702   -19432641.66849 -15117806.69948  20577709.368    20577713.417
  23255307.790    -8740495.72549  -6624563.05045  23255307.345    23255316.205
  24313138.115      684969.37049    550524.40745  24313137.555    24313145.707
  23770843.987    -3575394.55649  -2539311.19445  23770843.577    23770849.424
 03  4  5  2 24 30.0000000  0  8G11G25G31G 3G14G15G23G18
  22922489.739    -8986510.01549  -6988162.36046  22922489.531    22922495.112
  22479028.552   -10878017.75249  -8034518.17646  22479028.503    22479035.714
  23263274.414    -6355106.93049  -4931766.71046  23263273.920    23263281.587
  23853776.984    -1412808.92449  -1079482.29446  23853776.784    23853787.009
  20585530.501   -19391543.40049 -15085782.06048  20585530.144    20585534.137
  23275286.459    -8635507.06449  -6542753.71845  23275286.005    23275294.981
  24325003.359      747320.19449    599109.45845  24325002.820    24325010.641
  23784544.182    -3503400.25149  -2483211.72445  23784543.692    23784549.323
 03  4  5  2 25  0.0000000  0  8G11G25G31G 3G14G15G23G18
  22906357.821    -9071283.88049  -7054219.84246  22906357.619    22906363.193
  22462426.508   -10965261.32649  -8102499.99546  22462426.436    22462433.570
  23275417.940    -6291292.08249  -4882040.86746  23275417.554    23275425.321
  23869716.523    -1329046.12549  -1014212.60245  23869716.309    23869726.488
  20593421.167   -19350077.72249 -15053471.12848  20593420.811    20593424.749
  23295307.620    -8530295.65649  -6460770.81845  23295307.114    23295316.033
  24336881.520      809740.52649    647748.67645  24336880.958    24336888.882
  23798261.988    -3431312.94849  -2427039.79645  23798261.506    23798267.046
 03  4  5  2 25 30.0000000  0  8G11G25G31G 3G14G15G23G18
  22890277.989    -9155784.14449  -7120064.11846  22890277.730    22890283.319
  22445872.755   -11052251.29049  -8170284.20146  22445872.656    22445879.710
  23287621.536    -6227161.62149  -4832069.09546  23287621.135    23287629.160
  23885671.042    -1245204.38649   -948881.40945  23885670.814    23885681.114
  20601381.836   -19308244.48849 -15020873.78548  20601381.480    20601385.351
  23315371.195    -8424861.17549  -6378614.08345  23315370.705    23315379.608
  24348773.190      872232.95349    696444.12445  24348772.795    24348780.597
  23811997.938    -3359130.12249  -2370793.42145  23811997.438    23812002.875
 03  4  5  2 26  0.0000000  0  8G11G25G31G 3G14G15G23G18
  22874249.903    -9240012.14749  -7185696.24146  22874249.676    22874255.245
  22429366.993   -11138988.70049  -8237871.61946  22429366.913    22429373.892
  23299883.905    -6162722.38549  -4781856.72746  23299883.487    23299891.563
  23901639.206    -1161290.38449   -883493.89545  23901639.070    23901649.549
  20609411.219   -19266049.66949 -14987994.68348  20609410.872    20609414.755
  23335476.161    -8319209.29549  -6296287.94546  23335475.696    23335484.531
  24360678.145      934794.17449    745193.14745  24360677.793    24360685.688
  23825751.243    -3286855.62749  -2314475.60845  23825750.707    23825756.219
 03  4  5  2 26 30.0000000  0  8G11G25G31G 3G14G15G23G18
  22858274.835    -9323961.90149  -7251111.55346  22858274.576    22858280.193
  22412910.584   -11225466.95949  -8305257.09746  22412910.525    22412917.437
  23312205.215    -6097973.02849  -4731402.71546  23312204.766    23312212.961
  23917621.480    -1077302.91349   -818049.13845  23917621.335    23917631.852
  20617509.883   -19223490.96249 -14954832.04148  20617509.505    20617513.439
  23355623.107    -8213337.81549  -6213790.68846  23355622.538    23355631.211
  24372597.203      997428.32449    793998.99345  24372596.773    24372604.581
  23839522.622    -3214485.33249  -2258083.15845  23839522.192    23839527.848
 03  4  5  2 27  0.0000000  0  8G11G25G31G 3G14G15G23G18
  22842352.873    -9407632.07049  -7316309.01346  22842352.669    22842358.267
  22396503.851   -11311684.45449  -8372439.39047  22396503.753    22396510.628
  23324584.639    -6032917.65049  -4680710.22646  23324584.287    23324592.643
  23933616.956     -993245.97349   -752550.26745  23933616.861    23933627.433
  20625677.127   -19180571.49349 -14921388.28048  20625676.771    20625680.727
  23375811.232    -8107250.00449  -6131124.86146  23375810.562    23375819.064
  24384529.831     1060134.76249    842861.17445  24384529.351    24384537.270
  23853312.035    -3142020.39849  -2201616.96945  23853311.736    23853317.313
 03  4  5  2 27 30.0000000  0  8G11G25G31G 3G14G15G23G18
  22826484.269    -9491021.87849  -7381288.00246  22826484.084    22826489.672
  22380146.878   -11397640.19149  -8439417.71147  22380146.758    22380153.639
  23337021.540    -5967560.97649  -4629782.97646  23337021.196    23337029.592
  23949624.786     -909124.39049   -687001.01145  23949624.580    23949635.268
  20633912.333   -19137295.19049 -14887666.46848  20633911.970    20633915.908
  23396039.749    -8000949.62949  -6048293.39646  23396039.039    23396047.375
  24396476.080     1122912.17349    891778.67545  24396475.641    24396483.519
  23867119.353    -3069462.48249  -2145078.30445  23867119.128    23867124.561
 03  4  5  2 28  0.0000000  0  8G11G25G31G 3G14G15G23G18
  22810669.900    -9574126.66949  -7446044.89546  22810669.752    22810675.303
  22363840.542   -11483329.30049  -8506188.27047  22363840.446    22363847.391
  23349515.788    -5901903.66349  -4578621.44346  23349515.427    23349523.816
  23965644.817     -824938.79449   -621401.88045  23965644.570    23965655.171
  20642215.511   -19093661.67049 -14853666.30248  20642215.122    20642219.036
  23416308.646    -7894436.36249  -5965296.03246  23416307.908    23416316.180
  24408436.419     1185763.11549    940753.47745  24408436.041    24408443.892
  23880944.912    -2996809.04649  -2088465.20845  23880944.696    23880949.955
 03  4  5  2 28 30.0000000  0  8G11G25G31G 3G14G15G23G18
  22794909.688    -9656947.11149  -7510580.22846  22794909.543    22794914.980
  22347584.893   -11568752.05149  -8572751.27947  22347584.830    22347591.859
  23362066.106    -5835951.52849  -4527230.19846  23362065.699    23362074.090
  23981676.010     -740694.83949   -555757.26445  23981675.751    23981686.189
  20650585.675   -19049675.86049 -14819391.62948  20650585.307    20650589.217
  23436617.021    -7787715.03449  -5882136.56046  23436616.388    23436624.650
  24420410.051     1248684.97349    989783.52845  24420409.642    24420417.413
  23894788.074    -2924063.30349  -2031780.17045  23894787.693    23894792.978
 03  4  5  2 29  0.0000000  0  8G11G25G31G 3G14G15G23G18
  22779204.300    -9739479.42349  -7574891.04146  22779204.105    22779209.467
  22331380.846   -11653904.03549  -8639103.30147  22331380.767    22331387.818
  23374672.215    -5769705.97249  -4475610.29146  23374671.792    23374680.249
  23997718.090     -656394.14749   -490068.44445  23997717.845    23997727.955
  20659022.786   -19005338.42649 -14784842.96148  20659022.426    20659026.286
  23456964.804    -7680786.31249  -5798815.46646  23456964.232    23456972.573
  24432397.279     1311679.49249   1038870.21545  24432396.944    24432404.854
  23908648.820    -2851223.60649  -1975021.91945  23908648.347    23908653.896
 03  4  5  2 29 30.0000000  0  8G11G25G31G 3G14G15G23G18
  22763554.630    -9821718.90449  -7638973.68446  22763554.449    22763559.649
  22315229.349   -11738780.48449  -8705240.62947  22315229.229    22315236.241
  23387334.103    -5703167.85649  -4423762.43346  23387333.636    23387342.021
  24013770.844     -572037.32049   -424335.89745  24013770.542    24013780.469
  20667526.893   -18960649.03649 -14750020.05048  20667526.519    20667530.327
  23477352.265    -7573650.03449  -5715332.65146  23477351.578    23477359.927
  24444398.868     1374749.36649   1088015.62645  24444398.626    24444406.691
  23922527.921    -2778287.92449  -1918188.87345  23922527.539    23922533.215
 03  4  5  2 30  0.0000000  0  8G11G25G31G 3G14G15G23G18
  22747960.600    -9903665.90649  -7702828.41846  22747960.415    22747965.533
  22299130.215   -11823381.74549  -8771163.52847  22299130.034    22299136.934
  23400050.517    -5636342.90749  -4371691.06246  23400050.122    23400058.466
  24029833.038     -487630.13849   -358564.10145  24029832.683    24029842.651
  20676096.978   -18915612.54949 -14714926.67048  20676096.616    20676100.386
  23497778.300    -7466311.03449  -5631691.86545  23497777.557    23497785.784
  24456414.498     1437892.09749   1137217.78545  24456414.207    24456422.260
  23936424.938    -2705258.90449  -1861283.11545  23936424.648    23936430.226
 03  4  5  2 30 30.0000000  0  8G11G25G31G 3G14G15G23G18
  22732423.141    -9985315.30649  -7766451.25346  22732422.931    22732428.034
  22283084.439   -11907702.10449  -8836867.54847  22283084.262    22283091.024
  23412821.504    -5569230.99949  -4319396.09446  23412821.101    23412829.533
  24045904.860     -403172.17749   -292752.75345  24045904.537    24045914.711
  20684733.301   -18870228.12249 -14679562.17148  20684732.957    20684736.735
  23518243.093    -7358768.15349  -5547892.21345  23518242.319    23518250.385
  24468444.778     1501111.05649   1186479.32745  24468444.498    24468452.248
  23950340.396    -2632133.63349  -1804302.34345  23950340.015    23950345.529
 03  4  5  2 31  0.0000000  0  8G11G25G31G 3G14G15G23G18
  22716942.158   -10066667.70149  -7829842.65546  22716941.959    22716947.063
  22267092.016   -11991741.95049  -8902352.99447  22267091.913    22267098.515
  23425645.953    -5501838.08849  -4266882.16246  23425645.533    23425654.002
  24061985.240     -318669.35049   -226906.44645  24061984.864    24061995.249
  20693434.897   -18824500.66349 -14643930.37248  20693434.553    20693438.399
  23538745.610    -7251026.51849  -5463937.67145  23538744.836    23538752.779
  24480488.727     1564403.53949   1235798.16545  24480488.401    24480496.151
  23964273.551    -2558915.21649  -1747248.99845  23964273.040    23964278.759
 03  4  5  2 31 30.0000000  0  8G11G25G31G 3G14G15G23G18
  22701518.216   -10147720.23849  -7893000.39746  22701518.027    22701523.220
  22251153.616   -12075498.41249  -8967617.61447  22251153.487    22251159.960
  23438523.382    -5434166.99249  -4214151.46146  23438522.918    23438531.246
  24078073.438     -234124.56949   -161027.43045  24078073.097    24078083.675
  20702201.500   -18778431.86849 -14608032.59648  20702201.144    20702205.027
  23559285.482    -7143087.73549  -5379829.51145  23559284.797    23559292.744
  24492546.721     1627770.10149   1285174.74045  24492546.344    24492554.330
  23978224.356    -2485603.14749  -1690122.67845  23978223.852    23978229.477
 03  4  5  2 32  0.0000000  0  8G11G25G31G 3G14G15G23G18
  22686152.037   -10228468.94149  -7955921.40246  22686151.924    22686157.136
  22235269.962   -12158966.87049  -9032657.82247  22235269.883    22235276.222
  23451453.538    -5366218.49549  -4161204.60246  23451453.097    23451461.327
  24094169.529     -149538.54949    -95116.27145  24094169.183    24094180.028
  20711033.007   -18732021.82049 -14571868.91048  20711032.651    20711036.569
  23579862.795    -7034951.96649  -5295567.85945  23579862.142    23579870.293
  24504619.296     1691213.12449   1334610.89245  24504618.876    24504627.161
  23992193.382    -2412195.29149  -1632921.72345  23992192.861    23992198.524
 03  4  5  2 32 30.0000000  0  8G11G25G31G 3G14G15G23G18
  22670843.984   -10308912.89049  -8018604.92846  22670843.891    22670849.127
  22219441.487   -12242145.72749  -9097472.37247  22219441.401    22219447.616
  23464435.631    -5297997.15049  -4108045.12946  23464435.230    23464443.442
  24110272.551      -64915.52849    -29176.29445  24110272.266    24110283.346
  20719928.684   -18685274.26549 -14535442.23148  20719928.342    20719932.323
  23600476.939    -6926622.56049  -5211155.30445  23600476.301    23600484.761
  24516706.517     1754731.66249   1384105.87345  24516706.077    24516714.311
  24006180.136    -2338693.33449  -1575647.44845  24006179.668    24006185.490
 03  4  5  2 33  0.0000000  0  8G11G25G31G 3G14G15G23G18
  22655594.712   -10389048.43549  -8081048.14946  22655594.559    22655599.789
  22203668.863   -12325031.81849  -9162058.79147  22203668.720    22203674.809
  23477469.396    -5229504.87649  -4054674.54946  23477468.966    23477477.162
  24126382.661       19742.63249     36791.04145  24126382.322    24126393.259
  20728888.510   -18638189.88649 -14498753.09148  20728888.179    20728892.227
  23621127.830    -6818100.51849  -5126592.64545  23621127.135    23621136.012
  24528808.568     1818326.88649   1433660.61545  24528808.089    24528816.103
  24020184.922    -2265096.12349  -1518298.96445  24020184.473    24020190.610
 03  4  5  2 33 30.0000000  0  8G11G25G31G 3G14G15G23G18
  22640404.056   -10468876.17449  -8143251.51446  22640403.904    22640409.037
  22187951.761   -12407625.49749  -9226417.35947  22187951.591    22187957.639
  23490553.671    -5160747.59749  -4001097.48346  23490553.188    23490561.185
  24142498.203      104429.86649    102781.04845  24142497.856    24142508.565
  20737911.546   -18590773.64249 -14461805.36248  20737911.203    20737915.274
  23641814.520    -6709390.83549  -5041883.78045  23641813.743    23641822.835
  24540924.687     1881996.32749   1483273.17545  24540924.201    24540931.839
  24034207.555    -2191406.46149  -1460878.42245  24034207.065    24034213.174
 03  4  5  2 34  0.0000000  0  8G11G25G31G 3G14G15G23G18
  22625273.355   -10548389.06949  -8205209.54746  22625273.169    22625278.154
  22172291.660   -12489919.28149  -9290542.25047  22172291.522    22172297.571
  23503688.600    -5091723.47449  -3947312.47946  23503688.135    23503696.008
  24158619.512      189148.22849    168795.31645  24158619.266    24158629.798
  20746998.274   -18543022.85749 -14424596.95148  20746997.922    20747002.001
  23662537.530    -6600490.65849  -4957026.47045  23662536.727    23662545.890
  24553055.666     1945744.99349   1532947.46245  24553055.193    24553062.867
  24048248.696    -2117619.60149  -1403382.17345  24048248.195    24048254.255
 03  4  5  2 34 30.0000000  0  8G11G25G31G 3G14G15G23G18
  22610202.303   -10627588.08549  -8266922.99646  22610202.123    22610207.001
  22156688.469   -12571914.03749  -9354434.12547  22156688.374    22156694.428
  23516873.037    -5022438.89749  -3893324.53946  23516872.618    23516880.279
  24174745.576      273891.70649    234829.14745  24174745.402    24174755.911
  20756147.606   -18494942.98149 -14387132.11048  20756147.258    20756151.332
  23683295.638    -6491405.68149  -4872025.15645  23683294.896    23683304.008
  24565201.271     2009569.80949   1582681.09345  24565200.735    24565208.299
  24062307.429    -2043739.06449  -1345812.91445  24062306.942    24062313.144
 03  4  5  2 35  0.0000000  0  8G11G25G31G 3G14G15G23G18
  22595191.360   -10706471.24949  -8328390.32946  22595191.175    22595195.974
  22141142.667   -12653607.05649  -9418090.88147  22141142.556    22141148.623
  23530106.566    -4952897.25749  -3839136.30046  23530106.096    23530113.488
  24190875.809      358656.79749    300879.81745  24190875.675    24190886.165
  20765359.111   -18446536.31849 -14349412.62948  20765358.761    20765362.787
  23704088.394    -6382137.97949  -4786881.46045  23704087.772    23704097.031
  24577361.257     2073470.76649   1632474.07545  24577360.707    24577368.380
  24076384.143    -1969765.08649  -1288170.82845  24076383.666    24076389.890
 03  4  5  2 35 30.0000000  0  8G11G25G31G 3G14G15G23G18
  22580241.367   -10785033.96949  -8389607.95046  22580241.144    22580245.935
  22125655.143   -12734993.58149  -9481508.80747  22125655.068    22125661.154
  23543388.748    -4883098.93849  -3784748.02446  23543388.312    23543395.641
  24207010.310      443443.58149    366947.38245  24207010.195    24207020.599
  20774632.853   -18397802.56749 -14311438.26948  20774632.511    20774636.441
  23724916.062    -6272687.51249  -4701595.35945  23724915.472    23724924.781
  24589536.249     2137450.82549   1682328.68545  24589535.709    24589543.416
  24090479.148    -1895695.18449  -1230454.02645  24090478.749    24090485.063
 03  4  5  2 36  0.0000000  0  8G11G25G31G 3G14G15G23G18
  22565352.335   -10863275.83349  -8450575.55746  22565352.102    22565356.928
  22110226.138   -12816073.18149  -9544687.58347  22110226.059    22110232.046
  23556718.773    -4813049.11949  -3730163.79346  23556718.324    23556725.718
  24223148.017      528246.86749    433027.80945  24223147.914    24223158.116
  20783968.065   -18348745.82049 -14273212.22348  20783967.728    20783971.566
  23745777.864    -6163058.15849  -4616169.85845  23745777.230    23745786.600
  24601725.871     2201508.16849   1732243.52045  24601725.320    24601733.167
  24104591.944    -1821531.30349  -1172663.98645  24104591.649    24104597.894
 03  4  5  2 36 30.0000000  0  8G11G25G31G 3G14G15G23G18
  22550525.178   -10941192.75649  -8511289.96946  22550524.967    22550529.787
  22094856.428   -12896841.47949  -9607623.79047  22094856.300    22094862.175
  23570096.293    -4742749.18849  -3675384.66346  23570095.902    23570103.358
  24239288.396      613065.37949    499120.09845  24239288.221    24239298.556
  20793364.650   -18299366.48749 -14234734.81748  20793364.293    20793368.093
  23766673.624    -6053250.42249  -4530605.35045  23766672.995    23766682.320
  24613930.609     2265644.83049   1782220.16445  24613930.091    24613937.731
  24118723.050    -1747271.78349  -1114799.42445  24118722.825    24118728.992
 03  4  5  2 37  0.0000000  0  8G11G25G31G 3G14G15G23G18
  22535760.347   -11018782.31649  -8571749.30346  22535760.188    22535764.920
  22079546.271   -12977296.24949  -9670315.68347  22079546.149    22079551.991
  23583520.915    -4672201.87949  -3620412.78346  23583520.569    23583528.186
  24255431.172      697896.67649    565222.35745  24255431.004    24255441.444
  20802822.255   -18249666.42149 -14196007.48948  20802821.886    20802825.679
  23787602.842    -5943266.27749  -4444903.37645  23787602.196    23787611.595
  24626150.553     2329861.28049   1832258.96145  24626149.991    24626157.453
  24132872.345    -1672916.45549  -1056860.20745  24132872.240    24132878.350
 03  4  5  2 37 30.0000000  0  8G11G25G31G 3G14G15G23G18
  22521057.704   -11096044.90649  -8631953.84146  22521057.496    22521062.273
  22064295.809   -13057437.12849  -9732762.99447  22064295.726    22064301.527
  23596991.658    -4601412.83649  -3565252.52546  23596991.293    23596998.978
  24271575.483      782735.30149    631330.33045  24271575.218    24271585.675
  20812339.982   -18199650.24449 -14157033.83748  20812339.627    20812343.482
  23808564.768    -5833110.39049  -4359067.57545  23808564.143    23808573.528
  24638385.152     2394155.33449   1882358.26245  24638384.551    24638391.896
  24147039.191    -1598468.01249   -998848.41545  24147039.043    24147045.209
 03  4  5  2 38  0.0000000  0  8G11G25G31G 3G14G15G23G18
  22506417.986   -11172976.41749  -8691900.39246  22506417.792    22506422.627
  22049105.832   -13137260.21949  -9794962.67447  22049105.742    22049111.505
  23610508.136    -4530383.63349  -3509905.14546  23610507.786    23610515.438
  24287720.830      867579.89349    697442.94845  24287720.591    24287731.058
  20821917.703   -18149318.51049 -14117814.29848  20821917.357    20821921.320
  23829559.414    -5722783.36549  -4273098.44045  23829558.830    23829567.965
  24650634.751     2458528.71149   1932519.36344  24650634.132    24650641.684
  24161224.109    -1523924.67549   -940762.68445  24161224.093    24161230.323
 03  4  5  2 38 30.0000000  0  8G11G25G31G 3G14G15G23G18
  22491842.057   -11249572.56149  -8751585.62846  22491841.852    22491846.794
  22033977.154   -13216760.86649  -9856911.10647  22033977.046    22033982.863
  23624070.161    -4459115.20949  -3454371.35946  23624069.786    23624077.403
  24303867.008      952429.74049    763559.67645  24303866.764    24303877.440
  20831555.560   -18098671.14449 -14078348.82048  20831555.224    20831559.245
  23850586.829    -5612284.95649  -4186995.74945  23850586.142    23850595.095
  24662899.732     2522983.77349   1982744.10444  24662899.241    24662906.745
  24175427.874    -1449284.69049   -882601.65045  24175427.739    24175434.036
 03  4  5  2 39  0.0000000  0  8G11G25G31G 3G14G15G23G18
  22477329.669   -11325834.80249  -8811010.68446  22477329.499    22477334.533
  22018909.653   -13295939.87649  -9918608.91547  22018909.557    22018915.468
  23637676.502    -4387614.04149  -3398656.20646  23637676.097    23637683.693
  24320013.094     1037278.35549    829675.44045  24320012.825    24320023.650
  20841252.460   -18047713.80549 -14038641.79648  20841252.091    20841256.159
  23871645.625    -5501620.99549  -4100764.04945  23871644.904    23871653.718
  24675179.979     2587517.40349   2033030.05544  24675179.498    24675187.039
  24189649.351    -1374551.46949   -824367.95245  24189649.154    24189655.168
 03  4  5  2 39 30.0000000  0  8G11G25G31G 3G14G15G23G18
  22462881.687   -11401758.71149  -8870172.11146  22462881.521    22462886.665
  22003904.241   -13374793.06449  -9980052.84147  22003904.165    22003910.078
  23651326.840    -4315881.39949  -3342760.68346  23651326.398    23651334.010
  24336158.866     1122124.75849    895789.47845  24336158.587    24336169.530
  20851008.253   -17996446.58949 -13998693.30948  20851007.908    20851011.927
  23892735.741    -5390791.74149  -4014403.54345  23892735.094    23892743.788
  24687475.885     2652131.65249   2083378.86145  24687475.565    24687482.929
  24203888.832    -1299723.36249   -766060.32045  24203888.536    24203894.512
 03  4  5  2 40  0.0000000  0  8G11G25G31G 3G14G15G23G18
  22448498.701   -11477341.17749  -8929067.47946  22448498.528    22448503.723
  21988961.472   -13453317.16149 -10041240.33047  21988961.399    21988967.297
  23665020.695    -4243919.45049  -3286686.48446  23665020.307    23665027.955
  24352304.098     1206967.29549    961900.49945  24352303.791    24352314.508
  20860822.838   -17944870.67549 -13958504.27948  20860822.483    20860826.432
  23913857.019    -5279798.31149  -3927915.11545  23913856.432    23913865.035
  24699787.231     2716827.86249   2133791.54645  24699786.974    24699794.292
  24218146.715    -1224799.33249   -707677.93645  24218146.336    24218152.106
 03  4  5  2 40 30.0000000  0  8G11G25G31G 3G14G15G23G18
  22434180.719   -11552582.15549  -8987696.75846  22434180.540    22434185.734
  21974081.522   -13531511.62749 -10102170.96247  21974081.440    21974087.271
  23678757.278    -4171733.34749  -3230437.60446  23678756.848    23678764.691
  24368447.497     1291800.92549   1028004.56845  24368447.055    24368457.783
  20870695.296   -17892990.41749 -13918078.09348  20870694.949    20870698.815
  23935008.761    -5168644.98149  -3841302.09545  23935008.159    23935016.737
  24712113.824     2781604.29649   2184266.70545  24712113.540    24712120.760
  24232422.206    -1149781.29049   -649222.29945  24232421.723    24232427.576
 03  4  5  2 41  0.0000000  0  8G11G25G31G 3G14G15G23G18
  22419928.365   -11627478.13249  -9046057.20146  22419928.197    22419933.431
  21959265.029   -13609372.80949 -10162841.90547  21959264.927    21959270.638
  23692535.904    -4099324.98849  -3174015.55246  23692535.580    23692543.670
  24384588.853     1376623.84649   1094100.28945  24384588.480    24384599.137
  20880625.501   -17840806.64949 -13877415.41048  20880625.154    20880628.991
  23956190.736    -5057332.89949  -3754565.35845  23956190.164    23956198.522
  24724456.068     2846462.05049   2234805.24645  24724455.735    24724462.648
  24246715.726    -1074668.40549   -590692.75445  24246715.218    24246721.154
 03  4  5  2 41 30.0000000  0  8G11G25G31G 3G14G15G23G18
  22405742.425   -11702025.39649  -9104145.92546  22405742.268    22405747.498
  21944512.564   -13686897.29749 -10223250.48147  21944512.480    21944518.162
  23706356.572    -4026696.11949  -3117421.67646  23706356.231    23706364.515
  24400727.881     1461434.64049   1160186.56045  24400727.717    24400737.809
  20890613.312   -17788320.21249 -13836516.87948  20890612.960    20890616.810
  23977402.750    -4945862.62749  -3667705.37045  23977402.220    23977410.593
  24736814.103     2911402.88649   2285408.52145  24736813.740    24736820.523
  24261027.684     -999459.23149   -532088.17245  24261027.260    24261032.825
 03  4  5  2 42  0.0000000  0  8G11G25G31G 3G14G15G23G18
  22391622.951   -11776223.89849  -9161962.89747  22391622.782    22391627.929
  21929824.245   -13764084.46749 -10283396.22247  21929824.199    21929829.843
  23720218.291    -3953851.81849  -3060659.92646  23720217.955    23720226.417
  24416863.819     1546228.58349   1226259.71245  24416863.647    24416873.430
  20900657.944   -17735535.11849 -13795385.62748  20900657.566    20900661.471
  23998643.949    -4834238.60449  -3580725.56545  23998643.545    23998651.789
  24749187.522     2976425.01849   2336075.16045  24749187.064    24749193.984
  24275357.584     -924155.97549   -473410.28545  24275357.119    24275362.375
 03  4  5  2 42 30.0000000  0  8G11G25G31G 3G14G15G23G18
  22377570.511   -11850070.40749  -9219505.58447  22377570.320    22377575.315
  21915200.725   -13840931.25549 -10343276.72747  21915200.672    21915206.280
  23734120.669    -3880794.33649  -3003732.06146  23734120.360    23734128.992
  24432996.218     1631003.60449   1292318.12045  24432995.928    24433005.548
  20910759.170   -17682452.62449 -13754022.63348  20910758.783    20910762.698
  24019914.273    -4722461.91149  -3493626.79045  24019913.830    24019921.927
  24761576.495     3041529.58049   2386806.01045  24761576.118    24761583.019
  24289705.385     -848757.97449   -414658.56545  24289704.927    24289710.171
 03  4  5  2 43  0.0000000  0  8G11G25G31G 3G14G15G23G18
  22363585.608   -11923561.53149  -9276771.34247  22363585.422    22363590.336
  21900642.717   -13917433.63349 -10402888.85847  21900642.611    21900648.240
  23748063.364    -3807525.44249  -2946639.47546  23748063.068    23748071.745
  24449124.539     1715758.11349   1358360.54445  24449124.214    24449133.792
  20920916.810   -17629073.55649 -13712428.53748  20920916.441    20920920.376
  24041213.581    -4610533.25949  -3406409.62745  24041213.045    24041221.088
  24773981.450     3106718.15249   2437602.31145  24773981.080    24773987.948
  24304071.374     -773263.57149   -355831.74145  24304070.872    24304076.333
 03  4  5  2 43 30.0000000  0  7G11G25G31G 3G14G15G18
  22349668.325   -11996696.99349  -9333759.96147  22349668.157    22349673.048
  21886150.177   -13993591.34749 -10462232.42547  21886150.084    21886155.769
  23762045.365    -3734050.39949  -2889386.22946  23762045.038    23762053.685
  24465247.964     1800487.30549   1424383.23745  24465247.542    24465257.317
  20931130.096   -17575402.07749 -13670606.59148  20931129.731    20931133.705
  24062540.865    -4498457.12849  -3319077.54245  24062540.319    24062548.384
  24318455.160     -697675.24849   -296931.73845  24318454.654    24318460.502
 03  4  5  2 44  0.0000000  0  7G11G25G31G 3G14G15G18
  22335819.615   -12069472.71449  -9390468.25847  22335819.434    22335824.206
  21871724.085   -14069400.22649 -10521304.17947  21871724.001    21871729.721
  23776066.414    -3660370.32549  -2831973.22646  23776066.052    23776074.703
  24481366.309     1885190.40849   1490385.59945  24481365.903    24481375.911
  20941398.991   -17521438.42049 -13628556.97148  20941398.651    20941402.643
  24083896.141    -4386233.84749  -3231630.79445  24083895.527    24083903.615
  24332857.449     -621990.73049   -237956.78945  24332856.974    24332862.792
 03  4  5  2 44 30.0000000  0  7G11G25G31G 3G14G15G18
  22322039.494   -12141887.82749  -9446895.57147  22322039.294    22322043.987
  21857364.613   -14144859.04049 -10580103.14947  21857364.542    21857370.291
  23790125.562    -3586489.46149  -2774403.76046  23790125.169    23790133.795
  24497478.920     1969863.54749   1556364.61445  24497478.498    24497488.912
  20951722.950   -17467185.73449 -13586282.13748  20951722.594    20951726.655
  24105278.672    -4273866.65649  -3144071.89745  24105277.974    24105286.336
  24347277.595     -546211.54649   -178908.06145  24347277.172    24347283.331
 03  4  5  2 45  0.0000000  0  7G11G25G31G 3G14G15G18
  22308328.824   -12213938.23049  -9503038.70547  22308328.586    22308333.181
  21843072.468   -14219964.02249 -10638626.41847  21843072.386    21843078.232
  23804222.403    -3512409.32549  -2716679.01746  23804222.060    23804230.734
  24513585.717     2054505.38849   1622319.23845  24513585.408    24513595.756
  20962101.788   -17412644.57449 -13543782.51848  20962101.439    20962105.505
  24126688.588    -4161356.27649  -3056401.43845  24126687.962    24126696.407
  24361716.189     -470335.83449   -119784.11545  24361715.735    24361721.918
 03  4  5  2 45 30.0000000  0  7G11G25G31G 3G14G15G18
  22294687.566   -12285623.34949  -9558897.18647  22294687.339    22294691.881
  21828847.794   -14294714.13449 -10696873.15547  21828847.753    21828853.722
  23818356.513    -3438134.71249  -2658802.73846  23818356.195    23818364.662
  24529685.888     2139111.59949   1688246.08845  24529685.741    24529696.056
  20972534.857   -17357818.67549 -13501061.02748  20972534.496    20972538.545
  24148125.344    -4048706.38149  -2968622.27045  24148124.591    24148132.908
  24376172.700     -394365.73649    -60586.63545  24376172.257    24376178.535
 03  4  5  2 46  0.0000000  0  7G11G25G31G 3G14G15G18
  22281116.231   -12356940.70449  -9614469.10247  22281116.034    22281120.550
  21814691.195   -14369106.84449 -10754841.41047  21814691.154    21814697.187
  23832527.320    -3363668.13449  -2600776.87546  23832526.935    23832535.222
  24545778.931     2223679.83949   1754143.36845  24545778.791    24545788.968
  20983021.735   -17302709.74549 -13458118.99148  20983021.367    20983025.367
  24169588.409    -3935918.76449  -2880735.76545  24169587.602    24169595.704
  24390647.142     -318300.64049     -1315.13745  24390646.727    24390653.274
 03  4  5  2 46 30.0000000  0  7G11G25G31G 3G14G15G18
  22267615.536   -12427886.71849  -9669751.65847  22267615.321    22267619.881
  21800603.444   -14443138.41649 -10812528.24947  21800603.426    21800609.370
  23846734.094    -3289011.42249  -2542602.86546  23846733.679    23846742.001
  24561864.382     2308208.39149   1820009.67945  24561864.105    24561874.280
  20993562.328   -17247318.43649 -13414956.91748  20993561.960    20993565.910
  24191077.393    -3822994.23549  -2792742.57645  24191076.686    24191084.450
  24405139.893     -242139.14849     58031.47645  24405139.375    24405146.210
 03  4  5  2 47  0.0000000  0  7G11G25G31G 3G14G15G18
  22254185.654   -12498461.02949  -9724744.57547  22254185.448    22254189.987
  21786584.568   -14516808.41149 -10869933.34347  21786584.501    21786590.358
  23860976.118    -3214169.66949  -2484284.67346  23860975.690    23860983.909
  24577941.110     2392692.86149   1885841.67844  24577940.886    24577950.976
  21004155.868   -17191648.74049 -13371577.92748  21004155.516    21004159.410
  24212591.652    -3709936.85549  -2704645.87345  24212590.872    24212598.755
  24419650.692     -165883.50249    117451.47945  24419650.337    24419657.276
 03  4  5  2 47 30.0000000  0  7G11G25G31G 3G14G15G18
  22240827.258   -12568659.67149  -9779444.74947  22240827.036    22240831.571
  21772635.335   -14590112.61149 -10927053.40547  21772635.208    21772640.948
  23875253.068    -3139144.01849  -2425823.17146  23875252.617    23875260.948
  24594009.278     2477132.38148   1951638.63744  24594008.883    24594019.479
  21014802.468   -17135700.92949 -13327982.22448  21014802.115    21014805.936
  24234130.973    -3596747.03849  -2616445.96645  24234130.082    24234138.326
  24434180.007      -89531.97449    176946.20645  24434179.610    24434186.310
 03  4  5  2 48  0.0000000  0  7G11G25G31G 3G14G15G18
  22227540.568   -12638481.10449  -9833850.99947  22227540.354    22227544.905
  21758755.997   -14663049.35949 -10983887.13947  21758755.837    21758761.522
  23889564.232    -3063938.21249  -2367221.27845  23889563.780    23889572.094
  24610067.869     2561523.58048   2017397.94744  24610067.266    24610078.853
  21025501.472   -17079477.69749 -13284171.90748  21025501.088    21025504.897
  24255694.772    -3483427.67749  -2528145.12045  24255693.843    24255702.293
  24448727.459      -13085.13449    236515.18845  24448726.968    24448733.690
 03  4  5  2 48 30.0000000  0  7G11G25G31G 3G14G15G18
  22214326.155   -12707923.09749  -9887961.57947  22214325.972    22214330.547
  21744946.848   -14735616.57449 -11040432.92547  21744946.677    21744952.337
  23903909.129    -2988555.50649  -2308481.55445  23903908.718    23903916.850
  24626117.101     2645863.56448   2083117.36944  24626116.493    24626128.345
  21036252.421   -17022981.07349 -13240148.55148  21036252.026    21036255.890
  24277282.676    -3369980.70449  -2439744.83145  24277281.888    24277290.824
  24463293.192       63456.83049    296158.28845  24463292.685    24463299.164
 03  4  5  2 49  0.0000000  0  7G11G25G31G 3G14G15G18
  22201184.399   -12776983.19849  -9941774.57747  22201184.230    22201188.841
  21731208.482   -14807811.60349 -11096688.71047  21731208.368    21731213.945
  23918287.212    -2912998.66549  -2249606.12945  23918286.804    23918294.825
  24642156.431     2730149.90649   2148794.99644  24642155.970    24642167.322
  21047054.914   -16966213.05749 -13195913.72348  21047054.547    21047058.489
  24298894.454    -3256408.15249  -2351246.68545  24298893.816    24298902.810
  24477876.877      140094.12149    355875.65645  24477876.348    24477882.775
 03  4  5  2 49 30.0000000  0  7G11G25G31G 3G14G15G18
  22188115.493   -12845660.63949  -9995289.39747  22188115.308    22188119.881
  21717541.168   -14879633.17449 -11152653.49147  21717541.069    21717546.574
  23932697.607    -2837271.79349  -2190598.22345  23932697.119    23932705.097
  24658184.776     2814378.73349   2214427.78644  24658184.453    24658195.392
  21057908.568   -16909176.68749 -13151469.78848  21057908.204    21057912.163
  24320529.685    -3142713.20949  -2262653.19045  24320529.188    24320538.174
  24492478.632      216825.82049    415666.62445  24492478.150    24492484.051
 03  4  5  2 50  0.0000000  0  7G11G25G31G 3G14G15G18
  22175119.847   -12913952.75049 -10048503.95347  22175119.654    22175124.232
  21703945.300   -14951079.14949 -11208325.59847  21703945.252    21703950.644
  23947139.647    -2761378.06349  -2131460.30145  23947139.240    23947147.152
  24674201.613     2898547.52049   2280013.80045  24674201.436    24674212.383
  21068812.855   -16851874.04449 -13106818.36648  21068812.495    21068816.460
  24342187.774    -3028898.09849  -2173966.02945  24342187.444    24342196.327
  24507098.173      293651.67549    475530.95145  24507097.639    24507103.627
 03  4  5  2 50 30.0000000  0  7G11G25G31G 3G14G15G18
  22162198.678   -12981853.28249 -10101413.38547  22162198.530    22162203.143
  21690422.332   -15022142.78349 -11263699.77947  21690422.293    21690427.559
  23961613.893    -2685316.07849  -2072191.27645  23961613.510    23961621.176
  24690207.272     2982657.94549   2345554.33945  24690207.066    24690218.422
  21079768.285   -16794302.81049 -13061957.65648  21079767.920    21079771.885
  24363869.168    -2914960.76049  -2085183.63545  24363868.725    24363877.852
  24521736.345      370576.18749    535472.14345  24521735.906    24521741.935
 03  4  5  2 51  0.0000000  0  7G11G25G31G 3G14G15G18
  22149351.540   -13049365.18549 -10154019.99347  22149351.413    22149355.996
  21676971.572   -15092826.92949 -11318778.24747  21676971.515    21676976.705
  23976118.454    -2609094.16749  -2012797.62845  23976118.069    23976125.683
  24706200.397     3066702.06849   2411043.19945  24706200.253    24706211.594
  21090773.458   -16736470.28949 -13016893.33848  21090773.102    21090776.993
  24385572.487    -2800908.71749  -1996311.86445  24385572.139    24385581.138
  24536392.038      447593.97049    595486.01645  24536391.560    24536397.973
 03  4  5  2 51 30.0000000  0  7G11G25G31G 3G14G15G18
  22136579.160   -13116484.41549 -10206320.62047  22136579.015    22136583.533
  21663593.764   -15163127.42549 -11373557.76847  21663593.706    21663598.899
  23990653.147    -2532713.48049  -1953280.25945  23990652.836    23990660.400
  24722180.904     3150679.35949   2476480.01045  24722180.731    24722192.124
  21101828.393   -16678376.36549 -12971625.32847  21101828.048    21101831.860
  24407297.770    -2686742.10549  -1907350.81245  24407297.329    24407306.299
  24551066.051      524706.85049    655574.00345  24551065.751    24551072.015
 03  4  5  2 52  0.0000000  0  7G11G25G31G 3G14G15G18
  22123882.089   -13183208.04249 -10258312.99647  22123881.925    22123886.372
  21650289.502   -15233041.28349 -11428036.02147  21650289.437    21650294.622
  24005217.725    -2456176.15949  -1893640.83445  24005217.433    24005224.987
  24738148.318     3234588.02949   2541863.31545  24738147.977    24738159.545
  21112932.805   -16620022.37049 -12926154.67047  21112932.451    21112936.167
  24429044.681    -2572462.17449  -1818301.46645  24429044.225    24429053.146
  24565758.504      601915.60749    715736.68545  24565758.179    24565764.224
 03  4  5  2 52 30.0000000  0  7G11G25G31G 3G14G15G18
  22111260.362   -13249535.35749 -10309996.54647  22111260.203    22111264.659
  21637059.053   -15302567.57049 -11482212.26647  21637058.976    21637064.095
  24019811.256    -2379486.76349  -1833882.91845  24019810.861    24019818.557
  24754101.634     3318423.68049   2607189.73245  24754101.532    24754113.193
  21124086.105   -16561411.69249 -12880483.99847  21124085.740    21124089.272
  24450812.540    -2458072.62549  -1729166.72245  24450811.925    24450820.729
  24580468.946      679219.07549    775973.17045  24580468.745    24580474.288
 03  4  5  2 53  0.0000000  0  7G11G25G31G 3G14G15G18
  22098714.511   -13315463.70949 -10361369.21947  22098714.349    22098718.916
  21623902.743   -15371704.29649 -11536084.95647  21623902.654    21623907.740
  24034433.054    -2302648.17749  -1774008.74445  24034432.639    24034440.587
  24770040.733     3402183.79349   2672457.28845  24770040.528    24770052.307
  21135287.839   -16502546.27449 -12834614.82047  21135287.465    21135290.886
  24472600.836    -2343575.42149  -1639948.08145  24472600.191    24472608.705
  24595197.214      756617.21149    836283.45045  24595197.050    24595202.587
 03  4  5  2 53 30.0000000  0  5G11G25G31G14G15
  22086244.910   -13380991.24849 -10412429.57947  22086244.741    22086249.428
  21610820.961   -15440448.98849 -11589652.17347  21610820.880    21610826.023
  24049082.754    -2225663.51449  -1714020.75545  24049082.387    24049090.276
  21146537.663   -16443428.05949 -12788548.67347  21146537.297    21146540.714
  24494409.082    -2228972.67249  -1550647.19745  24494408.434    24494416.884
 03  4  5  2 54  0.0000000  0  5G11G25G31G14G15
  22073853.611   -13446107.37349 -10463169.36147  22073853.439    22073858.201
  21597815.762   -15508791.16149 -11642905.72747  21597815.713    21597820.916
  24063761.500    -2148527.28049  -1653914.65645  24063761.114    24063768.677
  21157836.764   -16384050.55849 -12742280.47647  21157836.395    21157839.917
  24516238.534    -2114258.14949  -1461259.22645  24516237.682    24516246.232
 03  4  5  2 54 30.0000000  0  5G11G25G31G14G15
  22061538.719   -13510821.92849 -10513596.23147  22061538.545    22061543.329
  21584885.474   -15576740.16249 -11695852.92147  21584885.445    21584890.608
  24078466.130    -2071254.66949  -1593702.29845  24078465.675    24078473.055
  21169182.544   -16324427.76049 -12695821.13847  21169182.160    21169185.827
  24538086.629    -1999445.95149  -1371795.15145  24538085.826    24538094.274
 03  4  5  2 55  0.0000000  0  5G11G25G31G14G15
  22049301.359   -13575129.53149 -10563705.99747  22049301.186    22049305.876
  21572030.954   -15644291.35649 -11748490.13647  21572030.904    21572035.964
  24093196.674    -1993845.54949  -1533383.56545  24093196.267    24093203.578
  21180575.136   -16264558.74549 -12649169.93847  21180574.783    21180578.558
  24559953.428    -1884535.26449  -1282254.31945  24559952.699    24559960.845
 03  4  5  2 55 30.0000000  0  5G11G25G31G14G15
  22037142.221   -13639026.57149 -10613495.84847  22037142.024    22037146.531
  21559252.828   -15711441.16749 -11800814.58747  21559252.750    21559257.712
  24107952.961    -1916301.56449  -1472959.74845  24107952.511    24107959.895
  21192014.550   -16204444.16749 -12602327.39447  21192014.184    21192017.972
  24581838.851    -1769526.94049  -1192637.43544  24581837.878    24581846.050
 03  4  5  2 56  0.0000000  0  5G11G25G31G14G15
  22025061.271   -13702512.46249 -10662965.31247  22025061.077    22025065.482
  21546551.371   -15778187.87049 -11852824.91947  21546551.253    21546556.184
  24122733.997    -1838626.71149  -1412433.95045  24122733.549    24122741.053
  21203500.182   -16144086.78449 -12555295.64947  21203499.813    21203503.537
  24603742.409    -1654423.96549  -1102946.77244  24603741.454    24603749.356
 03  4  5  2 56 30.0000000  0  5G11G25G31G14G15
  22013058.836   -13765585.61249 -10712113.16747  22013058.627    22013062.998
  21533926.738   -15844530.37949 -11904520.30247  21533926.623    21533931.545
  24137539.005    -1760825.02149  -1351809.31045  24137538.630    24137546.394
  21215031.462   -16083489.74849 -12508077.16147  21215031.079    21215034.718
  24625663.260    -1539229.47249  -1013184.80644  24625662.459    24625670.287
 03  4  5  2 57  0.0000000  0  5G11G25G31G14G15
  22001136.043   -13828240.21249 -10760934.88047  22001135.811    22001140.159
  21521380.190   -15910462.76449 -11955896.10447  21521380.049    21521384.980
  24152368.739    -1682895.55049  -1291085.10745  24152368.333    24152376.083
  21226608.764   -16022650.90849 -12460670.25747  21226608.375    21226611.960
  24647601.727    -1423941.89049   -923350.28544  24647600.593    24647608.582
 03  4  5  2 57 30.0000000  0  5G11G25G31G14G15
  21989292.439   -13890478.15649 -10809431.92547  21989292.260    21989296.597
  21508911.151   -15975987.23349 -12006954.05647  21508911.031    21508916.008
  24167221.313    -1604845.46649  -1230266.91945  24167220.812    24167228.678
  21238230.899   -15961576.21249 -12413079.56947  21238230.499    21238234.038
  24669556.732    -1308567.33049   -833448.00244  24669555.592    24669563.569
 03  4  5  2 58  0.0000000  0  4G11G25G31G14
  21977527.439   -13952303.48849 -10857607.46347  21977527.255    21977531.572
  21496518.976   -16041107.54949 -12057697.08747  21496518.880    21496523.939
  24182094.768    -1526683.96849  -1169361.91745  24182094.265    24182102.368
  21249896.343   -15900273.77149 -12365311.42247  21249895.963    21249899.503
 03  4  5  2 58 30.0000000  0  4G11G25G31G14
  21965841.870   -14013711.36949 -10905457.71547  21965841.694    21965846.003
  21484204.684   -16105818.64949 -12108121.24747  21484204.605    21484209.758
  24196989.417    -1448411.31449  -1108370.31245  24196989.063    24196997.303
  21261605.278   -15838743.05049 -12317365.39547  21261604.897    21261608.430
 03  4  5  2 59  0.0000000  0  4G11G25G31G14
  21954238.841   -14074685.46349 -10952969.94147  21954238.667    21954242.987
  21471971.404   -16170104.41949 -12158213.98147  21471971.334    21471976.551
  24211907.594    -1370016.16849  -1047283.24045  24211907.205    24211915.518
  21273359.951   -15776971.51749 -12269231.71947  21273359.580    21273363.154
 03  4  5  2 59 30.0000000  0  4G11G25G31G14
  21942717.618   -14135229.79049 -11000147.29247  21942717.433    21942721.748
  21459818.300   -16233968.86749 -12207978.41647  21459818.237    21459823.481
  24226847.267    -1291507.34349   -986107.57945  24226846.933    24226855.237
  21285158.975   -15714967.06449 -12220916.55747  21285158.591    21285162.174
 03  4  5  3  0  0.0000000  0  4G11G25G31G14
  21931278.665   -14195341.67149 -11046987.67647  21931278.482    21931282.765
  21447745.845   -16297409.81549 -12257412.84947  21447745.755    21447751.001
  24241808.056    -1212887.84649   -924845.69145  24241807.655    24241816.101
  21297001.920   -15652731.66449 -12172421.43347  21297001.533    21297005.140
 03  4  5  3  0 30.0000000  0  4G11G25G31G14
  21919921.552   -14255023.45949 -11093492.92647  21919921.384    21919925.695
  21435753.686   -16360428.85949 -12306518.52147  21435753.587    21435758.844
  24256788.648    -1134164.72349   -863503.03945  24256788.245    24256796.686
  21308887.724   -15590271.07349 -12123750.83947  21308887.344    21308890.991
 03  4  5  3  1  0.0000000  0  4G11G25G31G14
  21908647.439   -14314269.43749 -11139658.58847  21908647.249    21908651.613
  21423842.865   -16423020.25449 -12355290.96847  21423842.792    21423848.048
  24271789.096    -1055337.13449   -802078.99545  24271788.690    24271797.117
  21320816.741   -15527583.31249 -12074903.23147  21320816.356    21320820.081
 03  4  5  3  1 30.0000000  0  4G11G25G31G14
  21897455.997   -14373080.84249 -11185485.61947  21897455.807    21897460.160
  21412013.139   -16485185.54049 -12403731.38247  21412013.072    21412018.352
  24286808.285     -976411.54949   -740578.58045  24286807.803    24286816.272
  21332787.971   -15464673.95449 -12025882.94947  21332787.618    21332791.384
 03  4  5  3  2  0.0000000  0  4G11G25G31G14
  21886347.792   -14431455.06749 -11230971.98647  21886347.567    21886351.838
  21400264.936   -16546922.31349 -12451837.88947  21400264.855    21400270.120
  24301845.555     -897390.23649   -679003.58545  24301845.123    24301853.600
  21344801.194   -15401544.21249 -11976690.93747  21344800.832    21344804.590
 03  4  5  3  2 30.0000000  0  4G11G25G31G14
  21875322.931   -14489390.83949 -11276116.70347  21875322.689    21875326.881
  21388598.559   -16608229.13049 -12499609.36847  21388598.472    21388603.706
  24316900.064     -818277.18049   -617357.09045  24316899.641    24316908.302
  21356855.837   -15338196.91949 -11927329.41147  21356855.447    21356859.206
 03  4  5  3  3  0.0000000  0  4G11G25G31G14
  21864382.573   -14546882.81649 -11320915.61147  21864382.303    21864386.442
  21377015.041   -16669100.55949 -12547041.58847  21377014.981    21377020.156
  24331972.165     -739071.95149   -555638.78145  24331971.718    24331980.539
  21368952.090   -15274630.45649 -11877797.10347  21368951.713    21368955.485
 03  4  5  3  3 30.0000000  0  4G11G25G31G14
  21853526.174   -14603932.95849 -11365370.22447  21853525.939    21853530.144
  21365514.126   -16729538.45849 -12594135.98647  21365514.052    21365519.086
  24347060.595     -659781.19249   -493853.82045  24347060.061    24347069.113
  21381088.991   -15210850.59649 -11828098.50747  21381088.600    21381092.409
 03  4  5  3  4  0.0000000  0  4G11G25G31G14
  21842754.810   -14660536.32949 -11409476.70247  21842754.615    21842758.834
  21354096.514   -16789538.54449 -12640889.23147  21354096.427    21354101.350
  24362165.252     -580405.49049   -432002.68445  24362164.765    24362173.706
  21393266.509   -15146856.85249 -11778233.24847  21393266.130    21393270.037
 03  4  5  3  4 30.0000000  0  4G11G25G31G14
  21832068.274   -14716694.52349 -11453236.28447  21832068.054    21832072.219
  21342761.958   -16849101.75649 -12687302.06247  21342761.893    21342766.733
  24377285.161     -500950.60149   -370089.82745  24377284.587    24377293.439
  21405483.910   -15082653.67049 -11728204.79447  21405483.522    21405487.468
 03  4  5  3  5  0.0000000  0  4G11G25G31G14
  21821466.949   -14772404.95049 -11496646.96147  21821466.693    21821470.752
  21331511.047   -16908225.63849 -12733372.55647  21331510.992    21331515.728
  24392419.753     -421419.33049   -308117.47145  24392419.269    24392427.652
  21417740.822   -15018242.80649 -11678014.50847  21417740.467    21417744.430
 03  4  5  3  5 30.0000000  0  4G11G25G31G14
  21810951.495   -14827663.67749 -11539705.66147  21810951.253    21810955.238
  21320344.490   -16966906.36749 -12779097.73747  21320344.413    21320349.033
  24407568.492     -341812.48849   -246086.22845  24407568.013    24407576.252
  21430037.369   -14953623.96449 -11627662.15747  21430037.044    21430040.950
 03  4  5  3  6  0.0000000  0  4G11G25G31G14
  21800521.966   -14882470.85949 -11582412.51247  21800521.733    21800525.795
  21309262.072   -17025144.66849 -12824478.16847  21309261.985    21309266.539
  24422730.449     -262135.47349   -184000.28845  24422730.147    24422738.371
  21442372.790   -14888801.44349 -11577151.10847  21442372.434    21442376.221
 03  4  5  3  6 30.0000000  0  4G11G25G31G14
  21790179.596   -14936819.85249 -11624762.33647  21790179.373    21790183.503
  21298265.180   -17082933.61249 -12869508.45047  21298265.088    21298269.608
  24437906.247     -182386.33949   -121858.16745  24437905.900    24437914.149
  21454747.562   -14823772.31949 -11526479.05747  21454747.167    21454750.853
 03  4  5  3  7  0.0000000  0  4G11G25G31G14
  21779923.485   -14990715.92749 -11666759.23947  21779923.253    21779927.414
  21287352.829   -17140278.39349 -12914192.63447  21287352.713    21287357.194
  24453093.816     -102575.05949    -59667.62945  24453093.266    24453101.827
  21467159.847   -14758545.52949 -11475652.97547  21467159.465    21467163.131
 03  4  5  3  7 30.0000000  0  4G11G25G31G14
  21769754.991   -15044151.46449 -11708397.28647  21769754.762    21769758.964
  21276526.373   -17197171.49249 -12958524.85347  21276526.258    21276530.745
  24468293.647      -22698.90149      2573.46945  24468293.133    24468301.869
  21479610.507   -14693116.86449 -11424669.59047  21479610.135    21479613.801
 03  4  5  3  8  0.0000000  0  4G11G25G31G14
  21759674.121   -15097126.42949 -11749676.44447  21759673.882    21759678.161
  21265785.779   -17253612.94449 -13002505.13847  21265785.683    21265790.219
  24483505.011       57237.32949     64861.38245  24483504.502    24483513.465
  21492098.830   -14627490.40349 -11373532.07347  21492098.450    21492102.134
 03  4  5  3  8 30.0000000  0  4G11G25G31G14
  21749680.890   -15149640.75149 -11790596.66447  21749680.650    21749685.016
  21255131.125   -17309602.85149 -13046133.57147  21255131.019    21255135.654
  24498726.943      137228.70949    127192.25845  24498726.404    24498735.586
  21504624.126   -14561669.88449 -11322243.34947  21504623.739    21504627.345
 03  4  5  3  9  0.0000000  0  4G11G25G31G14
  21739775.969   -15201690.72249 -11831155.04947  21739775.766    21739780.174
  21244563.193   -17365137.07949 -13089406.93947  21244563.105    21244567.820
  24513959.233      217274.35349    189565.40845  24513958.729    24513967.898
  21517186.388   -14495655.00649 -11270803.17947  21517185.992    21517189.571
 03  4  5  3  9 30.0000000  0  4G11G25G31G14
  21729959.909   -15253274.58849 -11871350.22647  21729959.702    21729964.052
  21234082.261   -17420214.18549 -13132324.10347  21234082.161    21234086.910
  24529201.393      297371.29849    251978.54945  24529200.947    24529209.945
  21529785.252   -14429447.60549 -11219212.98047  21529784.870    21529788.444
 03  4  5  3 10  0.0000000  0  4G11G25G31G14
  21720232.756   -15304391.21749 -11911181.32847  21720232.546    21720236.853
  21223688.553   -17474833.28649 -13174884.38847  21223688.466    21223693.208
  24544452.607      377515.94349    314428.84045  24544452.339    24544461.045
  21542420.255   -14363050.12149 -11167474.67147  21542419.883    21542423.513
 03  4  5  3 10 30.0000000  0  4G11G25G31G14
  21710595.080   -15355037.81949 -11950646.16547  21710594.848    21710599.156
  21213382.526   -17528991.77149 -13217085.73747  21213382.411    21213387.168
  24559712.708      457706.10449    376914.61045  24559712.374    24559720.806
  21555091.144   -14296463.88349 -11115589.28647  21555090.771    21555094.438
 03  4  5  3 11  0.0000000  0  4G11G25G31G14
  21701047.199   -15405212.22649 -11989743.05747  21701046.978    21701051.237
  21203164.543   -17582687.54249 -13258926.53647  21203164.435    21203169.175
  24574980.706      537939.17549    439433.82345  24574980.355    24574988.824
  21567797.687   -14229690.37449 -11063557.97047  21567797.285    21567801.010
 03  4  5  3 11 30.0000000  0  4G11G25G31G14
  21691589.570   -15454912.56849 -12028470.55047  21691589.355    21691593.486
  21193035.068   -17635918.50849 -13300405.15148  21193034.947    21193039.592
  24590256.151      618212.62249    501984.49445  24590255.750    24590264.571
  21580539.570   -14162730.88149 -11011381.73347  21580539.184    21580542.937
 03  4  5  3 12  0.0000000  0  4G11G25G31G14
  21682222.454   -15504137.21649 -12066827.37647  21682222.200    21682226.234
  21182994.271   -17688683.19449 -13341520.43548  21182994.148    21182998.735
  24605538.879      698523.15849    564564.05745  24605538.410    24605547.121
  21593316.490   -14095587.58149 -10959062.27947  21593316.108    21593319.808
 03  4  5  3 12 30.0000000  0  4G11G25G31G14
  21672945.758   -15552885.81149 -12104813.25147  21672945.532    21672949.579
  21173042.194   -17740981.51749 -13382272.31448  21173042.118    21173046.680
  24620827.670      778866.49449    627169.15945  24620827.365    24620836.088
  21606127.781   -14028263.54049 -10906601.98647  21606127.399    21606131.064
 03  4  5  3 13  0.0000000  0  4G11G25G31G14
  21663760.514   -15601153.65649 -12142424.51847  21663760.341    21663764.414
  21163179.837   -17792808.55349 -13422656.95748  21163179.746    21163184.317
  24636122.608      859242.96249    689800.10845  24636122.249    24636131.272
  21618973.720   -13960757.45949 -10853999.84647  21618973.346    21618976.926
 03  4  5  3 13 30.0000000  0  4G11G25G31G14
  21654666.582   -15648942.17249 -12179662.28647  21654666.426    21654670.492
  21153406.804   -17844165.87849 -13462675.59448  21153406.711    21153411.304
  24651422.586      939646.43349    752452.10245  24651422.115    24651431.329
  21631853.415   -13893074.15549 -10801259.61347  21631853.050    21631856.560
 03  4  5  3 14  0.0000000  0  4G11G25G31G14
  21645664.278   -15696249.72549 -12216525.26547  21645664.118    21645668.132
  21143723.353   -17895052.46249 -13502327.41448  21143723.265    21143727.863
  24666727.539     1020073.71049    815122.59945  24666727.050    24666735.922
  21644766.483   -13825215.72149 -10748382.90347  21644766.110    21644769.579
 03  4  5  3 14 30.0000000  0  4G11G25G31G14
  21636754.285   -15743072.52449 -12253010.51847  21636754.077    21636758.051
  21134130.270   -17945464.23149 -13541609.25248  21134130.186    21134134.749
  24682036.679     1100523.93249    877811.01545  24682036.442    24682045.515
  21657712.828   -13757181.97149 -10695369.58247  21657712.458    21657715.959
 03  4  5  3 15  0.0000000  0  4G11G25G31G14
  21627936.369   -15789411.12049 -12289118.47247  21627936.161    21627940.095
  21124627.479   -17995401.63849 -13580521.45748  21124627.365    21124631.885
  24697349.416     1180992.26549    940513.53945  24697349.071    24697358.234
  21670691.814   -13688976.92149 -10642222.79147  21670691.423    21670694.954
 03  4  5  3 15 30.0000000  0  4G11G25G31G14
  21619211.621   -15835260.36349 -12324845.10947  21619211.371    21619215.292
  21115215.872   -18044859.73149 -13619060.16548  21115215.770    21115220.216
  24712665.609     1261479.23849   1003230.60045  24712665.207    24712674.441
  21683703.728   -13620598.62649 -10588940.99447  21683703.345    21683706.898
 03  4  5  3 16  0.0000000  0  4G11G25G31G14
  21610579.506   -15880622.23049 -12360191.97647  21610579.267    21610583.200
  21105894.968   -18093840.94049 -13657227.28348  21105894.883    21105899.247
  24727984.074     1341978.28249   1065957.04145  24727983.523    24727992.955
  21696747.608   -13552052.54949 -10535528.46447  21696747.224    21696750.752
 03  4  5  3 16 30.0000000  0  4G11G25G31G14
  21602040.507   -15925494.53949 -12395157.36947  21602040.299    21602044.239
  21096665.298   -18142342.90849 -13695020.96448  21096665.193    21096669.524
  24743304.222     1422487.13849   1128691.15645  24743303.817    24743313.643
  21709823.252   -13483339.71949 -10481986.00247  21709822.872    21709826.333
 03  4  5  3 17  0.0000000  0  4G11G25G31G14
  21593595.199   -15969874.82049 -12429739.36547  21593594.985    21593598.887
  21087527.254   -18190363.38849 -13732439.46148  21087527.149    21087531.432
  24758625.825     1503003.71949   1191431.28345  24758625.480    24758635.591
  21722930.454   -13414461.09149 -10428314.33947  21722930.068    21722933.437
 03  4  5  3 17 30.0000000  0  4G11G25G31G14
  21585243.981   -16013760.53249 -12463935.97547  21585243.777    21585247.641
  21078481.330   -18237900.05949 -13769480.96148  21078481.211    21078485.473
  24773948.932     1583525.98249   1254175.82645  24773948.552    24773958.629
  21736068.984   -13345417.66349 -10374514.26047  21736068.593    21736071.932
 03  4  5  3 18  0.0000000  0  4G11G25G31G14
  21576986.716   -16057152.40849 -12497747.77947  21576986.503    21576990.317
  21069527.304   -18284953.73749 -13806146.10948  21069527.190    21069531.485
  24789272.250     1664048.96249   1316920.93745  24789271.834    24789281.895
  21749238.149   -13276213.34349 -10320588.81747  21749237.776    21749241.101
 03  4  5  3 18 30.0000000  0  4G11G25G31G14
  21568824.061   -16100046.94249 -12531172.04447  21568823.854    21568827.668
  21060665.765   -18331521.13749 -13842432.33648  21060665.645    21060669.971
  24804595.492     1744571.70349   1379665.84645  24804595.046    24804605.088
  21762438.024   -13206847.87749 -10266537.79647  21762437.628    21762440.949
 03  4  5  3 19  0.0000000  0  4G11G25G31G14
  21560756.061   -16142444.02449 -12564208.68447  21560755.860    21560759.771
  21051896.761   -18377601.99849 -13878339.44548  21051896.645    21051900.986
  24819917.648     1825089.96549   1442407.28245  24819917.009    24819927.356
  21775667.900   -13137324.49549 -10212363.72347  21775667.489    21775670.838
 03  4  5  3 19 30.0000000  0  5G11G25G31G14G20
  21552783.085   -16184341.75849 -12596856.22047  21552782.889    21552786.921
  21043220.708   -18423194.69749 -13913866.16448  21043220.592    21043224.962
  24835238.580     1905601.17049   1505143.20445  24835238.112    24835248.420
  21788927.570   -13067644.35049 -10158067.50047  21788927.140    21788930.558
                   -317086.64149   -232840.20243
 03  4  5  3 20  0.0000000  0  5G11G25G31G14G20
  21544905.725   -16225737.31549 -12629112.44747  21544905.532    21544909.615
  21034638.038   -18468296.60449 -13949010.44448  21034637.903    21034642.334
  24850557.931     1986103.87749   1567872.51645  24850557.447    24850567.660
  21802216.923   -12997808.04549 -10103649.59047  21802216.500    21802220.003
                   -403330.57449   -300042.93243                  24471584.333
 03  4  5  3 20 30.0000000  0  5G11G25G31G14G20
  21537124.065   -16266630.30649 -12660977.07147  21537123.849    21537127.898
  21026148.816   -18512907.34949 -13983772.00448  21026148.700    21026153.120
  24865874.912     2066594.03949   1630592.04745  24865874.443    24865884.349
  21815535.423   -12927818.19049 -10049112.02847  21815535.020    21815538.616
  24455161.887     -489598.91749   -367264.78244  24455158.776    24455168.805
 03  4  5  3 21  0.0000000  0  5G11G25G31G14G20
  21529438.392   -16307018.33849 -12692448.22047  21529438.190    21529442.246
  21017753.547   -18557024.53549 -14018148.97948  21017753.452    21017757.819
  24881189.173     2147069.89949   1693300.42145  24881188.741    24881198.273
  21828883.050   -12857675.66249  -9994455.50347  21828882.629    21828886.327
  24438742.687     -575889.86149   -434504.33744  24438738.663    24438747.524
 03  4  5  3 21 30.0000000  0  5G11G25G31G14G20
  21521848.856   -16346901.18649 -12723525.72247  21521848.694    21521852.771
  21009452.194   -18600648.37249 -14052141.52348  21009452.099    21009456.374
  24896499.749     2227527.22049   1755994.35045  24896499.402    24896508.933
  21842259.180   -12787383.36249  -9939682.26947  21842258.769    21842262.575
  24422316.631     -662204.37149   -501762.26144  24422314.873    24422322.361
 03  4  5  3 22  0.0000000  0  5G11G25G31G14G20
  21514355.851   -16386277.38849 -12754208.43847  21514355.642    21514359.710
  21001245.004   -18643777.25249 -14085748.39148  21001244.901    21001249.137
  24911806.220     2307963.29949   1818671.74545  24911805.915    24911815.556
  21855663.537   -12716942.88349  -9884793.56647  21855663.110    21855667.027
  24405886.594     -748541.43549   -569037.76244  24405885.008    24405892.528
 03  4  5  3 22 30.0000000  0  5G11G25G31G14G20
  21506959.845   -16425143.45649 -12784493.64547  21506959.632    21506963.710
  20993132.501   -18686408.05049 -14118967.14148  20993132.427    20993136.658
  24927108.601     2388377.40149   1881331.99945  24927108.302    24927117.948
  21869096.128   -12646354.02749  -9829789.24547  21869095.690    21869099.682
  24389452.988     -834898.50349   -636328.82345  24389451.783    24389459.334
 03  4  5  3 23  0.0000000  0  4G11G25G14G20
  21499661.304   -16463496.78149 -12814379.31647  21499661.095    21499665.276
  20985115.367   -18728538.16949 -14151795.75348  20985115.287    20985119.488
  21882556.900   -12575616.84849  -9774669.35647  21882556.491    21882560.492
  24373016.102     -921273.64549   -703633.97245  24373015.053    24373022.741
 03  4  5  3 23 30.0000000  0  4G11G25G14G20
  21492460.634   -16501335.80949 -12843864.23647  21492460.479    21492464.731
  20977193.765   -18770166.38349 -14184233.27148  20977193.691    20977197.843
  21896045.583   -12504733.11949  -9719435.27147  21896045.213    21896049.157
  24356575.869    -1007666.25849   -770952.76345  24356575.194    24356582.743
 03  4  5  3 24  0.0000000  0  4G11G25G14G20
  21485357.451   -16538662.89949 -12872950.23347  21485357.287    21485361.604
  20969367.313   -18811294.94249 -14216281.44148  20969367.209    20969371.315
  21909561.188   -12433708.38149  -9664091.30247  21909560.827    21909564.691
  24340131.672    -1094079.40349   -838287.54845  24340131.208    24340138.872
 03  4  5  3 24 30.0000000  0  4G11G25G14G20
  21478352.131   -16575476.13249 -12901635.82947  21478351.986    21478356.131
  20961636.173   -18851922.16149 -14247938.96248  20961636.071    20961640.153
  21923103.403   -12362543.59649  -9608638.21347  21923103.022    21923106.908
  24323684.048    -1180511.88649   -905637.41745  24323683.714    24323691.263
 03  4  5  3 25  0.0000000  0  4G11G25G14G20
  21471444.568   -16611776.45049 -12929921.74847  21471444.398    21471448.244
  20954000.225   -18892049.14249 -14279206.68048  20954000.138    20954004.190
  21936671.435   -12291242.66749  -9553079.03447  21936671.089    21936674.984
  24307232.508    -1266965.11149   -973003.41945  24307232.094    24307239.821
 03  4  5  3 25 30.0000000  0  4G11G25G14G20
  21464635.963   -16647556.62649 -12957802.36547  21464635.752    21464639.349
  20946460.754   -18931669.14649 -14310079.35648  20946460.647    20946464.734
  21950266.336   -12219801.18549  -9497410.33747  21950265.987    21950269.854
  24290778.287    -1353432.62349  -1040380.55645  24290777.705    24290785.608
 03  4  5  3 26  0.0000000  0  4G11G25G14G20
  21457925.603   -16682819.88949 -12985280.18247  21457925.397    21457928.876
  20939016.980   -18970785.82349 -14340559.83048  20939016.900    20939021.053
  21963886.822   -12148225.40049  -9441636.98747  21963886.448    21963890.234
  24274320.500    -1439918.31249  -1107771.86445  24274320.088    24274327.768
 03  4  5  3 26 30.0000000  0  4G11G25G14G20
  21451314.273   -16717563.00549 -13012352.69147  21451314.034    21451317.479
  20931669.822   -19009395.62249 -14370645.32948  20931669.707    20931673.851
  21977532.870   -12076514.84449  -9385758.61847  21977532.481    21977536.235
  24257859.935    -1526419.42149  -1175175.18845  24257859.603    24257866.919
 03  4  5  3 27  0.0000000  0  4G11G25G14G20
  21444802.091   -16751784.64749 -13039018.86647  21444801.863    21444805.243
  20924419.310   -19047497.10149 -14400334.73948  20924419.186    20924423.289
  21991204.222   -12004671.22649  -9329776.57447  21991203.846    21991207.564
  24241396.578    -1612935.43749  -1242590.11945  24241396.230    24241403.116
 03  4  5  3 27 30.0000000  0  4G11G25G14G20
  21438388.813   -16785486.51449 -13065280.01447  21438388.573    21438391.926
  20917265.101   -19085092.43949 -14429629.74248  20917264.989    20917269.071
  22004900.110   -11932698.83649  -9273694.18447  22004899.735    22004903.376
  24224929.860    -1699468.33949  -1310018.20745  24224929.590    24224936.039
 03  4  5  3 28  0.0000000  0  4G11G25G14G20
  21432075.165   -16818664.34149 -13091132.81547  21432074.943    21432078.350
  20910208.072   -19122177.37549 -14458527.03848  20910207.944    20910212.002
  22018620.837   -11860595.98949  -9217510.14147  22018620.456    22018624.061
  24208460.552    -1786014.23749  -1377456.42145  24208460.183    24208466.482
 03  4  5  3 28 30.0000000  0  4G11G25G14G20
  21425861.435   -16851317.02149 -13116576.41247  21425861.225    21425864.730
  20903248.257   -19158751.07049 -14487025.96648  20903248.133    20903252.221
  22032365.937   -11788364.84349  -9161226.12147  22032365.561    22032369.156
  24191988.631    -1872572.83349  -1444904.54445  24191988.246    24191994.678
 03  4  5  3 29  0.0000000  0  4G11G25G14G20
  21419748.276   -16883441.53849 -13141608.45547  21419748.077    21419751.648
  20896386.211   -19194810.84049 -14515124.43648  20896386.123    20896390.202
  22046135.532   -11716005.20449  -9104841.97947  22046135.138    22046138.746
  24175514.567    -1959141.48149  -1512360.49845  24175514.271    24175521.517
 03  4  5  3 29 30.0000000  0  4G11G25G14G20
  21413735.725   -16915037.62649 -13166228.73347  21413735.529    21413739.131
  20889622.098   -19230356.47449 -14542822.27948  20889622.026    20889626.017
  22059929.072   -11643519.44349  -9048359.54547  22059928.679    22059932.336
  24159038.571    -2045720.32449  -1579824.39145  24159038.377    24159046.027
 03  4  5  3 30  0.0000000  0  4G11G25G14G20
  21407823.908   -16946104.45649 -13190436.60347  21407823.682    21407827.351
  20882955.998   -19265387.03749 -14570118.77448  20882955.910    20882959.877
  22073746.303   -11570909.15149  -8991780.08547  22073745.914    22073749.638
  24142561.024    -2132308.69449  -1647295.69745  24142560.814    24142568.942
 03  4  5  3 30 30.0000000  0  4G11G25G14G20
  21402012.418   -16976643.56449 -13214233.25447  21402012.185    21402015.946
  20876387.443   -19299904.86949 -14597015.72948  20876387.378    20876391.253
  22087586.423   -11498178.91049  -8935107.14747  22087586.042    22087589.774
  24126081.622    -2218909.01549  -1714776.31045  24126081.341    24126089.478
 03  4  5  3 31  0.0000000  0  4G11G25G14G20
  21396301.108   -17006656.24949 -13237619.71247  21396300.909    21396304.756
  20869916.276   -19333911.07349 -14623514.02048  20869916.198    20869919.987
  22101448.717   -11425332.43149  -8878343.64547  22101448.296    22101452.027
  24109599.888    -2305522.70249  -1782267.35745  24109599.461    24109607.340
 03  4  5  3 31 30.0000000  0  4G11G25G14G20
  21390690.993   -17036137.81849 -13260592.31647  21390690.793    21390694.589
  20863543.365   -19367400.81449 -14649609.86348  20863543.280    20863547.064
  22115333.522   -11352367.48749  -8821487.82747  22115333.123    22115336.781
  24093116.351    -2392145.42849  -1849765.43145  24093115.773    24093123.622
 03  4  5  3 32  0.0000000  0  4G11G25G14G20
  21385182.518   -17065085.30349 -13283148.75047  21385182.267    21385185.998
  20857269.121   -19400371.78049 -14675301.46348  20857269.013    20857272.836
  22129240.978   -11279283.87849  -8764539.55747  22129240.585    22129244.138
  24076631.550    -2478774.42349  -1917268.40045  24076630.975    24076638.611
 03  4  5  3 32 30.0000000  0  4G11G25G14G20
  21379775.341   -17093500.04449 -13305290.06147  21379775.110    21379778.806
  20851093.240   -19432825.58749 -14700590.09248  20851093.149    20851097.041
  22143170.246   -11206085.38549  -8707501.75447  22143169.862    22143173.363
  24060145.138    -2565411.18949  -1984777.40645  24060144.599    24060151.846
 03  4  5  3 33  0.0000000  0  4G11G25G14G20
  21374470.118   -17121378.81449 -13327013.73347  21374469.892    21374473.545
  20845016.484   -19464758.69549 -14725472.98048  20845016.396    20845020.312
  22157121.458   -11132771.49849  -8650374.03847  22157121.045    22157124.481
  24043657.926    -2652052.85749  -2052290.22645  24043657.322    24043664.213
 03  4  5  3 33 30.0000000  0  4G11G25G14G20
  21369266.866   -17148721.91149 -13348320.00247  21369266.615    21369270.259
  20839038.661   -19496171.84449 -14749950.71048  20839038.574    20839042.500
  22171094.123   -11059344.77649  -8593158.39547  22171093.712    22171097.110
  24027169.618    -2738700.05449  -2119807.34945  24027168.997    24027175.735
 03  4  5  3 34  0.0000000  0  4G11G25G14G20
  21364165.595   -17175528.64649 -13369208.32547  21364165.376    21364169.027
  20833159.953   -19527064.37249 -14774022.75548  20833159.874    20833163.803
  22185087.846   -10985807.35649  -8535856.50347  22185087.404    22185090.815
  24010680.300    -2825352.05349  -2187328.21545  24010679.673    24010686.316
 03  4  5  3 34 30.0000000  0  4G11G25G14G20
  21359166.570   -17201798.39649 -13389678.21947  21359166.357    21359169.975
  20827380.382   -19557435.81849 -14797688.75648  20827380.315    20827384.299
  22199102.236   -10912160.85549  -8478469.59847  22199101.792    22199105.203
  23994190.041    -2912008.47049  -2254852.52545  23994189.398    23994195.988
 03  4  5  3 35  0.0000000  0  4G11G25G14G20
  21354270.777   -17227525.74749 -13409725.46347  21354270.546    21354274.138
  20821700.833   -19587281.67849 -14820945.22248  20821700.787    20821704.789
  22213137.920   -10838402.46449  -8420995.51947  22213137.495    22213140.839
  23977699.829    -2998664.39949  -2322376.46345  23977699.234    23977705.921
 03  4  5  3 35 30.0000000  0  4G11G25G14G20
  21349477.365   -17252714.78449 -13429353.24247  21349477.155    21349480.757
  20816120.655   -19616605.66049 -14843795.02248  20816120.600    20816124.572
  22227193.701   -10764538.35349  -8363439.04947  22227193.274    22227196.578
  23961208.947    -3085323.39649  -2389902.79945  23961208.361    23961214.990
 03  4  5  3 36  0.0000000  0  4G11G25G14G20
  21344787.242   -17277361.36849 -13448558.33347  21344787.021    21344790.595
  20810640.600   -19645403.62649 -14866234.94448  20810640.533    20810644.487
  22241269.995   -10690566.74549  -8305798.82146  22241269.549    22241272.780
  23944718.204    -3171981.52149  -2457428.43345  23944717.598    23944724.489
 03  4  5  3 36 30.0000000  0  4G11G25G14G20
  21340200.629   -17301464.39849 -13467339.87347  21340200.377    21340203.910
  20805260.588   -19673675.61749 -14888265.01648  20805260.508    20805264.422
  22255366.428   -10616489.43549  -8248076.22546  22255366.011    22255369.210
  23928227.651    -3258638.20649  -2524952.95145  23928227.054    23928234.237
 03  4  5  3 37  0.0000000  0  4G11G25G14G20
  21335717.413   -17325023.52749 -13485697.59547  21335717.180    21335720.646
  20799980.852   -19701420.52149 -14909884.36848  20799980.783    20799984.660
  22269482.726   -10542307.83449  -8190272.36647  22269482.308    22269485.491
  23911737.663    -3345292.46549  -2592475.56945  23911737.129    23911744.315
 03  4  5  3 37 30.0000000  0  4G11G25G14G20
  21331337.283   -17348041.30649 -13503633.48347  21331337.063    21331340.457
  20794800.939   -19728641.01749 -14931095.09548  20794800.849    20794804.687
  22283617.951   -10468026.73449  -8132390.97147  22283617.523    22283620.760
  23895247.803    -3431946.89049  -2659998.31945  23895247.285    23895254.436
 03  4  5  3 38  0.0000000  0  4G11G25G14G20
  21327060.574   -17370515.58949 -13521145.86947  21327060.333    21327063.690
  20789721.108   -19755335.67249 -14951896.07048  20789721.016    20789724.825
  22297771.923   -10393646.45549  -8074432.30147  22297771.544    22297774.876
  23878758.322    -3518599.52449  -2727519.68945  23878757.711    23878764.866
 03  4  5  3 38 30.0000000  0  4G11G25G14G20
  21322887.703   -17392444.16049 -13538233.02147  21322887.472    21322890.795
  20784741.699   -19781502.63849 -14972285.86648  20784741.583    20784745.346
  22311944.795   -10319167.09549  -8016396.43047  22311944.433    22311947.873
  23862269.363    -3605248.38549  -2795038.12045  23862268.766    23862276.057
 03  4  5  3 39  0.0000000  0  4G11G25G14G20
  21318818.945   -17413825.43349 -13554893.70747  21318818.709    21318822.013
  20779863.039   -19807139.95049 -14992262.94348  20779862.930    20779866.655
  22326136.549   -10244588.72549  -7958283.40947  22326136.227    22326139.696
  23845781.408    -3691891.02749  -2862551.74445  23845780.891    23845788.339
 03  4  5  3 39 30.0000000  0  4G11G25G14G20
  21314854.596   -17434658.38049 -13571127.12847  21314854.363    21314857.586
  20775085.311   -19832246.64849 -15011826.55748  20775085.208    20775088.933
  22340346.953   -10169912.73649  -7900094.32347  22340346.620    22340350.095
  23829294.759    -3778526.55249  -2930059.81945  23829294.323    23829301.852
 03  4  5  3 40  0.0000000  0  4G11G25G14G20
  21310994.640   -17454942.49549 -13586932.88547  21310994.376    21310997.654
  20770408.530   -19856823.01649 -15030976.91748  20770408.426    20770412.193
  22354575.623   -10095140.90349  -7841830.55447  22354575.299    22354578.751
  23812809.623    -3865154.51749  -2997561.98045  23812809.256    23812816.713
 03  4  5  3 40 30.0000000  0  5G11G25G14G 1G20
  21307235.844   -17474694.09249 -13602323.69547  21307235.628    21307239.043
  20765829.606   -19880885.16249 -15049726.59248  20765829.496    20765833.290
  22368819.080   -10020291.54249  -7783506.36647  22368818.729    22368822.177
  24615663.236    -3730437.27549  -2897019.53545  24615662.602    24615672.250
  23796323.233    -3951790.75849  -3065070.58745  23796322.858    23796330.071
 03  4  5  3 41  0.0000000  0  5G11G25G14G 1G20
  21303581.932   -17493895.40749 -13617285.71847  21303581.717    21303585.154
  20761351.833   -19904415.72549 -15068062.03848  20761351.725    20761355.508
  22383080.241    -9945348.92449  -7725109.50547  22383079.866    22383083.343
  24600170.787    -3811849.68649  -2960457.58445  24600170.167    24600179.917
  23779838.833    -4038417.41549  -3132571.71445  23779838.450    23779845.309
 03  4  5  3 41 30.0000000  0  5G11G25G14G 1G20
  21300033.680   -17512541.69749 -13631815.25947  21300033.414    21300036.846
  20756976.087   -19927410.21749 -15085979.77348  20756975.985    20756979.756
  22397359.511    -9870310.56749  -7666638.04346  22397359.161    22397362.728
  24584707.772    -3893106.92949  -3023774.74945  24584707.212    24584716.912
  23763357.325    -4125029.73349  -3200061.69545  23763356.820    23763363.322
 03  4  5  3 42  0.0000000  0  5G11G25G14G 1G20
  21296590.712   -17530634.16149 -13645913.24147  21296590.457    21296593.932
  20752702.119   -19949869.69149 -15103480.61148  20752702.033    20752705.778
  22411656.586    -9795179.24049  -7608094.14146  22411656.203    22411659.844
  24569274.120    -3974209.88549  -3086971.67245  24569273.667    24569283.347
  23746878.348    -4211628.11149  -3267540.81145  23746877.768    23746883.893
 03  4  5  3 42 30.0000000  0  5G11G25G14G 1G20
  21293252.831   -17548174.44149 -13659580.95647  21293252.598    21293256.138
  20748529.680   -19971795.99849 -15120566.00348  20748529.582    20748533.312
  22425970.635    -9719958.63049  -7549480.67046  22425970.244    22425973.891
  24553869.600    -4055160.66249  -3150050.02345  24553869.140    24553878.582
  23730401.496    -4298214.21949  -3335010.37445  23730400.866    23730406.822
 03  4  5  3 43  0.0000000  0  5G11G25G14G 1G20
  21290019.772   -17565164.25349 -13672819.73147  21290019.526    21290023.105
  20744458.207   -19993191.31349 -15137237.63448  20744458.160    20744461.840
  22440300.916    -9644652.73549  -7490800.73746  22440300.504    22440304.133
  24538493.649    -4135961.42249  -3213011.47845  24538493.255    24538502.437
  23713926.631    -4384789.22249  -3402471.26345  23713925.971    23713931.904
 03  4  5  3 43 30.0000000  0  5G11G25G14G 1G20
  21286892.030   -17581600.25249 -13685626.96347  21286891.802    21286895.367
  20740488.484   -20014052.72249 -15153493.23748  20740488.429    20740492.002
  22454647.641    -9569259.96349  -7432053.11446  22454647.231    22454650.802
  24523146.823    -4216609.00749  -3275853.58945  24523146.508    24523155.398
  23697454.590    -4471349.30549  -3469920.53145  23697454.004    23697459.907
 03  4  5  3 44  0.0000000  0  5G11G25G14G 1G20
  21283869.406   -17597484.11249 -13698003.96147  21283869.184    21283872.724
  20736620.091   -20034381.54849 -15169333.83648  20736620.007    20736623.522
  22469010.164    -9493783.65049  -7373240.38446  22469009.758    22469013.339
  24507828.913    -4297105.30849  -3338577.81345  24507828.555    24507837.465
  23680985.078    -4557895.90949  -3537359.31145  23680984.486    23680990.522
 03  4  5  3 44 30.0000000  0  5G11G25G14G 1G20
  21280952.367   -17612812.96849 -13709948.48747  21280952.163    21280955.704
  20732853.457   -20054175.19849 -15184757.41148  20732853.374    20732856.874
  22483388.812    -9418222.87049  -7314361.84846  22483388.404    22483391.997
  24492540.197    -4377447.59849  -3401182.00645  24492539.688    24492548.738
  23664518.863    -4644425.63549  -3604784.93545  23664518.315    23664524.351
 03  4  5  3 45  0.0000000  0  5G11G25G14G 1G20
  21278140.828   -17627587.81549 -13721461.31847  21278140.610    21278144.074
  20729188.369   -20073435.10949 -15199765.09648  20729188.282    20729191.785
  22497782.910    -9342580.71349  -7255419.89746  22497782.559    22497786.163
  24477280.476    -4457637.32449  -3463667.32545  24477279.893    24477289.051
  23648055.744    -4730939.09249  -3672197.87045  23648055.202    23648061.288
 03  4  5  3 45 30.0000000  0  5G11G25G14G 1G20
  21275434.934   -17641807.58449 -13732541.62247  21275434.723    21275438.068
  20725625.008   -20092160.45949 -15214356.22848  20725624.908    20725628.485
  22512192.408    -9266857.90349  -7196415.10146  22512192.044    22512195.697
  24462049.972    -4537673.44649  -3526032.92745  24462049.446    24462058.374
  23631596.170    -4817434.62149  -3739596.82445  23631595.617    23631601.667
 03  4  5  3 46  0.0000000  0  5G11G25G14G 1G20
  21272834.522   -17655472.87349 -13743189.86747  21272834.293    21272837.560
  20722163.268   -20110351.71449 -15228531.19048  20722163.175    20722166.766
  22526616.920    -9191056.42049  -7137348.99546  22526616.607    22526620.240
  24446848.595    -4617556.62249  -3588279.35645  24446848.019    24446856.821
  23615139.971    -4903912.26449  -3806981.83645  23615139.429    23615145.447
 03  4  5  3 46 30.0000000  0  5G11G25G14G 1G20
  21270339.731   -17668582.94949 -13753405.48247  21270339.500    21270342.735
  20718803.300   -20128008.12049 -15242289.39448  20718803.231    20718806.821
  22541056.332    -9115177.05449  -7078222.21746  22541056.002    22541059.627
  24431676.460    -4697286.22849  -3650406.12945  24431675.953    24431684.563
  23598687.369    -4990370.37449  -3874351.64445  23598686.800    23598692.869
 03  4  5  3 47  0.0000000  0  5G11G25G14G 1G20
  21267950.618   -17681137.62749 -13763188.31347  21267950.404    21267953.624
  20715545.029   -20145130.26149 -15255631.28148  20715544.947    20715548.504
  22555510.122    -9039222.06749  -7019036.49746  22555509.795    22555513.405
  24416533.561    -4776862.57249  -3712413.44845  24416533.176    24416541.310
  23582238.502    -5076808.76449  -3941706.08145  23582237.907    23582244.046
 03  4  5  3 47 30.0000000  0  5G11G25G14G 1G20
  21265667.636   -17693134.67649 -13772536.62647  21265667.445    21265670.706
  20712388.821   -20161715.93149 -15268555.13848  20712388.732    20712392.270
  22569978.535    -8963190.31749  -6959790.97246  22569978.159    22569981.738
  24401420.262    -4856283.37649  -3774299.57045  24401419.709    24401427.797
  23565794.133    -5163224.32749  -4009042.73745  23565793.510    23565799.630
 03  4  5  3 48  0.0000000  0  5G11G25G14G 1G20
  21263490.113   -17704577.55049 -13781453.12047  21263489.922    21263493.195
  20709334.095   -20177768.77849 -15281063.81148  20709333.996    20709337.484
  22584460.523    -8887086.92849  -6900489.61946  22584460.143    22584463.740
  24386335.719    -4935551.97149  -3836067.07145  24386335.192    24386343.289
  23549353.590    -5249619.67649  -4076363.65345  23549352.903    23549359.010
 03  4  5  3 48 30.0000000  0  5G11G25G14G 1G20
  21261419.369   -17715459.36249 -13789932.42147  21261419.176    21261422.423
  20706381.926   -20193282.24049 -15293152.18148  20706381.830    20706385.302
  22598957.141    -8810906.68349  -6841128.38246  22598956.808    22598960.233
  24371281.491    -5014661.57849  -3897710.70345  24371280.884    24371288.948
  23532918.338    -5335987.27749  -4143662.94645  23532917.670    23532923.597
 03  4  5  3 49  0.0000000  0  5G11G25G14G 1G20
  21259454.231   -17725785.97349 -13797979.10147  21259454.026    21259457.282
  20703531.300   -20208262.28249 -15304824.90248  20703531.194    20703534.653
  22613466.994    -8734657.22049  -6781713.21646  22613466.623    22613469.956
  24356256.455    -5093618.48349  -3959235.32845  24356255.896    24356263.874
  23516487.326    -5422332.42749  -4210944.73745  23516486.675    23516492.479
 03  4  5  3 49 30.0000000  0  5G11G25G14G 1G20
  21257594.964   -17735556.01949 -13805592.09447  21257594.774    21257598.033
  20700782.410   -20222707.45549 -15316080.84048  20700782.297    20700785.737
  22627990.004    -8658338.49049  -6722244.04646  22627989.539    22627992.902
  24341260.690    -5172421.20649  -4020639.81945  24341260.007    24341268.249
  23500061.046    -5508652.76249  -4278207.18245  23500060.397    23500066.088
 03  4  5  3 50  0.0000000  0  5G11G25G14G 1G20
  21255842.541   -17744764.99549 -13812767.89547  21255842.376    21255845.545
  20698136.126   -20236613.53249 -15326916.70948  20698136.019    20698139.442
  22642526.640    -8581947.35649  -6662718.47246  22642526.196    22642529.652
  24326294.910    -5251065.30949  -4081920.70645  24326294.368    24326302.789
  23483640.464    -5594942.99849  -4345446.16945  23483639.775    23483645.520
 03  4  5  3 50 30.0000000  0  5G11G25G14G 1G20
  21254196.073   -17753417.35749 -13819509.96847  21254195.886    21254198.988
  20695591.434   -20249985.41549 -15337336.32548  20695591.350    20695594.757
  22657075.846    -8505489.98649  -6603141.28546  22657075.433    22657079.116
  24311358.602    -5329555.56949  -4143081.71345  24311358.108    24311366.303
  23467224.785    -5681206.86349  -4412664.62045  23467224.179    23467229.910
 03  4  5  3 51  0.0000000  0  5G11G25G14G 1G20
  21252656.305   -17761508.94749 -13825815.07247  21252656.122    21252659.210
  20693149.197   -20262819.18049 -15347336.63048  20693149.121    20693152.515
  22671638.185    -8428963.66649  -6543510.35946  22671637.812    22671641.671
  24296452.317    -5407887.53849  -4204119.36345  24296451.887    24296459.983
  23450815.035    -5767439.57049  -4479858.79345  23450814.440    23450820.297
 03  4  5  3 51 30.0000000  0  5G11G25G14G 1G20
  21251222.682   -17769042.71249 -13831685.50847  21251222.485    21251225.576
  20690808.891   -20275117.82049 -15356919.95448  20690808.811    20690812.164
  22686212.947    -8352372.58249  -6483828.96946  22686212.572    22686216.481
  24281575.456    -5486064.14749  -4265035.96345  24281575.076    24281583.336
  23434410.878    -5853642.84949  -4547030.05945  23434410.346    23434416.191
 03  4  5  3 52  0.0000000  0  5G11G25G14G 1G20
  21249895.642   -17776016.35349 -13837119.48447  21249895.433    21249898.498
  20688570.805   -20286878.98549 -15366084.45748  20688570.721    20688574.083
  22700800.300    -8275715.65249  -6424096.28146  22700799.893    22700803.794
  24266728.879    -5564082.82049  -4325829.50745  24266728.443    24266736.611
  23418013.092    -5939813.18349  -4614175.66445  23418012.548    23418018.418
 03  4  5  3 52 30.0000000  0  5G11G25G14G 1G20
  21248675.127   -17782430.45249 -13842117.46347  21248674.898    21248677.904
  20686434.698   -20298103.97049 -15374831.16048  20686434.629    20686438.045
  22715399.820    -8198995.16449  -6364314.05246  22715399.396    22715403.188
  24251912.197    -5641944.44049  -4386500.65845  24251911.821    24251919.669
  23401621.451    -6025950.69749  -4681295.67146  23401620.925    23401626.885
 03  4  5  3 53  0.0000000  0  5G11G25G14G 1G20
  21247560.682   -17788286.59149 -13846680.65847  21247560.440    21247563.500
  20684400.317   -20308794.14949 -15383161.13548  20684400.258    20684403.765
  22730010.891    -8122213.94249  -6304484.51446  22730010.521    22730014.061
  24237124.904    -5719650.57649  -4447050.67245  24237124.559    24237132.215
  23385235.959    -6112055.89949  -4748390.50746  23385235.478    23385241.560
 03  4  5  3 53 30.0000000  0  5G11G25G14G 1G20
  21246552.659   -17793583.01249 -13850807.71547  21246552.448    21246555.555
  20682468.111   -20318947.62149 -15391072.89848  20682468.045    20682471.658
  22744633.722    -8045371.51649  -6244607.28846  22744633.257    22744636.614
  24222367.597    -5797199.25449  -4507477.97545  24222367.195    24222374.801
  23368857.286    -6198126.05449  -4815458.05646  23368856.817    23368862.967
 03  4  5  3 54  0.0000000  0  5G11G25G14G 1G20
  21245651.428   -17798318.60049 -13854497.75647  21245651.222    21245654.352
  20680638.228   -20328563.84149 -15398566.02348  20680638.162    20680641.795
  22759268.140    -7968467.85449  -6184682.32846  22759267.657    22759270.856
  24207640.597    -5874589.28149  -4567781.68945  24207640.200    24207647.827
  23352485.740    -6284158.69849  -4882496.37046  23352485.271    23352491.438
 03  4  5  3 54 30.0000000  0  5G11G25G14G 1G20
  21244856.673   -17802494.60549 -13857751.76347  21244856.462    21244859.691
  20678910.303   -20337644.17549 -15405641.57748  20678910.198    20678913.824
  22773913.692    -7891505.31549  -6124711.50346  22773913.198    22773916.329
  24192943.290    -5951821.87649  -4627962.72845  24192942.985    24192950.709
  23336121.410    -6370153.98349  -4949505.57846  23336120.979    23336126.996
 03  4  5  3 55  0.0000000  0  5G11G25G14G 1G20
  21244168.525   -17806110.44949 -13860569.27247  21244168.328    21244171.695
  20677284.373   -20346188.35949 -15412299.35248  20677284.284    20677287.884
  22788570.172    -7814484.70949  -6064695.41946  22788569.712    22788572.898
  24178276.170    -6028896.27449  -4688020.48645  24178275.859    24178283.695
  23319764.455    -6456110.38449  -5016484.47146  23319763.973    23319769.957
 03  4  5  3 55 30.0000000  0  5G11G25G14G 1G20
  21243587.250   -17809164.88849 -13862949.32347  21243587.071    21243590.426
  20675760.727   -20354195.14749 -15418538.37048  20675760.639    20675764.206
  22803237.568    -7737406.03049  -6004634.08846  22803237.188    22803240.469
  24163639.406    -6105811.15049  -4747953.94245  24163639.061    24163646.879
  23303415.456    -6542025.46549  -5083431.18246  23303414.931    23303420.773
 03  4  5  3 56  0.0000000  0  5G11G25G14G 1G20
  21243112.728   -17811659.07649 -13864892.81947  21243112.509    21243115.776
  20674339.175   -20361665.60049 -15424359.47248  20674339.073    20674342.609
  22817915.815    -7660271.43349  -5944529.19246  22817915.396    22817918.594
  24149032.934    -6182567.29149  -4807763.73445  24149032.513    24149040.328
  23287074.347    -6627899.21249  -5150345.67246  23287073.755    23287079.447
 03  4  5  3 56 30.0000000  0  5G11G25G14G 1G20
  21242744.880   -17813592.30349 -13866399.20247  21242744.644    21242747.869
  20673019.628   -20368599.62049 -15429762.57548  20673019.546    20673023.060
  22832604.575    -7583081.32749  -5884381.03146  22832604.157    22832607.310
  24134456.935    -6259164.15149  -4867449.38845  24134456.443    24134464.178
  23270741.430    -6713729.79849  -5217226.53246  23270740.801    23270746.354
 03  4  5  3 57  0.0000000  0  5G11G25G14G 1G20
  21242483.468   -17814965.90749 -13867469.51047  21242483.235    21242486.445
  20671801.863   -20374998.89349 -15434748.98948  20671801.769    20671805.280
  22847303.545    -7505837.76349  -5824191.22846  22847303.131    22847306.248
  24119911.166    -6335602.55249  -4927011.56845  24119910.743    24119918.024
  23254416.741    -6799516.93949  -5284073.53346  23254416.113    23254421.426
 03  4  5  3 57 30.0000000  0  5G11G25G14G 1G20
  21242328.162   -17815781.84549 -13868105.28547  21242327.923    21242331.118
  20670685.531   -20380865.28349 -15439320.17648  20670685.422    20670688.882
  22862012.013    -7428544.14949  -5763962.41946  22862011.629    22862014.631
  24105395.164    -6411884.53349  -4986451.86145  24105394.693    24105401.777
  23238099.991    -6885261.77149  -5350887.55746  23238099.349    23238104.630
 03  4  5  3 58  0.0000000  0  5G11G25G14G 1G20
  21242279.531   -17816036.55149 -13868303.73347  21242279.326    21242282.588
  20669671.243   -20386195.23049 -15443473.34948  20669671.145    20669674.584
  22876730.611    -7351197.57849  -5703692.34146  22876730.199    22876733.172
  24090909.540    -6488006.00649  -5045767.10445  24090909.131    24090916.153
  23221792.143    -6970958.99849  -5417664.49446  23221791.559    23221796.812
 03  4  5  3 58 30.0000000  0  5G11G25G14G 1G20
  21242337.653   -17815730.99549 -13868065.62347  21242337.436    21242340.715
  20668758.784   -20390989.97749 -15447209.48448  20668758.686    20668762.132
  22891458.867    -7273800.27549  -5643382.74046  22891458.403    22891461.396
  24076454.545    -6563967.66349  -5104957.81945  24076454.177    24076461.061
  23205493.431    -7056608.35849  -5484404.15446  23205492.902    23205498.178
 03  4  5  3 59  0.0000000  0  5G11G25G14G 1G20
  21242501.949   -17814867.62749 -13867392.84547  21242501.712    21242504.985
  20667947.745   -20395251.91749 -15450530.44448  20667947.658    20667951.049
  22906196.043    -7196355.43649  -5583036.10146  22906195.621    22906198.554
  24062029.502    -6639771.83149  -5164025.81845  24062029.044    24062035.836
  23189203.656    -7142210.89749  -5551107.31146  23189203.119    23189208.419
 03  4  5  3 59 30.0000000  0  5G11G25G14G 1G20
  21242773.135   -17813442.41049 -13866282.27347  21242772.924    21242776.142
  20667238.802   -20398977.53249 -15453433.49448  20667238.678    20667242.039
  22920942.687    -7118860.17349  -5522650.17746  22920942.322    22920945.311
  24047635.222    -6715414.23949  -5222967.76045  24047634.778    24047641.322
  23172923.891    -7227761.28949  -5617769.84046  23172923.279    23172928.583
 03  4  5  4  0  0.0000000  0  5G11G25G14G 1G20
  21243150.774   -17811458.18449 -13864736.10047  21243150.543    21243153.745
  20666631.346   -20402169.51149 -15455920.71548  20666631.219    20666634.576
  22935698.367    -7041317.78149  -5462227.51746  22935697.997    22935701.075
  24033271.316    -6790897.35449  -5281785.59245  24033270.863    24033277.252
  23156653.694    -7313260.95049  -5684392.82546  23156653.103    23156658.402
 03  4  5  4  0 30.0000000  0  5G11G25G14G 1G20
  21243634.972   -17808913.88549 -13862753.51047  21243634.748    21243637.860
  20666125.468   -20404827.42849 -15457991.79448  20666125.379    20666128.685
  22950463.054    -6963728.36849  -5401768.22646  22950462.735    22950465.807
  24018937.685    -6866219.89649  -5340478.30145  24018937.277    24018943.627
  23140393.727    -7398707.16949  -5750974.19146  23140393.149    23140398.491
 03  4  5  4  1  0.0000000  0  5G11G25G14G 1G20
  21244225.781   -17805809.10349 -13860334.17647  21244225.549    21244228.600
  20665721.398   -20406950.83049 -15459646.36248  20665721.319    20665724.515
  22965236.734    -6886092.10049  -5341272.43146  22965236.378    22965239.519
  24004634.669    -6941380.97249  -5399045.19145  24004634.288    24004640.874
  23124144.307    -7484097.94249  -5817512.36046  23124143.738    23124149.015
 03  4  5  4  1 30.0000000  0  5G11G25G14G 1G20
  21244922.970   -17802145.52649 -13857479.41847  21244922.736    21244925.740
  20665418.798   -20408541.26249 -15460885.62948  20665418.698    20665421.837
  22980018.836    -6808411.49949  -5280742.06946  22980018.464    22980021.747
  23990362.084    -7016381.96049  -5457487.35145  23990361.699    23990368.529
  23107905.337    -7569433.41849  -5884007.42946  23107904.731    23107910.100
 03  4  5  4  2  0.0000000  0  5G11G25G14G 1G20
  21245726.576   -17797922.58149 -13854188.79147  21245726.350    21245729.240
  20665217.674   -20409598.19749 -15461709.19148  20665217.578    20665220.725
  22994809.456    -6730686.61549  -5220177.21446  22994808.996    22994812.386
  23976120.212    -7091221.93149  -5515804.05345  23976119.798    23976126.875
  23091677.319    -7654711.56549  -5950457.83246  23091676.705    23091682.106
 03  4  5  4  2 30.0000000  0  5G11G25G14G 1G20
  21246636.290   -17793141.91649 -13850463.57647  21246636.040    21246638.850
  20665117.660   -20410123.66649 -15462118.62448  20665117.577    20665120.707
  23009607.972    -6652919.62449  -5159579.55446  23009607.560    23009610.985
  23961908.909    -7165902.08549  -5573996.21045  23961908.466    23961915.666
  23075460.172    -7739932.41449  -6016863.58646  23075459.562    23075464.970
 03  4  5  4  3  0.0000000  0  5G11G25G14G 1G20
  21247652.205   -17787803.07149 -13846303.41847  21247651.967    21247654.701
  20665118.848   -20410117.50749 -15462113.79848  20665118.756    20665121.832
  23024414.351    -6575111.06449  -5098949.49146  23024413.910    23024417.443
  23947728.094    -7240421.77049  -5632063.32645  23947727.683    23947734.935
  23059254.342    -7825093.96149  -6083223.12846  23059253.771    23059259.081
 03  4  5  4  3 30.0000000  0  5G11G25G14G 1G20
  21248774.193   -17781906.49949 -13841708.66847  21248773.950    21248776.642
  20665221.109   -20409580.08349 -15461694.99948  20665221.005    20665224.052
  23039228.438    -6497262.00249  -5038287.87546  23039228.095    23039231.666
  23933577.877    -7314780.63249  -5690005.13545  23933577.609    23933584.800
  23043060.056    -7910194.80149  -6149535.37146  23043059.492    23043064.723
 03  4  5  4  4  0.0000000  0  5G11G25G14G 1G20
  21250002.211   -17775452.68749 -13836679.70647  21250001.980    21250004.668
  20665424.386   -20408511.78849 -15460862.53748  20665424.265    20665427.346
  23054050.166    -6419373.35649  -4977595.42046  23054049.773    23054053.378
  23919458.472    -7388978.84149  -5747821.74945  23919458.174    23919465.300
  23026877.627    -7995233.78949  -6215799.39546  23026877.015    23026882.189
 03  4  5  4  4 30.0000000  0  5G11G25G14G 1G20
  21251336.145   -17768442.14049 -13831216.92047  21251335.956    21251338.713
  20665728.498   -20406913.57449 -15459617.15248  20665728.384    20665731.441
  23068879.108    -6341446.13349  -4916872.88946  23068878.788    23068882.459
  23905369.616    -7463016.58149  -5805513.33145  23905369.187    23905376.172
  23010707.309    -8080209.55149  -6282014.17446  23010706.599    23010711.709
 03  4  5  4  5  0.0000000  0  5G11G25G14G 1G20
  21252776.190   -17760874.60149 -13825320.12047  21252775.989    21252778.763
  20666133.426   -20404785.32849 -15457958.75848  20666133.324    20666136.423
  23083715.482    -6263480.78749  -4856120.67046  23083715.156    23083718.818
  23891311.425    -7536893.00049  -5863079.21945  23891311.069    23891317.812
  22994549.315    -8165120.02449  -6348178.08146  22994548.595    22994553.654
 03  4  5  4  5 30.0000000  0  5G11G25G14G 1G20
  21254322.074   -17752750.93149 -13818989.97047  21254321.889    21254324.649
  20666638.973   -20402128.14049 -15455888.19748  20666638.884    20666642.036
  23098558.816    -6185478.64849  -4795339.77046  23098558.501    23098562.149
  23877283.789    -7610608.51149  -5920519.74145  23877283.390    23877290.132
  22978403.955    -8249964.43649  -6414290.49946  22978403.193    22978408.202
 03  4  5  4  6  0.0000000  0  5G11G25G14G 1G20
  21255973.660   -17744072.16249 -13812227.27547  21255973.476    21255976.213
  20667244.982   -20398943.29849 -15453406.48848  20667244.884    20667248.047
  23113408.919    -6107441.26049  -4734531.40946  23113408.540    23113412.301
  23863286.708    -7684163.76549  -5977835.36445  23863286.321    23863292.861
  22962271.223    -8334741.99149  -6480350.82146  22962270.451    22962275.465
 03  4  5  4  6 30.0000000  0  5G11G25G14G 1G20
  21257731.231   -17734836.24549 -13805030.43547  21257731.029    21257733.847
  20667951.769   -20395228.97549 -15450512.18848  20667951.675    20667954.818
  23128265.903    -6029367.45149  -4673694.65746  23128265.545    23128269.324
  23849320.535    -7757556.30749  -6035024.21945  23849320.140    23849326.485
  22946151.849    -8419448.95249  -6546356.12846  22946151.130    22946156.146
 03  4  5  4  7  0.0000000  0  5G11G25G14G 1G20
  21259594.270   -17725046.17349 -13797401.79647  21259594.059    21259596.963
  20668758.952   -20390987.19949 -15447206.88848  20668758.846    20668761.966
  23143129.378    -5951259.47149  -4612831.29346  23143128.996    23143132.837
  23835384.768    -7830787.76049  -6092087.54045  23835384.417    23835390.811
  22930045.904    -8504085.53649  -6612306.60546  22930045.280    22930050.237
 03  4  5  4  7 30.0000000  0  5G11G25G14G 1G20
  21261563.183   -17714699.69849 -13789339.60147  21261562.946    21261565.816
  20669666.716   -20386216.57849 -15443489.49648  20669666.608    20669669.791
  23157999.473    -5873116.30249  -4551940.50846  23157999.081    23158003.011
  23821480.103    -7903855.98349  -6149023.67545  23821479.753    23821486.306
  22913954.050    -8588648.34649  -6678199.59146  22913953.470    22913958.400
 03  4  5  4  8  0.0000000  0  5G11G25G14G 1G20
  21263637.265   -17703800.05949 -13780846.37247  21263637.021    21263639.908
  20670674.410   -20380920.71849 -15439362.83048  20670674.330    20670677.585
  23172875.678    -5794941.15249  -4491024.79746  23172875.272    23172879.220
  23807606.077    -7976763.52849  -6205834.60445  23807605.708    23807612.447
  22897876.112    -8673138.50749  -6744035.95646  22897875.521    22897880.440
 03  4  5  4  8 30.0000000  0  5G11G25G14G 1G20
  21265816.952   -17692345.55349 -13771920.77747  21265816.741    21265819.643
  20671782.474   -20375097.47549 -15434825.21148  20671782.403    20671785.696
  23187758.290    -5716732.98049  -4430083.34946  23187757.849    23187761.687
  23793763.027    -8049507.96149  -6262518.46045  23793762.652    23793769.449
  22881812.720    -8757552.19449  -6809812.73746  22881812.131    22881817.014
 03  4  5  4  9  0.0000000  0  5G11G25G14G 1G20
  21268101.524   -17680340.02749 -13762565.81947  21268101.310    21268104.185
  20672990.220   -20368750.77749 -15429879.71948  20672990.167    20672993.422
  23202646.446    -5638495.57649  -4369119.14746  23202645.992    23202649.747
  23779950.555    -8122092.31949  -6319077.56845  23779950.213    23779956.965
  22865763.527    -8841891.09049  -6875531.24546  22865762.952    22865767.842
 03  4  5  4  9 30.0000000  0  5G11G25G14G 1G20
  21270491.386   -17667781.05449 -13752779.60047  21270491.176    21270494.087
  20674297.962   -20361878.73149 -15424524.85748  20674297.881    20674301.107
  23217540.561    -5560226.91649  -4308130.56146  23217540.081    23217543.746
  23766169.173    -8194513.81349  -6375509.77245  23766168.764    23766175.401
  22849729.405    -8926150.85049  -6941188.09146  22849728.852    22849733.636
 03  4  5  4 10  0.0000000  0  5G11G25G14G 1G20
  21272985.840   -17654672.18649 -13742564.88947  21272985.629    21272988.690
  20675704.975   -20354484.71149 -15418763.26548  20675704.917    20675708.130
  23232439.900    -5481930.73749  -4247120.55046  23232439.397    23232443.017
  23752418.140    -8266775.21549  -6431817.24145  23752417.654    23752424.477
  22833710.030    -9010333.01749  -7006784.48246  22833709.452    22833714.149
